[[{"header":{"parameterUnit":"m.s-1","parameterCategory":1,"la1":30.6,"la2":29.2853,"lo1":-89.7004,"lo2":-87.6739,"dy":0.0162,"dx":0.0183,"nx":112,"ny":82,"refTime":"2025-08-14T12:00:00:Z","depth":0,"parameterNumber":2,"parameterNumberName":"U-component_of_WINDS"},"data":[0.0,0.0,0.0,0.0,0.0,0.0,0.0,0.0,0.0,0.0,0.0,0.0,0.0,0.0,0.0,0.0,0.0,0.0,0.0,0.0,0.0,0.0,0.0,0.0,0.0,0.0,0.0,0.0,0.0,0.0,0.0,0.0,0.0,0.0,0.0,0.0,0.0,0.0,0.0,0.0,0.0,0.0,0.0,0.0,0.0,0.0,0.0,0.0,0.0,0.0,0.0,0.0,0.0,0.0,0.0,0.0,0.0,0.0,0.0,0.0,0.0,0.0,0.0,0.0,0.0,0.0,0.0,0.0,0.0,0.0,0.0,0.0,0.0,0.0,0.0,0.0,0.0,0.0,0.0,0.0,0.0,0.0,0.0,0.0,0.0,0.0,0.0,0.0,0.0,0.0,0.0,0.6558,0.8218,0.9226,0.9226,0.9075,0.8562,0.7593,0.0,0.0,0.0,0.0,0.0,0.0,0.0,0.0,0.0,0.0,0.0,0.0,0.0,0.0,0.0,0.0,0.0,0.0,0.0,0.0,0.0,0.0,0.0,0.0,0.0,0.0,0.0,0.0,0.0,0.0,0.0,0.0,0.0,0.0,0.0,0.0,0.0,0.0,0.0,0.0,0.0,0.0,0.0,0.0,0.0,0.0,0.0,0.0,0.0,0.0,0.0,0.0,0.0,0.0,0.0,0.0,0.0,0.0,0.0,0.0,0.0,0.0,0.0,0.0,0.0,0.0,0.0,0.0,0.0,0.0,0.0,0.0,0.0,0.0,0.0,0.0,0.0,0.0,0.0,0.0,0.0,0.0,0.0,0.0,0.0,0.0,0.0,0.0,0.0,0.0,0.0,0.0,0.0,0.0,0.0,0.0,0.0,0.0,0.0,0.0,0.0,0.0,0.0,0.0,0.5507,0.776,0.9083,0.978,0.978,0.8945,0.8349,0.8185,0.0,0.0,0.0,0.0,0.0,0.0,0.0,0.0,0.0,0.0,0.0,0.0,0.0,0.0,0.0,0.0,0.0,0.0,0.0,0.0,0.0,0.0,0.0,0.0,0.0,0.0,0.0,0.0,0.0,0.0,0.0,0.0,0.0,0.0,0.0,0.0,0.0,0.0,0.0,0.0,0.0,0.0,0.0,0.0,0.0,0.0,0.0,0.0,0.0,0.0,0.0,0.0,0.0,0.0,0.0,0.0,0.0,0.0,0.0,0.0,0.0,0.0,0.0,0.0,0.0,0.0,0.0,0.0,0.0,0.0,0.0,0.0,0.0,0.0,0.0,0.0,0.0,0.0,0.0,0.0,0.0,0.0,0.0,0.0,0.0,0.0,0.0,0.0,0.0,0.0,0.0,0.0,0.0,0.0,0.0,0.0,0.0,0.0,0.0,0.0,0.0,0.0,0.0,0.5606,0.6644,0.8139,0.9265,0.9899,0.9899,0.892,0.8305,0.8305,0.6463,0.0,0.0,0.0,0.0,0.0,0.0,0.0,0.0,0.0,0.0,0.0,0.0,0.0,0.0,0.0,0.0,0.0,0.0,0.0,0.0,0.0,0.0,0.0,0.0,0.0,0.0,0.0,0.0,0.0,0.0,0.0,0.0,0.0,0.0,0.0,0.0,0.0,0.0,0.0,0.0,0.0,0.0,0.0,0.0,0.0,0.0,0.0,0.0,0.0,0.0,0.0,0.0,0.0,0.0,0.0,0.0,0.0,0.0,0.0,0.0,0.0,0.0,0.0,0.0,0.0,0.0,0.0,0.0,0.0,0.0,0.0,0.0,0.0,0.0,0.0,0.0,0.0,0.0,0.0,0.0,0.0,0.0,0.0,0.0,0.0,0.0,0.0,0.0,0.0,0.0,0.0,0.0,0.0,0.0,0.0,0.0,0.0,0.0,0.0,0.0,0.0,0.0,0.6645,0.7666,0.8233,0.9265,0.9899,0.9899,0.892,0.8305,0.8305,0.6153,0.0,0.0,0.0,0.0,0.0,0.0,0.0,0.0,0.0,0.0,0.0,0.0,0.0,0.0,0.0,0.0,0.0,0.0,0.0,0.0,0.0,0.0,0.0,0.0,0.0,0.0,0.0,0.0,0.0,0.0,0.0,0.0,0.0,0.0,0.0,0.0,0.0,0.0,0.0,0.0,0.0,0.0,0.0,0.0,0.0,0.0,0.0,0.0,0.0,0.0,0.0,0.0,0.0,0.0,0.0,0.0,0.0,0.0,0.0,0.0,0.0,0.0,0.0,0.0,0.0,0.0,0.0,0.0,0.0,0.0,0.0,0.0,0.0,0.0,0.0,0.0,0.0,0.0,0.0,0.0,0.0,0.0,0.0,0.0,0.0,0.0,0.0,0.0,0.0,0.0,0.0,0.0,0.0,0.0,0.0,0.0,0.0,0.0,0.0,0.0,0.0,0.0,0.6762,0.798,0.8277,0.9265,0.9899,0.9899,0.892,0.8305,0.8305,0.599,0.0,0.0,0.0,0.0,0.0,0.0,0.0,0.0,0.0,0.0,0.0,0.0,0.0,0.0,0.0,0.0,0.0,0.0,0.0,0.0,0.0,0.0,0.0,0.0,0.0,0.0,0.0,0.0,0.0,0.0,0.0,0.0,0.0,0.0,0.0,0.0,0.0,0.0,0.0,0.0,0.0,0.0,0.0,0.0,0.0,0.0,0.0,0.0,0.0,0.0,0.0,0.0,0.0,0.0,0.0,0.0,0.0,0.0,0.0,0.0,0.0,0.0,0.0,0.0,0.0,0.0,0.0,0.0,0.0,0.0,0.0,0.0,0.0,0.0,0.0,0.0,0.0,0.0,0.0,0.0,0.0,0.0,0.0,0.0,0.0,0.0,0.0,0.0,0.0,0.0,0.0,0.0,0.0,0.0,0.0,0.0,0.0,0.0,0.0,0.0,0.0,0.0,0.6422,0.74,0.0,0.8776,0.9304,0.9555,0.8578,0.8044,0.8277,0.0,0.0,0.0,0.0,0.0,0.0,0.0,0.0,0.0,0.0,0.0,0.0,0.0,0.0,0.0,0.0,0.0,0.0,0.0,0.0,0.0,0.0,0.0,0.0,0.0,0.0,0.0,0.0,0.0,0.0,0.0,0.0,0.0,0.0,0.0,0.0,0.0,0.0,0.0,0.0,0.0,0.0,0.0,0.0,0.0,0.0,0.0,0.0,0.0,0.0,0.0,0.0,0.0,0.0,0.0,0.0,0.0,0.0,0.0,0.0,0.0,0.0,0.0,0.0,0.0,0.0,0.0,0.0,0.0,0.0,0.0,0.0,0.0,0.0,0.0,0.0,0.0,0.0,0.0,0.0,0.0,0.0,0.0,0.0,0.0,0.0,0.0,0.0,0.0,0.0,0.0,0.0,0.0,0.0,0.0,0.0,0.0,0.0,0.0,0.0,0.0,0.0,0.5553,0.641,0.7186,0.0,0.8466,0.8899,0.9176,0.8202,0.7683,0.7962,0.0,0.0,0.0,0.0,0.0,0.0,0.0,0.0,0.0,0.0,0.0,0.0,0.0,0.0,0.0,0.0,0.0,0.0,0.0,0.0,0.0,0.0,0.0,0.0,0.0,0.0,0.0,0.0,0.0,0.0,0.0,0.0,0.0,0.0,0.0,0.0,0.0,0.0,0.0,0.0,0.0,0.0,0.0,0.0,0.0,0.0,0.0,0.0,0.0,0.0,0.0,0.0,0.0,0.0,0.0,0.0,0.0,0.0,0.0,0.0,0.0,0.0,0.0,0.0,0.0,0.0,0.0,0.0,0.0,0.0,0.0,0.0,0.0,0.0,0.0,0.0,0.0,0.0,0.0,0.0,0.0,0.0,0.0,0.0,0.0,0.0,0.0,0.0,0.0,0.0,0.0,0.0,0.0,0.0,0.0,0.0,0.0,0.0,0.0,0.0,0.0,0.0,0.6034,0.6831,0.7481,0.7937,0.8472,0.8789,0.8783,0.7879,0.7286,0.0,0.0,0.0,0.0,0.0,0.0,0.0,0.0,0.0,0.0,0.0,0.0,0.0,0.0,0.0,0.0,0.0,0.0,0.0,0.0,0.0,0.0,0.0,0.0,0.0,0.0,0.0,0.0,0.0,0.0,0.0,0.0,0.0,0.0,0.0,0.0,0.0,0.0,0.0,0.0,0.0,0.0,0.0,0.0,0.0,0.0,0.0,0.0,0.0,0.0,0.0,0.0,0.0,0.0,0.0,0.0,0.0,0.0,0.0,0.0,0.0,0.0,0.0,0.0,0.0,0.0,0.0,0.0,0.0,0.0,0.0,0.0,0.0,0.0,0.0,0.0,0.0,0.0,0.0,0.0,0.0,0.0,0.0,0.0,0.0,0.0,0.0,0.0,0.0,0.0,0.0,0.0,0.0,0.0,0.0,0.0,0.0,0.0,0.0,0.0,0.0,0.0,0.0,0.6151,0.6688,0.7174,0.7721,0.7923,0.8138,0.8421,0.7526,0.7048,0.7286,0.0,0.0,0.0,0.0,0.0,0.0,0.0,0.0,0.0,0.0,0.0,0.0,0.0,0.0,0.0,0.0,0.0,0.0,0.0,0.0,0.0,0.0,0.0,0.0,0.0,0.0,0.0,0.0,0.0,0.0,0.0,0.0,0.0,0.0,0.0,0.0,0.0,0.0,0.0,0.0,0.0,0.0,0.0,0.0,0.0,0.0,0.0,0.0,0.0,0.0,0.0,0.0,0.0,0.0,0.0,0.0,0.0,0.0,0.0,0.0,0.0,0.0,0.0,0.0,0.0,0.0,0.0,0.0,0.0,0.0,0.0,0.0,0.0,0.0,0.0,0.0,0.0,0.0,0.0,0.0,0.0,0.0,0.0,0.0,0.0,0.0,0.0,0.0,0.0,0.0,0.0,0.0,0.0,0.0,0.0,0.0,0.0,0.0,0.0,0.0,0.0,0.0,0.6205,0.6532,0.6905,0.7637,0.77,0.7807,0.8033,0.7351,0.6928,0.6931,0.0,0.0,0.0,0.0,0.0,0.0,0.0,0.0,0.0,0.0,0.0,0.0,0.0,0.0,0.0,0.0,0.0,0.0,0.0,0.0,0.0,0.0,0.0,0.0,0.0,0.0,0.0,0.0,0.0,0.0,0.0,0.0,0.0,0.0,0.0,0.0,0.0,0.0,0.0,0.0,0.0,0.0,0.0,0.0,0.0,0.0,0.0,0.0,0.0,0.0,0.0,0.0,0.0,0.0,0.0,0.0,0.0,0.0,0.0,0.0,0.0,0.0,0.0,0.0,0.0,0.0,0.0,0.0,0.0,0.0,0.0,0.0,0.0,0.0,0.0,0.0,0.0,0.0,0.0,0.0,0.0,0.0,0.0,0.0,0.0,0.0,0.0,0.0,0.0,0.0,0.0,0.0,0.0,0.0,0.0,0.0,0.0,0.0,0.0,0.0,0.0,0.0,0.6187,0.6406,0.6743,0.7608,0.77,0.77,0.77,0.7339,0.6919,0.6499,0.0,0.0,0.0,0.0,0.0,0.0,0.0,0.0,0.0,0.0,0.0,0.0,0.0,0.0,0.0,0.0,0.0,0.0,0.0,0.0,0.0,0.0,0.0,0.0,0.0,0.0,0.0,0.0,0.0,0.0,0.0,0.0,0.0,0.0,0.0,0.0,0.0,0.0,0.0,0.0,0.0,0.0,0.0,0.0,0.0,0.0,0.0,0.0,0.0,0.0,0.0,0.0,0.0,0.0,0.0,0.0,0.0,0.0,0.0,0.0,0.6239,0.0,0.0,0.0,0.0,0.0,0.0,0.0,0.0,0.0,0.0,0.0,0.0,0.0,0.0,0.0,0.0,0.0,0.0,0.0,0.0,0.0,0.0,0.0,0.0,0.0,0.0,0.0,0.0,0.0,0.0,0.0,0.0,0.0,0.0,0.0,0.0,0.0,0.0,0.0,0.0,0.0,0.6187,0.6406,0.6743,0.7608,0.77,0.77,0.77,0.7339,0.7061,0.6958,0.5784,0.0,0.0,0.0,0.0,0.0,0.0,0.0,0.0,0.0,0.0,0.0,0.0,0.0,0.0,0.0,0.0,0.0,0.0,0.0,0.0,0.0,0.0,0.0,0.0,0.0,0.0,0.0,0.0,0.0,0.0,0.0,0.0,0.0,0.0,0.0,0.0,0.0,0.0,0.0,0.0,0.0,0.0,0.0,0.0,0.0,0.0,0.0,0.0,0.0,0.0,0.0,0.0,0.0,0.0,0.0,0.0,0.0,0.0,0.0,0.0,0.8524,0.0,0.0,0.0,0.0,0.0,0.0,0.0,0.0,0.0,0.0,0.0,0.0,0.0,0.0,0.0,0.0,0.0,0.0,0.0,0.0,0.0,0.0,0.0,0.0,0.0,0.0,0.0,0.0,0.0,0.0,0.0,0.0,0.0,0.0,0.0,0.0,0.0,0.0,0.0,0.0,0.624,0.6602,0.6992,0.7627,0.77,0.77,0.77,0.7501,0.7319,0.7114,0.6455,0.0,0.0,0.0,0.0,0.0,0.0,0.0,0.0,0.0,0.0,0.0,0.0,0.0,0.0,0.0,0.0,0.0,0.0,0.0,0.0,0.0,0.0,0.0,0.0,0.0,0.0,0.0,0.0,0.0,0.0,0.0,0.0,0.0,0.0,0.0,0.0,0.0,0.0,0.0,0.0,0.0,0.0,0.0,0.0,0.0,0.0,0.0,0.0,0.0,0.0,0.0,0.0,0.0,1.1421,1.1489,1.2881,1.2881,1.2881,1.2816,1.1148,1.1703,1.3521,1.0055,0.0,0.0,0.0,0.0,0.0,0.0,0.0,0.0,0.0,0.0,0.0,0.0,0.0,0.0,0.0,0.0,0.0,0.0,0.0,0.0,0.0,0.0,0.0,0.0,1.0973,1.1029,0.0,0.0,0.0,0.0,0.0,0.0,0.0,0.0,0.0,0.0,0.0,0.0,0.6484,0.6909,0.729,0.7759,0.7744,0.77,0.77,0.77,0.7549,0.7231,0.7144,0.6611,0.0,0.0,0.0,0.0,0.0,0.0,0.0,0.0,0.0,0.0,0.0,0.0,0.0,0.0,0.0,0.0,0.0,0.0,0.0,0.0,0.0,0.0,0.0,0.0,0.0,0.0,0.0,0.0,0.0,0.0,0.0,0.0,0.6201,0.2058,0.0,0.0,0.0,0.0,0.0,0.0,0.0,0.0,0.0,0.0,0.0,0.0,0.0,0.8028,1.1612,1.1588,1.2016,1.2881,1.2651,1.2661,1.2881,1.2881,1.2881,1.2905,1.2621,0.0,1.5871,1.3482,0.0,0.0,0.0,0.0,0.0,0.0,0.0,0.0,0.0,0.0,0.0,0.0,0.0,0.0,0.0,0.0,0.0,0.0,0.0,0.0,0.0,0.0,1.4135,1.3651,1.3594,1.3474,0.0,1.1075,0.9341,0.8137,0.7705,0.0,0.0,0.0,0.0,0.0,0.0,0.0,0.7316,0.729,0.7407,0.8208,0.7954,0.77,0.77,0.77,0.7676,0.7618,0.73,0.7026,0.6846,0.6504,0.0,0.0,0.0,0.0,0.0,0.0,0.0,0.0,0.0,0.0,0.0,0.0,0.0,0.0,0.0,0.0,0.0,0.0,0.0,0.0,0.0,0.0,0.0,0.0,0.0,0.0,0.0,0.0,0.0,0.8514,0.9342,0.6126,0.6067,0.5662,0.0,0.0,0.0,0.0,0.0,0.0,0.0,0.0,0.0,0.9522,1.0043,1.1147,1.2871,1.2881,1.2881,1.2881,1.2881,1.2881,1.2881,1.2881,1.3663,1.4932,1.4932,1.5522,1.644,1.5433,1.3356,1.0564,0.0,0.0,0.0,0.0,0.7999,1.2083,1.3226,1.4896,0.0,1.7278,0.0,0.0,0.0,0.0,0.0,0.0,0.0,0.0,0.0,0.0,1.4531,1.4915,1.4756,1.4488,1.4205,1.3383,1.209,0.0,0.9744,0.918,0.6895,0.0,0.0,0.0,0.0,0.0,0.7964,0.814,0.8315,0.8691,0.856,0.8415,0.8415,0.8415,0.8345,0.8105,0.7925,0.7507,0.6788,0.679,0.6396,0.0,0.0,0.0,0.0,0.0,0.0,0.0,0.0,0.0,0.0,0.0,0.0,0.0,0.0,0.0,0.0,0.0,0.0,0.0,0.0,0.0,0.0,0.0,0.0,0.0,0.0,0.0,0.0,0.9144,1.0802,0.9566,0.9832,0.9351,0.0,0.0,0.0,0.0,0.0,0.0,0.5896,0.9105,1.1543,1.2842,1.2881,1.2881,1.2881,1.2881,1.2881,1.2881,1.2881,1.2881,1.2881,1.2881,1.4206,1.6515,1.6515,1.6515,1.6515,1.6515,1.5508,1.384,1.1743,0.9718,0.8015,0.8015,1.057,1.4275,1.5909,1.6515,1.652,1.6737,0.0,1.7626,1.9207,0.0,0.0,0.0,0.0,1.3509,1.4706,1.4857,1.493,1.5704,1.5588,1.5254,1.5148,1.5084,1.435,0.0,1.1646,1.1057,0.8489,0.0,0.0,0.0,0.0,0.8091,0.8628,0.8882,0.9043,0.9155,0.9067,0.9004,0.9004,0.9004,0.8872,0.856,0.8369,0.7831,0.6874,0.6901,0.6597,0.5835,0.0,0.0,0.0,0.0,0.0,0.0,0.0,0.0,0.0,0.0,0.0,0.0,0.0,0.0,0.0,0.0,0.0,0.0,0.0,0.0,0.0,0.0,0.0,0.0,0.0,0.0,0.0,0.0,0.0,1.0978,1.1056,0.0,0.0,0.0,0.0,0.9568,1.156,1.2626,1.2444,1.2656,1.2788,1.2881,1.2881,1.2881,1.2881,1.2881,1.2881,1.2881,1.2881,1.2881,1.2881,1.2881,1.4206,1.6515,1.6515,1.6515,1.6515,1.6515,1.6446,1.6303,1.6162,1.6031,1.5936,1.5936,1.6115,1.6365,1.6478,1.6515,1.6818,1.8861,1.9534,1.9566,1.9682,1.805,0.0,0.0,1.716,1.6189,1.5772,1.6001,1.6396,1.647,1.6434,1.6289,1.5768,1.5655,1.5147,0.0,1.2826,1.1963,0.9846,0.0,0.8869,0.837,0.8352,0.8638,0.9427,0.9238,0.916,0.952,0.9243,0.9004,0.9004,0.9004,0.8994,0.8975,0.8262,0.7803,0.773,0.6967,0.6323,0.5907,0.6245,0.0,0.0,0.0,0.0,0.0,0.0,0.0,0.0,0.0,0.0,0.0,0.0,0.0,0.0,0.0,0.0,0.0,0.0,0.0,0.0,0.0,0.0,0.0,0.0,0.0,0.0,0.0,0.0,1.2126,1.3544,0.0,1.1887,1.0827,0.9765,0.8589,1.2733,1.5304,1.5207,1.5203,1.5203,1.5203,1.3705,1.2881,1.2881,1.2881,1.2881,1.2929,1.4474,1.5203,1.5203,1.5203,1.57,1.6515,1.6515,1.6515,1.6515,1.6515,1.6515,1.6515,1.6515,1.6515,1.6515,1.6515,1.6515,1.6515,1.6515,1.6515,1.6637,1.7388,1.8574,1.9682,1.9682,1.8217,1.6595,1.6951,1.6795,1.6557,1.6705,1.6606,1.6595,1.6915,1.6752,1.6465,1.6271,1.622,1.5944,1.4996,1.4132,1.2922,1.1009,1.049,0.9991,0.8929,0.9009,0.9395,0.9976,0.9922,0.9888,1.0034,0.9917,0.9829,0.9829,0.9829,0.9481,0.865,0.8346,0.7694,0.662,0.6527,0.6309,0.592,0.6047,0.5778,0.0,0.0,0.0,0.0,0.0,0.0,0.0,0.0,0.0,0.0,0.0,0.0,0.0,0.0,0.0,0.0,0.0,0.0,0.0,0.0,0.0,0.0,0.0,0.0,0.0,0.0,1.4218,1.3505,1.5479,1.5921,1.3387,1.3118,1.2339,1.0561,1.4889,1.7271,1.6558,1.6515,1.6515,1.6515,1.4932,1.3705,1.2929,1.3705,1.4113,1.4113,1.5744,1.6515,1.6515,1.6515,1.6515,1.6559,1.73,1.7626,1.757,1.6823,1.6955,1.7551,1.6804,1.6515,1.6515,1.6515,1.6515,1.6515,1.6515,1.6515,1.6558,1.6915,1.7747,1.8772,1.9486,1.8696,1.7429,1.6716,1.6515,1.6595,1.6957,1.6752,1.6595,1.6951,1.6752,1.6515,1.6515,1.6515,1.6317,1.5768,1.4898,1.3776,1.2213,1.1649,1.1082,1.0021,1.0103,1.0386,1.0719,1.0586,1.0493,1.0493,1.0366,1.0244,1.0044,1.0201,0.9768,0.8583,0.8392,0.7709,0.6336,0.6231,0.6117,0.5917,0.5992,0.5933,0.57,0.0,0.0,0.0,0.0,0.0,0.0,0.0,0.0,0.0,0.0,0.0,0.0,0.0,0.0,0.0,0.0,0.0,0.0,0.0,0.0,0.0,0.0,0.0,1.19,1.3757,1.5338,1.516,1.6831,1.7545,1.6296,1.6023,1.5918,1.5918,1.8287,1.8772,1.6716,1.6558,1.6515,1.6515,1.6515,1.5383,1.3017,1.5396,1.6616,1.6616,1.6616,1.6616,1.6616,1.6616,1.6616,1.6735,1.8876,1.9805,1.9635,1.7501,1.7877,1.9591,1.7451,1.6578,1.6515,1.6515,1.6515,1.6515,1.6558,1.6515,1.6674,1.7747,1.7388,1.6915,1.8968,1.9603,1.9207,1.7194,1.6558,1.6515,1.6515,1.6515,1.6515,1.6515,1.6515,1.6515,1.6515,1.6479,1.6287,1.572,1.5158,1.445,1.3373,1.2705,1.2153,1.1688,1.1606,0.0,1.1606,1.1191,1.0928,1.0928,1.0566,1.0112,0.9581,1.0019,0.9848,0.8744,0.8367,0.7812,0.7017,0.6149,0.5788,0.592,0.6145,0.6304,0.6316,0.0,0.0,0.0,0.0,0.0,0.0,0.0,0.0,0.0,0.0,0.0,0.0,0.0,0.0,0.0,0.0,0.0,0.0,0.0,0.0,0.0,0.0,1.6914,1.6114,1.7107,1.7972,1.8162,1.9622,2.0405,1.9973,1.9142,1.8646,1.8646,1.9278,1.9442,1.8848,1.7347,1.6515,1.6515,1.6515,1.6201,1.5522,1.7753,1.8901,1.8901,1.8901,1.8901,1.8901,1.8901,1.8901,1.8932,1.9541,1.9805,1.9754,1.9145,1.9252,1.9742,1.9133,1.7921,1.6515,1.6515,1.6515,1.6595,1.7388,1.7153,1.6595,1.7312,1.7585,1.7626,1.7429,1.79,1.8574,1.8772,1.7706,1.6515,1.6515,1.6515,1.6515,1.6515,1.6515,1.6515,1.6515,1.6145,1.582,1.5632,1.4756,1.3889,1.3231,1.2641,1.2064,1.165,1.1606,0.0,1.1606,1.1498,1.1425,1.1425,1.1322,1.1037,1.0558,1.0274,0.9614,0.8429,0.7903,0.7243,0.6453,0.6185,0.6067,0.6121,0.5967,0.6067,0.0,0.0,0.0,0.0,0.0,0.0,0.0,0.0,0.0,0.0,0.0,0.0,0.0,0.0,0.0,0.0,0.0,0.0,0.0,0.0,0.0,0.0,1.755,1.8697,1.8685,1.8935,1.9377,2.0075,2.1183,2.1861,2.1773,2.1189,2.0473,1.9747,1.9682,1.9682,1.9682,1.8535,1.7429,1.6515,1.6515,1.6967,1.7884,1.9164,1.9805,1.9805,1.9805,1.9805,1.9805,1.9805,1.9805,1.9805,1.9805,1.9805,1.9805,1.9805,1.9805,0.0,0.0,0.0,0.0,0.0,1.708,1.7327,1.8098,1.7937,1.7452,1.76,1.7885,1.7959,1.682,1.6957,1.7544,1.8178,1.747,1.6515,1.6515,1.6515,1.6515,1.6515,1.6515,1.6515,1.6515,1.6008,1.5543,1.5276,1.4457,0.0,1.3109,1.272,1.2412,1.2199,1.2155,1.2155,1.2155,1.1953,1.1841,1.1841,1.1714,1.1412,1.0899,1.0528,0.0,0.0,0.0,0.7361,0.6394,0.6782,0.0,0.0,0.0,0.0,0.0,0.0,0.0,0.0,0.9196,0.9663,0.0,0.0,0.0,0.0,0.0,0.0,0.0,0.0,0.0,0.0,0.0,0.0,0.0,0.0,0.0,0.0,1.9705,1.9924,1.9971,1.963,1.9833,2.1039,2.1809,2.2237,2.2282,2.231,2.1623,1.9987,1.9754,1.9682,1.9682,0.0,0.0,0.0,0.0,1.7821,1.9786,1.9805,1.9805,1.9805,1.9805,1.9805,1.9805,1.9805,1.9805,1.9805,1.9805,1.9805,1.9805,1.9805,1.9805,1.9736,1.902,1.8744,1.8662,1.7984,1.7959,1.8304,1.8696,0.0,0.0,1.8358,1.8251,1.8016,1.7018,1.6616,1.6515,1.6515,1.6515,1.6515,1.6515,1.6515,1.6515,1.6515,1.6515,1.6472,1.6423,1.5914,1.532,1.4698,1.4102,1.3552,1.2973,1.2881,1.2881,1.2881,1.2881,1.2881,1.2881,1.2544,1.23,1.23,0.0,0.0,1.1006,1.0723,1.0237,0.9377,0.867,0.7806,0.6804,0.7649,0.8155,0.8059,0.9232,0.9834,0.9844,1.0444,1.0791,1.0899,1.0195,1.0537,0.0,0.0,0.0,0.0,0.0,0.0,0.0,0.0,0.0,0.0,0.0,0.0,0.0,0.0,0.0,1.7776,1.874,1.9561,2.036,1.9758,1.973,2.1036,2.1515,2.189,2.2245,2.231,2.1886,2.0837,2.012,1.9682,1.9682,1.9682,1.9522,1.9088,1.9113,1.9371,1.9805,1.9805,1.9805,1.9805,0.0,0.0,1.9805,1.9805,1.9805,1.9805,1.9805,1.9805,1.9805,1.9805,1.9805,1.9742,1.9189,1.8963,1.8932,1.8612,1.8549,1.8715,1.9339,1.9182,1.874,1.8797,1.8554,1.8166,1.7947,1.7243,0.0,1.6515,1.6515,1.6515,1.6515,1.6515,1.6515,1.6515,1.6515,1.638,1.5864,1.5281,1.4698,1.4097,1.3515,1.3065,1.2925,1.2881,1.2881,1.2881,1.2881,1.2881,1.2881,1.2808,1.2754,1.2754,1.2681,1.2433,1.1986,1.0993,1.0212,0.9657,0.8564,0.7882,0.7679,0.7852,0.7968,0.7941,0.8175,0.8725,0.9522,1.0182,1.0859,1.1624,1.1664,1.1815,0.0,0.0,0.0,0.0,0.0,0.0,0.0,0.0,0.0,0.0,0.0,0.9401,1.003,0.0,1.6718,1.7963,1.8814,1.9579,2.0335,2.0035,2.017,2.1275,2.1346,2.1568,2.2245,2.231,2.1953,2.1071,2.0181,1.9682,1.9682,1.9682,1.9682,1.9682,1.9773,1.9805,1.9805,1.9805,1.9805,1.9805,1.9805,1.9805,1.9805,1.9805,1.9805,1.9805,1.9805,1.9805,1.9805,1.9805,1.9805,1.9773,1.9516,1.9415,1.9403,1.9296,1.9252,1.9302,1.9693,1.9544,1.9271,1.9377,1.9234,1.9001,1.9001,1.8355,1.7463,1.6729,1.6515,1.6515,1.6515,1.6515,1.6515,1.6515,1.6515,1.6331,1.572,1.5147,1.4514,1.3909,1.3329,1.2881,1.2881,1.2881,1.2881,1.2881,1.2881,1.2881,1.2881,1.2881,1.2881,1.2881,1.2881,1.2793,1.2573,1.1463,1.0302,0.914,0.8561,0.8203,0.7929,0.8717,0.9129,0.9129,0.9971,1.0639,1.1164,1.1504,1.19,1.2339,1.2498,1.2554,0.0,0.0,0.0,0.0,0.0,0.0,0.0,0.0,0.6329,0.7394,0.9501,1.129,1.1795,1.3594,1.5698,1.7646,1.8743,1.9512,2.0108,2.0185,2.0516,2.1368,2.1213,2.1323,2.2217,2.218,2.1781,2.0967,2.0147,1.9682,1.9682,1.9682,1.9802,2.0064,1.9894,1.9805,1.9805,1.9805,1.9805,1.9805,1.9805,1.9805,1.9805,1.9805,1.9805,1.9805,1.9805,1.9805,1.9805,1.9805,1.9805,1.9805,1.9805,1.9805,1.9805,1.9805,1.9805,1.9805,1.9805,1.9805,1.9805,1.9805,1.9805,1.9805,1.9805,1.9284,1.8398,1.693,1.6515,1.6515,1.6515,1.6515,1.6515,1.6515,1.6515,1.6331,1.572,1.5147,1.4514,1.3909,1.3329,1.2881,1.2881,1.2881,1.2881,1.2881,1.2881,1.2881,1.2881,1.2881,1.2881,1.2881,1.2881,1.2827,1.2715,1.1838,1.0626,0.8994,0.9037,0.8934,0.8469,0.9616,1.0339,1.0485,1.1688,1.2417,1.2666,1.2666,1.2769,1.2881,1.2964,1.2959,0.4162,0.4492,0.0,0.5722,0.5354,0.5612,0.0,0.0,0.8062,1.1034,1.1461,1.1615,1.2639,1.4325,1.5532,1.5656,1.7374,1.8954,1.9667,1.9782,2.0077,2.0959,2.1031,2.1323,2.2217,2.1811,2.1252,2.0689,2.0058,1.9682,1.9682,1.9682,2.0236,2.1433,2.0375,1.9805,1.9805,1.9805,1.9805,1.9805,1.9805,1.9805,1.9805,1.9805,1.9805,1.9805,1.9805,1.9805,1.9805,1.9805,1.9805,1.9805,1.9805,1.9805,1.9805,1.9805,1.9805,1.9805,1.9805,1.9805,1.9805,1.9805,1.9805,1.9805,1.9805,1.9284,1.8398,1.693,1.6515,1.6515,1.6515,1.6515,1.6515,1.6515,1.6515,1.6331,1.572,1.5147,1.4514,1.3909,1.3329,1.2881,1.2881,1.2881,1.2881,1.2881,1.2881,1.2881,1.2881,1.2881,1.2881,1.2881,1.2881,1.2613,1.1972,1.1828,1.1401,1.0554,1.0572,1.0547,1.0497,1.0085,1.016,1.0755,1.0348,1.072,1.1922,1.1922,1.2241,1.2891,1.3262,1.3237,0.496,0.0,0.0,0.0,0.625,0.6529,0.8184,0.8253,0.835,0.9896,1.0741,1.1436,1.234,1.3581,1.4807,0.0,1.6708,1.778,1.9043,1.9244,1.9586,2.0475,2.0583,2.091,2.1705,2.1538,2.1015,2.0154,1.9854,1.9682,1.9682,2.0064,2.0595,2.1261,2.1269,2.0813,1.9798,1.9805,1.9805,1.9805,1.9805,1.9805,1.9805,1.9805,1.9805,1.9805,1.9805,1.9805,1.9805,1.9805,1.9805,1.9805,1.9805,1.9805,1.9805,1.9805,1.9805,1.9805,1.9805,1.9805,1.9805,1.9805,1.9805,1.9805,1.9805,1.9378,1.8769,1.8154,1.7513,1.7018,1.7018,1.6766,1.6515,1.6515,1.6515,1.6331,1.572,1.5404,1.496,1.4003,1.36,1.3329,1.2973,1.2881,1.2881,1.2881,1.2881,1.2881,1.2881,1.2881,1.2881,1.2881,1.2881,1.2613,1.1868,1.1814,1.1512,1.0864,1.0813,1.0813,1.0813,1.0918,1.1116,1.1362,1.1538,1.19,1.2452,1.2688,1.2967,1.3257,1.3677,1.3774,0.5441,0.0,0.0,0.658,0.6931,0.7285,0.7892,0.8173,0.8492,0.9131,1.0006,1.0858,1.1524,1.255,1.3779,1.52,1.5996,1.6851,1.8057,1.8398,1.8932,1.9981,1.9989,2.023,2.1031,2.1102,2.0748,1.9937,1.9747,1.9682,1.9682,2.0341,2.0857,2.1171,2.1617,2.1365,2.0314,1.9991,1.9805,1.9805,1.9805,1.9805,1.9805,1.9805,1.9805,1.9805,1.9805,1.9805,1.9805,1.9805,1.9805,1.9805,1.9805,1.9805,1.9805,1.9805,1.9805,1.9805,1.9805,1.9805,1.9805,1.9805,1.9805,1.9805,1.9805,1.9441,1.8977,1.8977,1.8229,1.7382,1.7382,1.6948,1.6515,1.6515,1.6515,1.638,1.5952,1.5726,1.5359,1.4457,1.405,1.3642,1.3243,1.3017,1.2881,1.2881,1.2881,1.2881,1.2881,1.2881,1.2881,1.2881,1.2881,1.2666,1.2133,1.208,1.1882,1.1434,1.1379,1.1379,1.1379,1.167,1.1922,1.208,1.2452,1.2773,1.3052,1.3359,1.3564,1.3691,1.4116,1.4311,0.0,0.0,0.6637,0.6934,0.7231,0.7829,0.9059,0.8827,0.8816,1.0408,1.0033,0.9667,1.0333,1.1491,1.249,1.2938,1.4971,1.6484,1.6475,1.7136,1.8118,1.9462,1.9236,1.9317,0.0,2.034,2.0306,2.0272,1.9902,1.9682,1.9682,2.0341,2.1006,2.1657,2.1154,2.1116,2.1649,2.0421,1.9805,1.9805,1.9805,1.9805,1.9805,1.9805,1.9805,1.9805,1.9805,1.9805,1.9805,1.9805,1.9805,1.9805,1.9805,1.9805,1.9805,1.9805,1.9805,1.9805,1.9805,1.9805,1.9805,1.9805,1.9805,1.9805,1.9805,1.9441,1.8977,1.8977,1.8229,1.7382,1.7382,1.6948,1.6515,1.6515,1.6515,1.6472,1.6479,1.6002,1.5588,1.5537,1.4589,1.3768,1.3774,1.3286,1.2881,1.2881,1.2881,1.2881,1.2881,1.2881,1.2881,1.2881,1.2881,1.2881,1.2876,1.2876,1.2881,1.2832,1.2832,1.2832,1.2832,1.2187,1.2133,1.2827,1.2187,1.2378,1.3491,1.3501,1.3716,1.4068,1.4561,1.4766,0.0,0.0,0.7335,0.7796,0.7996,0.8271,0.8864,0.8813,0.8786,0.9127,0.8976,0.8781,0.8864,0.9521,1.0474,1.1776,1.2955,1.42,1.5626,1.6402,1.7081,1.7923,1.8214,0.0,0.0,0.0,0.0,1.9909,1.9782,1.9877,2.0348,2.0558,2.1204,2.2323,2.1759,2.1503,2.1697,2.0868,2.0251,1.9805,1.9805,1.9805,1.9805,1.9805,1.9805,1.9805,1.9805,1.9805,1.9805,1.9805,1.9805,1.9805,1.9805,1.9805,1.9805,1.9805,1.9805,1.9805,1.9805,1.9805,1.9805,1.9805,1.9805,1.9805,1.9805,1.9679,1.9541,1.9541,1.8763,1.7928,1.7928,1.7231,1.6515,1.6515,1.6515,1.6515,1.6515,1.6337,1.6095,1.5682,1.527,1.4727,1.3956,1.3642,1.3372,1.2973,1.2881,1.2881,1.2881,1.2881,1.2881,1.2881,1.2881,1.2881,1.2881,1.2881,1.2881,1.2881,1.2881,1.2881,1.2881,1.2666,1.2662,1.2881,1.2936,1.3142,1.3506,1.4077,1.4429,1.4575,1.5005,1.52,0.0,0.7632,0.7729,0.8068,0.837,0.8471,0.8115,0.8187,0.8194,0.771,0.7495,0.7311,0.7141,0.7711,0.8633,0.9983,1.1076,1.2438,1.4275,1.5054,1.5811,1.6812,1.7253,0.0,0.0,0.0,0.0,1.9125,1.9486,1.9796,2.0033,2.0487,2.1092,2.1975,2.1573,2.139,2.139,2.0782,2.0258,1.9805,1.9805,1.9805,1.9805,1.9805,1.9805,1.9805,1.9805,1.9805,1.9805,1.9805,1.9805,1.9805,1.9805,1.9805,1.9805,1.9805,1.9805,1.9805,1.9805,1.9805,1.9805,1.9805,1.9805,1.9805,1.9805,1.9805,1.9805,1.9805,1.9177,1.8499,1.8499,1.7664,1.6829,1.6829,1.6666,1.6515,1.6515,1.6515,1.638,1.6008,1.577,1.527,1.4277,1.3779,1.3329,1.2973,1.2881,1.2881,1.2881,1.2881,1.2881,1.2881,1.2881,1.2881,1.2881,1.2881,1.2881,1.2881,1.2881,1.2881,1.2881,1.2881,1.2949,1.3101,1.3369,1.3657,1.3965,1.4517,1.4863,1.5015,1.5288,1.541,0.7746,0.7915,0.7912,0.776,0.8265,0.8421,0.695,0.7078,0.7227,0.6355,0.5792,0.5405,0.0,0.0,0.7111,0.7683,0.9475,1.1239,1.2503,1.3233,1.4288,0.0,0.0,0.0,0.0,0.0,0.0,1.7927,0.0,1.942,1.8936,1.9993,2.0625,2.069,2.0724,2.0726,2.0802,2.0156,1.9805,1.9805,1.9805,1.9805,1.9805,1.9805,1.9805,1.9805,1.9805,1.9805,1.9805,1.9805,1.9805,1.9805,1.9805,1.9805,1.9805,1.9805,1.9805,1.9805,1.9805,1.9805,1.9805,1.9805,1.9805,1.9805,1.9805,1.9805,1.9805,1.9805,1.9428,1.8977,1.8977,1.821,1.7382,1.7382,1.6942,1.6515,1.6515,1.6515,1.6515,1.6515,1.6002,1.541,1.4789,1.37,1.2973,1.2973,1.2925,1.2881,1.2881,1.2881,1.2881,1.2881,1.2881,1.2881,1.2881,1.2881,1.2881,1.2881,1.2881,1.2891,1.291,1.2915,1.311,1.353,1.356,1.397,1.4785,1.481,1.5024,1.541,1.541,1.541,0.816,0.8417,0.8407,0.7853,0.8265,0.8373,0.6796,0.6921,0.6999,0.578,0.5373,0.4958,0.0,0.0,0.0,0.6945,0.8375,0.0,1.115,1.2322,0.0,0.0,0.0,1.5746,1.5596,1.6725,0.0,0.0,1.7403,1.8662,1.9032,1.8919,1.9464,2.0801,1.995,1.9903,2.0795,2.0156,1.9805,1.9805,1.9805,1.9805,1.9805,1.9805,1.9805,1.9805,1.9805,1.9805,1.9805,1.9805,1.9805,1.9805,1.9805,1.9805,1.9805,1.9805,1.9805,1.9805,1.9805,1.9805,1.9805,1.9805,1.9805,1.9805,1.9805,1.9805,1.9805,1.9805,1.9428,1.8977,1.8977,1.821,1.7382,1.7382,1.6942,1.6515,1.6515,1.6515,1.6515,1.6515,1.6002,1.541,1.4789,1.4055,1.3552,1.3552,1.32,1.2881,1.2881,1.2881,1.2881,1.2881,1.2881,1.2881,1.2881,1.2881,1.2881,1.2881,1.2881,1.3022,1.3335,1.335,1.355,1.3917,1.4292,1.4565,1.4785,1.5098,1.5308,1.541,1.541,1.541,0.8379,0.8204,0.7723,0.7343,0.7476,0.7295,0.5637,0.5666,0.5688,0.4411,0.4042,0.0,0.0,0.0,0.0,0.0,0.0,0.0,0.9994,1.0951,1.1787,0.0,1.3752,0.0,1.4703,1.5576,1.5746,0.0,1.6825,1.8037,1.7938,1.8332,1.9023,2.0028,1.9581,1.9705,2.0346,2.0003,1.9805,1.9805,1.9805,1.9805,1.9805,1.9805,1.9805,1.9805,0.0,1.9805,1.9805,1.9805,1.9805,1.9805,1.9805,1.9805,1.9805,1.9805,1.9805,1.9805,1.9805,1.9805,1.9805,1.9805,1.9805,1.9805,1.9805,1.9805,1.9805,1.9805,1.9591,1.9365,1.9365,1.8737,1.8103,1.8103,1.7482,1.6898,1.6898,1.6697,1.6515,1.6515,1.6002,1.5493,1.5147,1.4601,1.419,1.419,1.3925,1.3705,1.3705,1.3248,1.2881,1.2881,1.2881,1.2881,1.2881,1.2881,1.2881,1.2881,1.3052,1.3262,1.3496,1.3686,1.3984,1.4414,1.4663,1.4878,1.5059,1.5298,1.541,1.541,1.541,1.541,0.8255,0.756,0.6586,0.6477,0.6418,0.5925,0.4164,0.4089,0.4035,0.2883,0.0,0.0,0.2176,0.0,0.4138,0.4855,0.0,0.7759,0.8983,0.947,1.041,1.2171,1.2624,1.3153,1.407,1.4503,1.4606,1.4313,1.6384,1.7259,1.6342,1.7734,1.8637,1.8747,1.942,1.9805,1.9805,1.9805,1.9805,1.9805,1.9805,1.9805,1.9805,1.9805,1.9805,1.9805,1.9805,0.0,1.9805,1.9805,1.9805,1.9805,1.9805,1.9805,1.9805,1.9805,1.9805,1.9805,1.9805,1.9805,1.9805,1.9805,1.9805,1.9805,1.9805,1.9805,1.9805,1.9805,1.9805,1.9805,1.9805,1.9365,1.887,1.887,1.8072,1.7269,1.7269,1.6873,1.6515,1.6515,1.6095,1.5676,1.5626,1.5192,1.4835,1.4835,1.4744,1.4749,1.4795,1.3747,1.3017,1.3017,1.2973,1.2881,1.2881,1.2881,1.2881,1.2881,1.3276,1.353,1.3589,1.3994,1.4424,1.4858,1.4868,1.5049,1.541,1.541,1.541,1.541,1.541,1.541,0.6956,0.6804,0.6477,0.5817,0.6041,0.5939,0.4075,0.3954,0.0,0.0,0.0,0.2117,0.1912,0.2182,0.0,0.4014,0.0,0.0,0.0,0.0,0.9661,0.0,0.0,0.0,0.0,0.0,0.0,0.0,0.0,1.5437,1.5708,1.6021,1.6627,1.7587,1.902,1.9805,1.9805,1.9805,1.9805,1.9805,1.9805,1.9805,1.9805,1.9805,1.9805,1.9805,1.9805,0.0,1.9805,1.9805,1.9805,1.9805,1.9805,1.9805,1.9805,1.9805,1.9805,1.9805,1.9805,1.9805,1.9805,1.9805,1.9805,1.9805,1.9805,1.9805,1.9805,1.9805,1.9805,1.9805,1.9805,1.9076,1.8348,1.8348,1.7488,1.6666,1.6666,1.6584,1.6515,1.6515,1.6429,1.6194,1.5676,1.5499,1.5448,1.5448,1.5011,1.488,1.5365,1.4411,1.3637,1.3637,1.3195,1.2881,1.2881,1.2881,1.2881,1.2881,1.3276,1.3662,1.3956,1.4443,1.4873,1.5293,1.5303,1.5337,1.541,1.541,1.541,1.541,1.541,1.541,0.6504,0.6043,0.5496,0.5487,0.5333,0.4814,0.363,0.0,0.0,0.0,0.0,0.1806,0.1414,0.0,0.0,0.0,0.0,0.0,0.0,0.0,0.0,0.0,0.0,0.0,0.0,0.0,0.0,0.0,0.0,1.3971,1.4635,1.5211,1.5939,1.6814,1.7918,1.862,1.8902,1.9239,1.9535,1.9805,1.9805,1.9805,1.9805,1.9805,1.9805,1.9805,1.9805,0.0,1.9805,1.9805,1.9805,1.9805,1.9805,1.9805,1.9805,1.9805,1.9805,1.9805,1.9805,1.9805,1.9805,1.9805,1.9805,1.9805,1.9805,1.9805,1.9805,1.9805,1.9805,1.9805,1.9805,1.9221,1.87,1.897,1.8198,1.7231,1.6647,1.6515,1.6515,1.6515,1.6515,1.6423,1.6139,1.6051,1.6051,1.6051,1.5832,1.5744,1.6008,1.5276,1.4503,1.3862,1.3552,1.3377,1.3377,1.306,1.3017,1.3329,1.367,1.3926,1.4073,1.4766,1.5205,1.5405,1.541,1.541,1.541,1.541,1.541,1.541,1.541,1.541,0.5936,0.5336,0.4625,0.5164,0.4649,0.3863,0.3345,0.3115,0.0,0.0,0.0,0.1616,0.1005,0.0,0.0,0.0,0.0,0.0,0.0,0.0,0.0,0.0,0.0,0.0,0.0,0.0,0.0,0.0,0.0,0.0,1.3774,1.4878,1.5671,1.602,1.6729,1.7431,1.8106,1.833,1.8908,1.9805,1.941,1.9422,1.9805,1.9805,1.9805,1.9805,1.9805,0.0,0.0,1.9805,1.9805,1.9805,1.9805,1.9805,1.9805,1.9805,1.9805,1.9805,1.9805,1.9805,1.9805,1.9805,1.9805,1.9805,1.9805,1.9805,1.9805,1.9805,1.9805,1.9805,1.9805,1.9334,1.8888,1.9058,1.8455,1.7601,1.671,1.6515,1.6515,1.6515,1.6515,1.6515,1.6515,1.6515,1.6515,1.6515,1.6515,1.6515,1.6515,1.6101,1.5365,1.4318,1.4045,1.4003,1.4003,1.342,1.3286,1.3774,1.4002,1.4082,1.4082,1.4961,1.541,1.541,1.541,1.541,1.541,1.541,1.541,1.541,1.541,1.541,0.464,0.4572,0.4519,0.4572,0.4292,0.3914,0.3607,0.0,0.0,0.0,0.1412,0.1616,0.1005,0.0,0.0,0.0,0.0,0.0,0.0,0.0,0.0,0.0,0.0,0.0,0.0,0.0,0.0,0.0,0.0,0.0,1.3721,1.4878,1.5261,1.4766,1.5903,1.6987,1.8112,1.7146,1.7707,1.9792,1.8089,1.8159,1.9805,1.9805,1.9805,1.9805,1.9805,0.0,0.0,1.9805,1.9805,1.9805,1.9805,1.9805,1.9805,1.9805,1.9805,1.9805,1.9805,1.9805,1.9805,1.9805,1.9805,1.9805,1.9805,1.9805,1.9805,1.9805,1.9805,1.9805,1.9805,1.9045,1.8034,1.7049,1.6748,1.6647,1.654,1.6515,1.6515,1.6515,1.6515,1.6515,1.6515,1.6515,1.6515,1.6515,1.6515,1.6515,1.6515,1.6466,1.6145,1.5493,1.496,1.4612,1.4612,1.4055,1.3732,1.3821,1.4002,1.4082,1.4082,1.4961,1.541,1.541,1.541,1.541,1.541,1.541,1.541,1.541,1.541,1.541,0.4435,0.4508,0.4519,0.4525,0.4304,0.4074,0.3874,0.0,0.0,0.1704,0.1053,0.065,0.0403,0.016,0.0,0.0,0.0,0.0,0.0,0.0,0.0,0.0,0.0,0.0,0.0,0.0,0.0,0.0,0.0,0.0,1.1949,1.2788,1.3347,1.3549,1.4386,1.5235,1.6009,1.5879,1.6629,1.8101,1.7375,1.7746,1.915,1.915,1.9371,1.9805,1.9805,0.0,0.0,1.9805,1.9805,1.9805,1.9805,1.9805,1.9805,1.9805,1.9805,1.9805,1.9805,1.9805,1.9805,1.9805,1.9805,1.9805,1.9805,1.9805,1.9805,1.9805,1.9805,1.9805,1.9805,1.9252,1.8329,1.6867,1.6785,1.6942,1.6597,1.6515,1.6515,1.6515,1.6515,1.6515,1.6515,1.6515,1.6515,1.6515,1.6515,1.6515,1.6515,1.6515,1.6423,1.6188,1.5594,1.5231,1.5231,1.4692,1.4329,1.4329,1.4555,1.4503,1.4136,1.4961,1.541,1.541,1.541,1.541,1.541,1.541,1.541,1.541,1.541,1.541,0.4302,0.45,0.4509,0.4518,0.4076,0.3715,0.0,0.0,0.3161,0.1579,0.0583,-0.0,-0.0,-0.0,-0.0,0.0,0.0,0.0,0.0,0.0,0.0,0.0,0.0,0.0,0.0,0.0,0.0,0.0,0.0,0.0,1.0466,1.0965,1.1629,1.2559,1.3223,1.386,1.4599,1.4672,1.5428,1.6813,1.6247,1.6752,1.8225,1.8225,1.8677,1.9475,1.9695,0.0,0.0,1.9805,1.9805,1.9805,1.9805,1.9805,1.9805,1.9805,1.9805,1.9805,1.9805,1.9805,1.9805,1.9805,1.9805,1.9805,1.9805,1.9805,1.9805,1.9805,1.9805,1.9729,1.9415,1.9058,1.8449,1.7093,1.6948,1.7061,1.6823,1.6641,1.6515,1.6515,1.6515,1.6515,1.6515,1.6515,1.6515,1.6515,1.6515,1.6515,1.6515,1.6515,1.6515,1.6515,1.6139,1.5864,1.5864,1.532,1.4943,1.4905,1.5041,1.4881,1.4321,1.5024,1.541,1.541,1.541,1.541,1.541,1.541,1.541,1.541,1.541,1.541,0.4033,0.4499,0.4476,0.4476,0.3341,0.2602,0.0,0.4033,0.2907,0.052,-0.0,-0.0,-0.0,-0.0,-0.0,-0.0,0.0,0.0,0.0,0.0,0.0,0.0,0.0,0.0,0.0,0.0,0.0,0.0,0.0,0.0,0.9762,0.9814,1.0415,1.1765,1.2554,1.3454,1.4604,1.3469,1.4086,1.64,1.447,1.4775,1.7027,1.7027,1.7658,1.8768,0.0,0.0,0.0,1.9805,1.9805,1.9805,1.9805,1.9805,1.9805,1.9805,1.9805,1.9805,1.9805,1.9805,1.9805,1.9805,1.9805,1.9805,1.9805,1.9805,1.9805,1.9805,1.9805,1.956,1.8499,1.8216,1.8072,1.7507,1.6942,1.6679,1.725,1.6923,1.6515,1.6515,1.6515,1.6515,1.6515,1.6515,1.6515,1.6515,1.6515,1.6515,1.6515,1.6515,1.6515,1.6515,1.6472,1.6479,1.6479,1.5958,1.5491,1.5328,1.5161,1.5024,1.4816,1.5186,1.541,1.541,1.541,1.541,1.541,1.541,1.541,1.541,1.541,1.541,0.1263,0.2151,0.3199,0.4221,0.4134,0.3362,0.1781,0.1292,0.0917,0.0164,-0.0,-0.0,-0.0,-0.0,-0.0,-0.0,0.0,0.0,0.0,0.0,0.0,0.0,0.0,0.0,0.0,0.0,0.0,0.0,0.0,0.0,0.8349,0.8803,0.9872,1.1765,1.2026,1.2548,1.3449,1.3086,1.3402,1.4409,1.4061,1.458,1.5793,1.6407,1.6989,0.0,0.0,0.0,0.0,1.9585,1.9805,1.9805,1.9805,1.9805,1.9805,1.9805,1.9579,1.9271,1.9271,1.902,1.8775,1.9152,1.9271,1.9271,1.9271,1.9522,1.9805,1.9805,1.9805,1.9554,1.848,1.8486,1.8436,1.7105,1.6948,1.7049,1.6835,1.6647,1.6515,1.6515,1.6515,1.6515,1.6515,1.6515,1.6515,1.6515,1.6515,1.6515,1.6515,1.6515,1.6515,1.6515,1.6515,1.6679,1.7074,1.6959,1.657,1.5957,1.6604,1.637,1.4887,1.5694,1.5921,1.541,1.541,1.541,1.541,1.541,1.541,1.541,1.541,1.541,0.0,0.0654,0.1616,0.2553,0.2802,0.232,0.0426,-0.0,-0.0,-0.0,-0.0,-0.0,-0.0,-0.0,-0.0,-0.0,0.0,0.0,0.0,0.0,0.0,0.0,0.0,0.0,0.0,0.0,0.0,0.0,0.0,0.0,0.7235,0.7966,0.9044,1.0578,1.1399,1.2026,1.2501,1.2769,1.3013,1.3276,1.3535,1.3989,1.4604,1.5388,1.5956,0.0,0.0,0.0,0.0,1.8356,1.8784,1.9179,1.9179,1.9287,1.951,1.951,1.9171,1.8719,1.8719,1.8493,1.8267,1.8606,1.8719,1.8756,1.8963,1.9252,1.9554,1.9748,1.9805,1.9554,1.848,1.8461,1.8398,1.7149,1.6948,1.7018,1.6873,1.6672,1.6515,1.6515,1.6515,1.6515,1.6515,1.6515,1.6515,1.6515,1.6515,1.6515,1.6515,1.6515,1.6515,1.6515,1.6515,1.6835,1.7626,1.7507,1.726,1.6869,1.7504,1.7294,1.5932,1.6274,1.626,1.5806,1.5522,1.541,1.541,1.541,1.541,1.541,1.541,1.541,0.0,-0.0,-0.0,-0.0,-0.0,-0.0,-0.0,-0.0,0.0,-0.0114,-0.0135,-0.0113,-0.0023,-0.0,-0.0,-0.0,0.0,0.0,0.0,0.0,0.0,0.0,0.0,0.0,0.0,0.0,0.0,0.0,0.0,0.0,0.6532,0.7235,0.7919,0.8633,1.0582,1.1665,1.1715,1.2452,1.2827,1.2827,1.2905,1.3115,1.3462,1.4243,1.4768,0.0,0.0,0.0,0.0,1.64,1.7022,1.7957,1.7957,1.8329,1.8815,1.8865,1.8521,1.8088,1.8088,1.8069,1.8097,1.8129,1.8147,1.8254,1.885,1.8977,1.9089,1.9654,1.9805,1.9572,1.8574,1.8267,1.8053,1.7463,1.6948,1.6729,1.7218,1.6898,1.6515,1.6515,1.6515,1.6515,1.6515,1.6515,1.6515,1.6515,1.6515,1.6515,1.6515,1.6515,1.6515,1.6515,1.6553,1.7005,1.8053,1.7714,1.7603,1.7873,1.7938,1.7781,1.7446,1.6816,1.6492,1.643,1.5753,1.541,1.541,1.541,1.541,1.541,1.541,1.541,-0.0,0.0,-0.0,-0.0,-0.0,-0.0,0.0,-0.0,0.0,0.0,0.0,-0.1094,-0.0183,-0.0,-0.0,0.0,0.0,0.0,0.0,0.0,0.0,0.0,0.0,0.0,0.0,0.0,0.0,0.0,0.0,0.5224,0.5706,0.6473,0.7176,0.7925,0.9433,1.0517,1.1011,1.1724,1.208,1.2084,1.2934,1.3247,1.3047,1.3841,1.4108,0.0,0.0,0.0,1.555,1.6137,1.6575,1.6823,1.6823,1.6879,1.7085,1.7525,1.7321,1.6797,1.6797,1.6882,1.6986,1.7432,1.7576,1.7758,1.8731,1.8977,1.9089,1.9654,1.9805,1.9742,1.9491,1.8819,1.7953,1.6961,1.7043,1.7237,1.681,1.6616,1.6515,1.6515,1.6515,1.6515,1.6515,1.6515,1.6515,1.6515,1.6515,1.6515,1.6515,1.6515,1.6515,1.6515,1.6911,1.7287,1.7557,1.7846,1.791,1.7662,1.8207,1.771,1.5963,1.6312,1.6203,1.5695,1.5468,1.541,1.541,1.541,1.541,1.541,1.541,1.541,-0.0,-0.0,-0.0,-0.0,-0.0,-0.0,-0.0,0.0,0.0,0.0,0.0,0.0,-0.0945,0.0,0.0,0.0,0.0,0.0,0.0,0.0,0.0,0.0,0.0,0.0,0.0,0.0,0.0,0.0,0.0,0.4679,0.5001,0.571,0.6418,0.7182,0.824,0.9336,1.0312,1.1015,1.1512,1.1814,1.241,1.2774,1.2895,1.3354,1.3433,0.0,0.0,0.0,1.4184,1.4589,1.5109,1.5549,1.5549,1.5747,1.6049,1.633,1.628,1.6004,1.5741,1.5837,1.6194,1.6785,1.6986,1.7143,1.8016,1.8323,1.8574,1.9535,1.9805,1.9805,1.9805,1.9371,1.853,1.6905,1.6817,1.6999,1.6603,1.6515,1.6515,1.6515,1.6515,1.6515,1.6515,1.6515,1.6515,1.6515,1.6515,1.6515,1.6515,1.6515,1.6515,1.6515,1.6798,1.7093,1.7356,1.7579,1.7829,1.8224,1.8537,1.8161,1.6952,1.6641,1.6145,1.541,1.541,1.541,1.541,1.541,1.541,1.541,1.541,1.541,-0.0,-0.0,-0.0,-0.0,-0.0,-0.0,-0.0,0.0,0.0,0.0,0.0,0.0,0.0,0.0,0.0,0.0,0.0,0.0,0.0,0.0,0.0,0.0,0.0,0.0,0.0,0.0,0.0,0.0,0.0,0.4517,0.4517,0.5109,0.5762,0.6421,0.7235,0.8299,0.9451,1.0261,1.0914,1.1512,1.1715,1.2133,1.272,1.2827,1.2881,1.2881,0.0,0.0,1.2881,1.2881,1.3464,1.4356,1.4356,1.465,1.5086,1.523,1.5284,1.5276,1.4835,1.5011,1.5543,1.6151,1.6423,1.6628,1.7231,1.7507,1.7915,1.9384,1.9805,1.9805,1.9805,1.9554,1.8832,1.6967,1.6515,1.6515,1.6515,1.6515,1.6515,1.6515,1.6515,1.6515,1.6515,1.6515,1.6515,1.6515,1.6515,1.6515,1.6515,1.6515,1.6515,1.6515,1.6597,1.681,1.7218,1.7242,1.7646,1.866,1.8504,1.8334,1.8221,1.7029,1.6036,1.541,1.541,1.541,1.541,1.541,1.541,1.541,1.541,1.541,-0.0,-0.0,-0.0,-0.0,-0.0,-0.0,0.0,0.0,0.0,0.0,0.0,0.0,0.0,0.0,0.0,0.0,0.0,0.0,0.0,0.0,0.0,0.0,0.0,0.0,0.0,0.0,0.0,0.0,0.0,0.4517,0.4517,0.5109,0.554,0.5651,0.7012,0.7827,0.8037,0.9287,1.0016,1.0115,1.1266,1.1868,1.1972,1.2613,1.2881,1.2881,0.0,1.2881,1.2881,1.2881,1.3012,1.3164,1.3164,1.3213,1.3349,1.3889,1.4062,1.4138,1.456,1.4744,1.4926,1.5549,1.6095,1.6647,1.7363,1.7595,1.7915,1.9384,1.9805,1.9805,1.9805,1.8417,1.6936,1.6597,1.6515,1.6515,1.6515,1.6515,1.6515,1.6515,1.6515,1.6515,1.6515,1.6515,1.6515,1.6515,1.6515,1.6515,1.6515,1.6515,1.6515,1.6515,1.6961,1.7087,1.6679,1.7363,1.7668,1.741,1.7022,1.659,1.5906,1.569,1.5526,1.541,1.541,1.541,1.541,1.541,1.541,1.541,1.541,1.541,-0.0,-0.0,-0.0,-0.0,-0.0,-0.0,0.0,0.0,0.0,0.0,0.0,0.0,0.0,0.0,0.0,0.0,0.0,0.0,0.0,0.0,0.0,0.0,0.0,0.0,0.0,0.0,0.0,0.0,0.0,0.0,0.4517,0.4787,0.5109,0.5485,0.614,0.6902,0.767,0.8352,0.903,0.9814,1.0415,1.1116,1.1814,1.1783,1.2157,1.2881,0.0,1.2554,1.2881,1.2881,1.2881,1.2881,1.2881,1.2881,1.2968,1.3595,1.3595,1.3467,1.4387,1.4468,1.4324,1.492,1.5505,1.6069,1.6275,1.6655,1.7162,1.784,1.8882,1.9522,1.8336,1.7275,1.6515,1.6515,1.6515,1.6515,1.6515,1.6515,1.6515,1.6515,1.6515,1.6515,1.6515,1.6515,1.6515,1.6515,1.6515,1.6515,1.6515,1.6515,1.638,1.6051,1.6278,1.6193,1.5585,1.6058,1.6486,1.678,1.6575,1.6151,1.541,1.541,1.541,1.541,1.541,1.541,1.541,1.541,1.541,1.541,1.541,1.541,-0.0,-0.0,-0.0,0.0,0.0,0.0,0.0,0.0,0.0,0.0,0.0,0.0,0.0,0.0,0.0,0.0,0.0,0.0,0.0,0.0,0.0,0.0,0.0,0.0,0.0,0.0,0.0,0.0,0.0,0.0,0.4522,0.4519,0.4734,0.5273,0.5431,0.6032,0.7176,0.7503,0.8352,0.9566,0.9714,1.0364,1.1312,1.0965,1.1384,1.2412,1.1976,1.2129,1.2666,1.2827,1.2881,1.2881,1.2881,1.2881,1.2978,1.342,1.3286,1.3017,1.3978,1.4055,1.3868,1.4329,1.492,1.541,1.5522,1.6026,1.6515,1.6515,1.7733,1.865,1.6955,1.6515,1.6515,1.6515,1.6515,1.6515,1.6515,1.6515,1.6515,1.6515,1.6515,1.6515,1.6515,1.6515,1.6515,1.6515,1.6515,1.6466,1.6287,1.6423,1.6194,1.5454,1.5499,1.5369,1.4846,1.4967,1.5418,1.6203,1.626,1.5979,1.541,1.541,1.541,1.541,1.541,1.541,1.541,1.541,1.541,1.541,1.541,1.541,-0.0,-0.0,-0.0,-0.0,0.0,0.0,0.0,0.0,0.0,0.0,0.0,0.0,0.0,0.0,0.0,0.0,0.0,0.0,0.0,0.0,0.0,0.0,0.0,0.0,0.0,0.0,0.0,0.0,0.0,0.0,0.4477,0.4522,0.4517,0.4572,0.5164,0.554,0.5649,0.7012,0.8099,0.8857,0.9514,0.9862,0.9965,1.0513,1.0868,1.0969,1.1566,1.1814,1.1918,1.2613,1.2881,1.2881,1.2881,1.2881,1.2934,1.2973,1.2925,1.2929,1.3022,1.3377,1.3821,1.3868,1.4283,1.4971,1.607,1.6466,1.6515,1.6515,1.6591,1.6716,1.6559,1.6515,1.6515,1.6515,1.6515,1.6515,1.6515,1.6515,1.6515,1.6515,1.6515,1.6515,1.6515,1.6515,1.6515,1.6515,1.6515,1.6287,1.5726,1.6145,1.6064,1.488,1.5276,1.5476,1.5109,1.5096,1.5203,1.5467,1.5468,1.5468,1.541,1.541,1.541,1.541,1.541,1.541,1.541,1.541,1.541,1.541,1.541,1.541,-0.0,0.1106,0.0,0.0,0.0,0.0,0.0,0.0,0.0,0.0,0.0,0.0,0.0,0.0,0.0,0.0,0.0,0.0,0.0,0.0,0.0,0.0,0.0,0.0,0.0,0.0,0.0,0.0,0.0,0.0,0.4468,0.4519,0.4517,0.4517,0.4734,0.5056,0.5485,0.6029,0.6686,0.7453,0.8626,0.9413,0.9814,0.961,1.0012,1.0813,1.0618,1.1015,1.1814,1.208,1.2505,1.2881,1.2881,1.2881,1.2881,1.2881,1.2881,1.2881,1.2881,1.306,1.3243,1.3243,1.3742,1.4335,1.4288,1.5293,1.6201,1.4703,1.4247,1.4617,1.6107,1.6515,1.6515,1.6515,1.6515,1.6515,1.6515,1.6515,1.6515,1.6515,1.6515,1.6515,1.6515,1.6515,1.6343,1.5844,1.6157,1.6287,1.5682,1.582,1.5738,1.5119,1.4387,1.3883,1.3726,1.4197,1.4716,1.5356,1.541,1.541,1.541,1.541,1.541,1.541,1.541,1.541,1.541,1.541,1.541,1.541,1.541,1.541,0.0864,0.1774,0.0,0.0,0.0,0.0,0.0,0.0,0.0,0.0,0.0,0.0,0.0,0.0,0.0,0.0,0.0,0.0,0.0,0.0,0.0,0.0,0.0,0.0,0.0,0.0,0.0,0.0,0.0,0.0,0.0,0.452,0.4517,0.4517,0.4517,0.4732,0.5164,0.5378,0.576,0.6256,0.7503,0.8464,0.9134,0.8682,0.9096,1.0163,0.9917,1.0316,1.1216,1.1616,1.2236,1.2881,1.2881,1.2881,1.2881,1.2881,1.2881,1.2881,1.2881,1.2881,1.2881,1.2881,1.3291,1.3605,1.306,1.4066,1.5022,1.3382,1.2881,1.3296,1.4926,1.5383,1.5567,1.6337,1.6515,1.6287,1.5517,1.597,1.6515,1.6515,1.6515,1.6515,1.6515,1.6515,1.6293,1.5756,1.5838,1.592,1.5914,1.5864,1.5694,1.5164,1.38,1.2988,1.3252,1.3804,1.4442,1.5356,1.541,1.541,1.541,1.541,1.541,1.541,1.541,1.541,1.541,1.541,1.541,1.541,1.541,1.541,0.2679,0.0,0.0,0.0,0.0,0.0,0.0,0.0,0.0,0.0,0.0,0.0,0.0,0.0,0.0,0.0,0.0,0.0,0.0,0.0,0.0,0.0,0.0,0.0,0.0,0.0,0.0,0.0,0.0,0.0,0.0,0.4473,0.4517,0.4517,0.4517,0.4517,0.4517,0.5164,0.5485,0.5485,0.6256,0.6966,0.7723,0.7723,0.8103,0.8857,0.9514,0.9814,0.9917,1.1266,1.2236,1.2881,1.2881,1.2881,1.2881,1.2881,1.2881,1.2881,1.2881,1.2881,1.2881,1.2881,1.2881,1.2881,1.2881,1.2881,1.2881,1.2881,1.2881,1.2881,1.2881,1.2881,1.352,1.5888,1.6472,1.5794,1.3435,1.4795,1.6472,1.6472,1.6472,1.6472,1.6472,1.6472,1.6472,1.6472,1.5478,1.5152,1.6337,1.6479,1.602,1.4795,1.361,1.3218,1.3995,1.4068,1.4432,1.5356,1.541,1.541,1.541,1.541,1.541,1.541,1.541,1.541,1.541,1.541,1.541,1.541,1.541,1.541,0.1846,0.0,0.0,0.0,0.0,0.0,0.0,0.0,0.0,0.0,0.0,0.0,0.0,0.0,0.0,0.0,0.0,0.0,0.0,0.0,0.0,0.0,0.0,0.0,0.0,0.0,0.0,0.0,0.0,0.0,0.0,0.4477,0.4525,0.4517,0.4517,0.4517,0.4517,0.4679,0.4787,0.4787,0.5007,0.6039,0.7723,0.7723,0.8103,0.8804,0.9008,0.9361,0.9865,1.0767,1.122,1.1484,1.1931,1.2133,1.2187,1.272,1.2881,1.2881,1.2881,1.2881,1.2881,1.2881,1.2881,1.2881,1.2881,1.2881,1.2881,1.2881,1.2881,1.2881,1.2881,1.2881,1.3065,1.3795,1.3978,1.3747,1.3065,1.3472,1.3978,1.3978,1.3978,1.3978,1.3978,1.3978,1.3978,1.3978,1.5113,1.5788,1.5293,1.597,1.57,1.3658,1.3113,1.2983,1.3232,1.3252,1.3867,1.5317,1.541,1.541,1.541,1.541,1.541,1.541,1.541,1.541,1.541,1.541,1.541,1.541,1.541,1.541,0.0,0.0,0.0,0.0,0.0,0.0,0.0,0.0,0.0,0.0,0.0,0.0,0.0,0.0,0.0,0.0,0.0,0.0,0.0,0.0,0.0,0.0,0.0,0.0,0.0,0.0,0.0,0.0,0.0,0.0,0.0,0.4195,0.4473,0.4517,0.4517,0.4517,0.4517,0.4517,0.4517,0.4517,0.4517,0.5332,0.6848,0.7125,0.767,0.8371,0.8695,0.9159,0.981,1.0265,1.0564,1.0864,1.1266,1.1412,1.1466,1.2192,1.2452,1.2452,1.2452,1.2662,1.2832,1.2466,1.2618,1.2881,1.2881,1.2881,1.2881,1.2881,1.2881,1.2881,1.2881,1.2881,1.2881,1.2881,1.2881,1.2881,1.2881,1.2881,1.2881,1.2881,1.2881,1.2881,1.2881,1.2881,1.2881,1.2881,1.416,1.4795,1.4066,1.4612,1.4525,1.307,1.2881,1.2881,1.2881,1.2881,1.3315,1.4341,1.5039,1.541,1.541,1.541,1.541,1.541,1.541,1.541,1.541,1.541,1.541,1.541,1.541,1.541,0.0,0.0,0.0,0.0,0.0,0.0,0.0,0.0,0.0,0.0,0.0,0.0,0.0,0.0,0.0,0.0,0.0,0.0,0.0,0.0,0.0,0.0,0.0,0.0,0.0,0.0,0.0,0.0,0.0,0.0,0.0,0.3577,0.4475,0.4519,0.4517,0.4517,0.4517,0.4517,0.4517,0.4517,0.4517,0.484,0.5433,0.6147,0.6964,0.7723,0.8484,0.9162,0.9714,0.9714,1.0068,1.0614,1.0665,1.0716,1.0813,1.1462,1.1715,1.1715,1.1715,1.2187,1.2618,1.1792,1.2157,1.2881,1.2881,1.2881,1.2881,1.2881,1.2881,1.2881,1.2881,1.2881,1.2881,1.2881,1.2881,1.2881,1.2881,1.2881,1.2881,1.2881,1.2881,1.2881,1.2881,1.2881,1.2881,1.2881,1.2881,1.2881,1.2881,1.2881,1.2881,1.2881,1.2881,1.2881,1.2881,1.2881,1.2944,1.3101,1.4561,1.541,1.541,1.541,1.541,1.541,1.541,1.541,1.541,1.541,1.541,1.541,1.541,1.541,0.0,0.0,0.0,0.0,0.0,0.0,0.0,0.0,0.0,0.0,0.0,0.0,0.0,0.0,0.0,0.0,0.0,0.0,0.0,0.0,0.0,0.0,0.0,0.0,0.0,0.0,0.0,0.0,0.0,0.0,0.0447,0.302,0.4489,0.4475,0.4522,0.4517,0.4517,0.4517,0.4517,0.4517,0.4517,0.4572,0.4734,0.5437,0.6468,0.7723,0.8484,0.8857,0.9008,0.9008,0.911,0.926,0.9817,1.0012,1.0115,1.0767,1.1015,1.1015,1.1015,1.1375,1.1796,1.1588,1.2157,1.2881,1.2881,1.2881,1.2881,1.2881,1.2881,1.2881,1.2881,1.2881,1.2881,1.2881,1.2881,1.2881,1.2881,1.2881,1.2881,1.2881,1.2881,1.2881,1.2881,1.2881,1.2881,1.2881,1.2881,1.2881,1.2881,1.2881,1.2881,1.2881,1.2881,1.2881,1.2881,1.2881,1.3452,1.4785,1.521,1.541,1.541,1.541,1.541,1.541,1.541,1.541,1.541,1.541,1.541,1.541,1.541,1.541,0.0,0.0,0.0,0.0,0.0,0.0,0.0,0.0,0.0,0.0,0.0,0.0,0.0,0.0,0.0,0.0,0.0,0.0,0.0,0.0,0.0,0.0,0.0,0.0,0.0,0.0,0.0,0.0,0.0,-0.0,-0.0,0.1508,0.3018,0.4479,0.4473,0.4522,0.4517,0.4517,0.4517,0.4517,0.4517,0.4517,0.4517,0.5218,0.6303,0.772,0.8103,0.848,0.8808,0.8808,0.8808,0.8857,0.9159,0.9312,0.9413,1.0064,1.0316,1.0316,1.0316,1.0821,1.1384,1.0478,1.1447,1.2881,1.2881,1.2881,1.2881,1.2881,1.2881,1.2881,1.2881,1.2881,1.2881,1.2881,1.2881,1.2881,1.2881,1.2881,1.2881,1.2881,1.2881,1.2881,1.2881,1.2881,1.2881,1.2881,1.2881,1.2881,1.2881,1.2881,1.2881,1.2881,1.2881,1.2881,1.2881,1.2881,1.3608,1.5303,1.541,1.541,1.541,1.541,1.541,1.541,1.541,1.541,1.541,1.541,1.541,1.541,1.541,1.541,0.0,0.0,0.0,0.0,0.0,0.0,0.0,0.0,0.0,0.0,0.0,0.0,0.0,0.0,0.0,0.0,0.0,0.0,0.0,0.0,0.0,0.0,0.0,0.0,0.0,0.0,0.0,0.0,0.0,-0.0,-0.0,0.0223,0.1506,0.4025,0.4363,0.4472,0.4517,0.4517,0.4517,0.4517,0.4517,0.4517,0.4517,0.5056,0.6032,0.734,0.745,0.794,0.859,0.859,0.8699,0.8808,0.8808,0.8808,0.8857,0.9413,0.9614,0.9614,0.9614,1.0222,1.0779,0.9263,1.0336,1.2166,1.2166,1.252,1.2881,1.2881,1.2573,1.2318,1.2779,1.2881,1.2881,1.2881,1.2881,1.2881,1.2881,1.2881,1.2881,1.2881,1.2881,1.2881,1.2881,1.2881,1.2881,1.2881,1.2881,1.2881,1.2881,1.2881,1.2881,1.2881,1.2881,1.2881,1.2881,1.3154,1.3916,1.5322,1.541,1.541,1.541,1.541,1.541,1.541,1.541,1.541,1.541,1.541,1.541,1.541,1.541,1.541,0.0,0.0,0.0,0.0,0.0,0.0,0.0,0.0,0.0,0.0,0.0,0.0,0.0,0.0,0.0,0.0,0.0,0.0,0.0,0.0,0.0,0.0,0.0,0.0,0.0,0.0,0.0,0.0,-0.0,-0.0,-0.0,0.1228,0.2064,0.2511,0.3792,0.4519,0.4517,0.4517,0.4517,0.4517,0.4517,0.4517,0.4517,0.457,0.5058,0.5814,0.6473,0.7184,0.783,0.783,0.8212,0.8808,0.8808,0.8808,0.8804,0.891,0.8959,0.8959,0.8959,0.9012,0.9113,0.8857,0.9061,0.9372,0.9372,1.0998,1.2881,1.2881,1.1196,0.9877,1.2269,1.2881,1.2881,1.2881,1.2881,1.2881,1.2881,1.2881,1.2881,1.2881,1.2881,1.2881,1.2881,1.2881,1.2881,1.2881,1.2881,1.2881,1.2881,1.2881,1.2881,1.2881,1.2881,1.2881,1.2881,1.4228,1.5171,1.54,1.541,1.541,1.541,1.541,1.541,1.541,1.541,1.541,1.541,1.541,1.541,1.541,1.541,1.541,0.0,0.0,0.0,0.0,0.0,0.0,0.0,0.0,0.0,0.0,0.0,0.0,0.0,0.0,0.0,0.0,0.0,0.0,0.0,0.0,0.0,0.0,0.0,0.0,0.0,0.0,0.0,0.0,-0.0,-0.0,-0.0,0.1904,0.3071,0.3227,0.3856,0.4207,0.4341,0.4343,0.4382,0.4517,0.4517,0.4517,0.4517,0.4517,0.484,0.5542,0.5817,0.6418,0.7128,0.7509,0.7886,0.8212,0.8643,0.8808,0.8808,0.8808,0.8808,0.8808,0.8808,0.8808,0.8808,0.8808,0.8808,0.8808,0.8808,0.9625,1.0588,1.0588,0.9725,0.9061,1.0285,1.1755,1.2881,1.2881,1.2881,1.2881,1.2881,1.2881,1.2881,1.2881,1.2881,1.2881,1.2881,1.2881,1.2881,1.2881,1.2881,1.2881,1.2881,1.2881,1.2881,1.2881,1.2881,1.2881,1.2881,1.4434,1.541,1.541,1.541,1.541,1.541,1.541,1.541,1.541,1.541,1.541,1.541,1.541,1.541,1.541,1.541,1.541,0.0,0.0,0.0,0.0,0.0,0.0,0.0,0.0,0.0,0.0,0.0,0.0,0.0,0.0,0.0,0.0,0.0,0.0,0.0,0.0,0.0,0.0,0.0,0.0,0.0,0.0,0.0,0.0,-0.0,-0.0,-0.0,0.2019,0.3392,0.3901,0.3938,0.3981,0.4137,0.4177,0.4319,0.4517,0.4517,0.4517,0.4517,0.4517,0.4787,0.5273,0.5273,0.5655,0.6367,0.6907,0.734,0.778,0.8318,0.8646,0.8808,0.8808,0.8808,0.8808,0.8808,0.8808,0.8808,0.8808,0.8808,0.8808,0.8808,0.8808,0.8808,0.8808,0.8808,0.8808,0.8808,1.0336,1.1859,1.1859,1.2372,1.2881,1.2881,1.2881,1.2881,1.2881,1.2881,1.2881,1.2881,1.2881,1.2881,1.2881,1.2881,1.2881,1.2881,1.2881,1.2881,1.2881,1.2881,1.2881,1.2881,1.4043,1.4951,1.5381,1.541,1.541,1.541,1.541,1.541,1.541,1.541,1.541,1.541,1.541,1.541,1.541,1.541,1.541,0.0,0.0,0.0,0.0,0.0,0.0,0.0,0.0,0.0,0.0,0.0,0.0,0.0,0.0,0.0,0.0,0.0,0.0,0.0,0.0,0.0,0.0,0.0,0.0,0.0,0.0,0.0,0.0,-0.0,-0.0,-0.0,0.1208,0.2417,0.3592,0.3878,0.4024,0.4033,0.4125,0.4319,0.4517,0.4517,0.4517,0.4517,0.4517,0.4517,0.457,0.457,0.4948,0.5542,0.5594,0.6414,0.7723,0.7723,0.8209,0.8808,0.8808,0.8808,0.8808,0.8808,0.8808,0.8808,0.8808,0.8808,0.8808,0.8808,0.8808,0.8808,0.8808,0.8808,0.8808,0.8808,0.891,0.9012,0.9012,1.0994,1.2881,1.2881,1.2881,1.2881,1.2881,1.2881,1.2881,1.2881,1.2881,1.2881,1.2881,1.2881,1.2881,1.2881,1.2881,1.2881,1.2881,1.2881,1.2881,1.2881,1.2964,1.3696,1.5308,1.541,1.541,1.541,1.541,1.541,1.541,1.541,1.541,1.541,1.541,1.541,1.541,1.541,1.541,0.0,0.0,0.0,0.0,0.0,0.0,0.0,0.0,0.0,0.0,0.0,0.0,0.0,0.0,0.0,0.0,0.0,0.0,0.0,0.0,0.0,0.0,0.0,0.0,0.0,0.0,0.0,0.0,0.0,0.0655,0.2205,0.1964,0.2334,0.3559,0.3695,0.378,0.3871,0.4024,0.4177,0.4324,0.4324,0.4373,0.4517,0.4517,0.4517,0.4517,0.4517,0.4625,0.4895,0.5324,0.6088,0.702,0.7348,0.8049,0.8808,0.8808,0.8808,0.8808,0.8808,0.8808,0.8808,0.8808,0.8808,0.8808,0.8808,0.8808,0.8808,0.8808,0.8808,0.8808,0.8808,0.8808,0.9267,1.0994,1.2166,1.2881,1.2881,1.2881,1.2881,1.2881,1.2881,1.2881,1.2881,1.2881,1.2881,1.2881,1.2881,1.2881,1.2881,1.2881,1.2881,1.2881,1.2881,1.2881,1.2881,1.2881,1.314,1.375,1.3789,1.4277,1.5366,1.541,1.541,1.541,1.541,1.541,1.541,1.541,1.541,1.541,1.541,1.541,0.0,0.0,0.0,0.0,0.0,0.0,0.0,0.0,0.0,0.0,0.0,0.0,0.0,0.0,0.0,0.0,0.0,0.0,0.0,0.0,0.0,0.0,0.0,0.0,0.0,0.0,0.0,0.0,0.0,0.0,0.3523,0.2827,0.2772,0.358,0.358,0.3649,0.379,0.3892,0.4019,0.4118,0.4118,0.4221,0.4316,0.4367,0.439,0.4392,0.4496,0.4517,0.4517,0.5003,0.5601,0.6258,0.6743,0.7667,0.8808,0.8808,0.8808,0.8808,0.8808,0.8808,0.8808,0.8808,0.8808,0.8808,0.8808,0.8808,0.8808,0.8808,0.8808,0.8808,0.8808,0.8808,0.9469,1.2264,1.2881,1.2881,1.2881,1.2881,1.2881,1.2881,1.2881,1.2881,1.2881,1.2881,1.2881,1.2881,1.2881,1.2881,1.2881,1.2881,1.2881,1.2881,1.2881,1.2881,1.2881,1.2881,1.2881,1.2881,1.2881,1.3389,1.4512,1.4561,1.4834,1.54,1.541,1.541,1.541,1.541,1.541,1.541,1.541,1.541,0.0,0.0,0.0,0.0,0.0,0.0,0.0,0.0,0.0,0.0,0.0,0.0,0.0,0.0,0.0,0.0,0.0,0.0,0.0,0.0,0.0,0.0,0.0,0.0,0.0,0.0,0.0,0.0,0.3562,0.3567,0.3612,0.3602,0.3592,0.358,0.358,0.3646,0.3785,0.3785,0.3861,0.4012,0.4012,0.4016,0.4024,0.4123,0.4192,0.4202,0.4395,0.4513,0.4517,0.4517,0.4895,0.554,0.5756,0.706,0.8808,0.8808,0.8808,0.8808,0.8808,0.8808,0.8808,0.8808,0.8808,0.8808,0.8808,0.8808,0.8808,0.8808,0.8808,0.8808,0.8808,0.8808,0.9472,1.2166,1.2779,1.2779,1.2881,1.2881,1.2881,1.2881,1.2881,1.2881,1.2881,1.2881,1.2881,1.2881,1.2881,1.2881,1.2881,1.2881,1.2881,1.2881,1.2881,1.2881,1.2881,1.2881,1.2881,1.2881,1.2881,1.2881,1.2881,1.2881,1.3657,1.5303,1.5386,1.541,1.541,1.541,1.541,1.541,1.541,1.541,0.1325,0.0,0.0,0.0,0.0,0.0,0.0,0.0,0.0,0.0,0.0,0.0,0.0,0.0,0.0,0.0,0.0,0.0,0.0,0.0,0.0,0.0,0.0,0.0,0.0,0.0,0.0,0.0,0.304,0.2997,0.359,0.3587,0.3583,0.358,0.358,0.36,0.3637,0.3637,0.3712,0.3855,0.3855,0.3912,0.4021,0.4013,0.4092,0.4197,0.4237,0.4367,0.4517,0.4517,0.4895,0.5485,0.5058,0.6468,0.8808,0.8808,0.8808,0.8808,0.8808,0.8808,0.8808,0.8808,0.8808,0.8808,0.8808,0.8808,0.8808,0.8808,0.8808,0.8808,0.8808,0.8808,0.9012,0.9777,0.9928,1.0486,1.2471,1.2881,1.2881,1.2881,1.2881,1.2881,1.2881,1.2881,1.2881,1.2881,1.2881,1.2881,1.2881,1.2881,1.2881,1.2881,1.2881,1.2881,1.2881,1.2881,1.2881,1.2881,1.2881,1.2881,1.2881,1.2881,1.3101,1.3569,1.4785,1.541,1.541,1.541,1.541,1.541,1.541,1.541,0.0,0.0,0.0,0.0,0.0,0.0,0.0,0.0,0.0,0.0,0.0,0.0,0.0,0.0,0.0,0.0,0.0,0.0,0.0,0.0,0.0,0.0,0.0,0.0,0.0,0.339,0.3434,0.3481,0.3103,0.3114,0.3576,0.358,0.358,0.358,0.358,0.358,0.358,0.358,0.3622,0.3704,0.3704,0.3751,0.3839,0.3897,0.3972,0.4011,0.4075,0.4236,0.4373,0.4373,0.4676,0.5058,0.4679,0.5764,0.7658,0.8046,0.8484,0.8808,0.8808,0.8808,0.8808,0.8808,0.8808,0.8808,0.8808,0.8808,0.8808,0.8808,0.8808,0.8808,0.8808,0.8808,0.8808,0.8808,0.8808,0.9573,1.2318,1.2881,1.2881,1.2881,1.2881,1.2881,1.2881,1.2881,1.2881,1.2881,1.2881,1.2881,1.2881,1.2881,1.2881,1.2881,1.2881,1.2881,1.2881,1.2881,1.2881,1.2881,1.2881,1.2881,1.2881,1.2881,1.2881,1.2881,1.3853,1.4702,1.541,1.541,1.541,1.541,1.541,1.541,0.0,0.0,0.0,0.0,0.0,0.0,0.196,0.1998,0.0,0.0,0.0,0.0,0.0,0.0,0.0,0.0,0.0,0.0,0.0,0.0,0.0,0.0,0.0,0.0,0.3082,0.3082,0.3164,0.3255,0.3431,0.3526,0.3566,0.3544,0.3556,0.3554,0.3571,0.358,0.358,0.358,0.358,0.358,0.358,0.358,0.3583,0.371,0.3777,0.3799,0.3936,0.4031,0.4172,0.4172,0.4317,0.4517,0.4517,0.5113,0.6086,0.6964,0.7943,0.8808,0.8808,0.8808,0.8808,0.8808,0.8808,0.8808,0.8808,0.8808,0.8808,0.8808,0.8808,0.8808,0.8808,0.8808,0.8808,0.8808,0.8808,0.9469,1.1914,1.2676,1.2881,1.2881,1.2881,1.2881,1.2881,1.2881,1.2881,1.2881,1.2881,1.2881,1.2881,1.2881,1.2881,1.2881,1.2881,1.2881,1.2881,1.2881,1.2881,1.2881,1.2881,1.2881,1.2881,1.2881,1.2881,1.2881,1.2881,1.3623,1.5127,1.5317,1.541,1.541,1.541,1.541,0.0,0.0,0.0,0.0,0.0,0.0,0.0,0.1921,0.0,0.0,0.0,0.0,0.0,0.0,0.0,0.0,0.0,0.0,0.0,0.0,0.0,0.0,0.0,0.0,0.3082,0.3082,0.3122,0.3125,0.3193,0.3181,0.3208,0.337,0.3395,0.3351,0.3514,0.358,0.358,0.358,0.358,0.358,0.358,0.358,0.3581,0.3609,0.3683,0.3793,0.3822,0.3922,0.4063,0.4063,0.4221,0.4517,0.4517,0.5279,0.6475,0.6696,0.7613,0.8808,0.8808,0.8808,0.8808,0.8808,0.8808,0.8808,0.8808,0.8808,0.8808,0.8808,0.8808,0.8808,0.8808,0.8808,0.8808,0.8808,0.8808,0.8959,0.9469,1.1351,1.2881,1.2881,1.2881,1.2881,1.2881,1.2881,1.2881,1.2881,1.2881,1.2881,1.2881,1.2881,1.2881,1.2881,1.2881,1.2881,1.2881,1.2881,1.2881,1.2881,1.2881,1.2881,1.2881,1.2881,1.2881,1.2881,1.2881,1.3042,1.3374,1.4746,1.541,1.541,1.541,1.541,0.0,0.0,0.0,0.1915,0.0,0.0,0.0,0.0,0.0,0.0,0.0,0.0,0.0,0.0,0.0,0.0,0.0,0.0,0.0,0.0,0.0,0.0,0.0,0.0,0.29,0.29,0.2932,0.301,0.3015,0.3046,0.3078,0.3193,0.3236,0.3194,0.3312,0.3386,0.3464,0.3464,0.3503,0.358,0.358,0.358,0.358,0.358,0.3619,0.3685,0.3685,0.377,0.3905,0.3905,0.4038,0.425,0.4326,0.5204,0.6486,0.6599,0.7509,0.8808,0.8808,0.8808,0.8808,0.8808,0.8808,0.8808,0.8808,0.8808,0.8808,0.8808,0.8808,0.8808,0.8808,0.8808,0.8808,0.8808,0.8808,0.8808,0.8808,0.9877,1.125,1.2622,1.2881,1.2881,1.2881,1.2881,1.2881,1.2881,1.2881,1.2881,1.2881,1.2881,1.2881,1.2881,1.2881,1.2881,1.2881,1.2881,1.2881,1.2881,1.2881,1.2881,1.2881,1.2881,1.2881,1.2881,1.2881,1.2881,1.2881,1.373,1.415,1.415,1.415,1.415,0.0,0.0,0.0,0.0,0.0,0.1945,0.0,0.0,0.0,0.0,0.0,0.0,0.0,0.0,0.0,0.0,0.0,0.0,0.0,0.0,0.0,0.0,0.0,0.0,0.0,0.267,0.2733,0.2852,0.2837,0.2885,0.3027,0.3064,0.308,0.308,0.3068,0.314,0.3262,0.3293,0.3368,0.3536,0.3566,0.358,0.358,0.358,0.358,0.358,0.358,0.3646,0.3751,0.3751,0.3822,0.3956,0.4113,0.5122,0.6434,0.6559,0.7509,0.8808,0.8808,0.8808,0.8808,0.8808,0.8808,0.8808,0.8808,0.8808,0.8808,0.8808,0.8808,0.8808,0.8808,0.8808,0.8808,0.8808,0.8808,0.8808,0.8808,0.8808,0.9621,1.2372,1.2881,1.2881,1.2881,1.2881,1.2881,1.2881,1.2881,1.2881,1.2881,1.2881,1.2881,1.2881,1.2881,1.2881,1.2881,1.2881,1.2881,1.2881,1.2881,1.2881,1.2881,1.2881,1.2881,1.2881,1.2881,1.2881,1.2881,1.2881,1.2881,1.2881,1.2881,1.2881,0.0,0.0,0.0,0.0,0.2221,0.0,0.0,0.0,0.0,0.0,0.0,0.0,0.0,0.0,0.0,0.0,0.0,0.0,0.0,0.0,0.0,0.0,0.0,0.0,0.0,0.251,0.2573,0.2728,0.2613,0.2603,0.2723,0.2861,0.2934,0.2934,0.3056,0.309,0.3108,0.3239,0.3316,0.3336,0.3514,0.358,0.358,0.358,0.358,0.358,0.358,0.3588,0.3605,0.3605,0.3614,0.3671,0.4036,0.5122,0.6434,0.6559,0.7509,0.8808,0.8808,0.8808,0.8808,0.8808,0.8808,0.8808,0.8808,0.8808,0.8808,0.8808,0.8808,0.8808,0.8808,0.8808,0.8808,0.8808,0.8808,0.8808,0.8808,0.8808,0.9621,1.2372,1.2881,1.2881,1.2881,1.2881,1.2881,1.2881,1.2881,1.2881,1.2881,1.2881,1.2881,1.2881,1.2881,1.2881,1.2881,1.2881,1.2881,1.2881,1.2881,1.2881,1.2881,1.2881,1.2881,1.2881,1.2881,1.2881,1.2881,1.2881,1.2881,1.2881,1.2881,1.2881,0.0,0.0,0.0,0.0,0.0,0.0,0.1939,0.0,0.1918,0.0,0.0,0.0,0.0,0.0,0.0,0.0,0.0,0.0,0.0,0.0,0.0,0.0,0.0,0.0,0.0,0.0,0.0,0.0,0.2472,0.2512,0.2577,0.2726,0.2778,0.2778,0.2834,0.2908,0.2996,0.3025,0.314,0.3308,0.3373,0.3493,0.358,0.358,0.358,0.358,0.358,0.358,0.358,0.358,0.358,0.3607,0.3877,0.4806,0.6054,0.6365,0.7393,0.8581,0.8751,0.8808,0.8808,0.8808,0.8808,0.8808,0.8808,0.8808,0.8808,0.8808,0.8808,0.8808,0.8808,0.8808,0.8808,0.8808,0.8808,0.9215,1.0842,1.12,1.1506,1.2676,1.2881,1.2881,1.2881,1.2881,1.2881,1.2881,1.2881,1.2881,1.2881,1.2881,1.2881,1.2881,1.2881,1.2881,1.2881,1.2881,1.2881,1.2881,1.2881,1.2881,1.2881,1.2881,1.2881,1.2881,1.2881,1.2881,1.2881,1.2881,1.2881,1.2881,1.2881,1.2881,0.2388,0.0,0.0,0.0,0.0,0.0,0.0,0.0,0.0,0.0,0.0,0.0,0.0,0.0,0.0,0.0,0.0,0.0,0.0,0.0,0.0,0.0,0.0,0.0,0.0,0.0,0.0,0.0,0.0,0.2397,0.2509,0.2589,0.267,0.2712,0.2714,0.2734,0.2846,0.2888,0.3017,0.3189,0.3269,0.3365,0.3517,0.3561,0.358,0.358,0.358,0.358,0.358,0.358,0.358,0.3634,0.3871,0.4637,0.5641,0.6098,0.7173,0.8404,0.8617,0.8741,0.8808,0.8808,0.8808,0.8808,0.8808,0.8808,0.8808,0.8808,0.8808,0.8808,0.8808,0.8808,0.8808,0.8808,0.8808,0.9573,1.2318,1.2881,1.2881,1.2881,1.2881,1.2881,1.2881,1.2881,1.2881,1.2881,1.2881,1.2881,1.2881,1.2881,1.2881,1.2881,1.2881,1.2881,1.2881,1.2881,1.2881,1.2881,1.2881,1.2881,1.2881,1.2881,1.2881,1.2881,1.2881,1.2881,1.2881,1.2881,1.2881,1.2881,1.2881,1.2881,0.0,0.0,0.0,0.2283,0.0,0.0,0.0,0.0,0.148,0.0,0.0,0.0,0.0,0.0,0.0,0.0,0.0,0.0,0.0,0.0,0.0,0.0,0.0,0.0,0.0,0.0,0.0,0.0,0.2078,0.0,0.2497,0.2518,0.256,0.2709,0.2714,0.2716,0.2721,0.2835,0.2915,0.2927,0.3172,0.3309,0.3319,0.3512,0.358,0.358,0.358,0.358,0.358,0.358,0.358,0.3667,0.4182,0.4746,0.5368,0.5821,0.7023,0.8424,0.8387,0.8574,0.8808,0.8808,0.8808,0.8808,0.8808,0.8808,0.8808,0.8808,0.8808,0.8808,0.8808,0.8808,0.8808,0.8808,0.8808,0.9573,1.2318,1.2881,1.2881,1.2881,1.2881,1.2881,1.2881,1.2881,1.2881,1.2881,1.2881,1.2881,1.2881,1.2881,1.2881,1.2881,1.2881,1.2881,1.2881,1.2881,1.2881,1.2881,1.2881,1.2881,1.2881,1.2881,1.2881,1.2881,1.2881,1.2881,1.2881,1.2881,1.2881,1.2881,1.2881,1.2881,0.0,0.0,0.2676,0.2566,0.0,0.0,0.0,0.0,0.0,0.0,0.0,0.0,0.0,0.0,0.0,0.0,0.0,0.0,0.0,0.0,0.0,0.0,0.0,0.0,0.0,0.0,0.0,0.0,0.1982,0.0,0.2155,0.2376,0.2508,0.256,0.2661,0.2714,0.2714,0.2732,0.2808,0.2912,0.301,0.3068,0.3164,0.3314,0.3385,0.339,0.3536,0.358,0.358,0.358,0.358,0.3667,0.4178,0.4781,0.5384,0.6148,0.6981,0.7906,0.8454,0.8724,0.8808,0.8808,0.8808,0.8808,0.8808,0.8808,0.8808,0.8808,0.8808,0.8808,0.8808,0.8808,0.8808,0.8808,0.8808,0.9061,0.998,1.161,1.2881,1.2881,1.2881,1.2881,1.2881,1.2881,1.2881,1.2881,1.2881,1.2881,1.2881,1.2881,1.2881,1.2881,1.2881,1.2881,1.2881,1.2881,1.2881,1.2881,1.2881,1.2881,1.2881,1.2881,1.2881,1.2881,1.2881,1.2881,1.2881,1.2881,1.2881,1.2881,1.2881,1.2881,0.2695,0.2698,0.0,0.2284,0.2156,0.0,0.2013,0.0,0.0,0.0,0.0,0.0,0.0,0.0,0.0,0.0,0.0,0.0,0.0,0.0,0.0,0.0,0.0,0.0,0.0,0.0,0.1749,0.1799,0.0,0.0,0.0,0.2244,0.2429,0.2511,0.2758,0.2841,0.2714,0.2841,0.2894,0.2829,0.2883,0.2957,0.3051,0.316,0.3257,0.3313,0.3454,0.3529,0.358,0.358,0.358,0.3667,0.4178,0.4781,0.541,0.6184,0.6886,0.7624,0.8377,0.8721,0.8808,0.8808,0.8808,0.8808,0.8808,0.8808,0.8808,0.8808,0.8808,0.8808,0.8808,0.8808,0.8808,0.8808,0.8808,0.8808,0.8808,1.0943,1.2881,1.2881,1.2881,1.2881,1.2881,1.2881,1.2881,1.2881,1.2881,1.2881,1.2881,1.2881,1.2881,1.2881,1.2881,1.2881,1.2881,1.2881,1.2881,1.2881,1.2881,1.2881,1.2881,1.2881,1.2881,1.2881,1.2881,1.2881,1.2881,1.2881,1.2881,1.2881,1.2881,1.2881]},{"header":{"parameterUnit":"m.s-1","parameterCategory":1,"la1":30.6,"la2":29.2853,"lo1":-89.7004,"lo2":-87.6739,"dy":0.0162,"dx":0.0183,"nx":112,"ny":82,"refTime":"2025-08-14T12:00:00:Z","depth":0,"parameterNumber":3,"parameterNumberName":"V-component_of_WINDS"},"data":[0.0,0.0,0.0,0.0,0.0,0.0,0.0,0.0,0.0,0.0,0.0,0.0,0.0,0.0,0.0,0.0,0.0,0.0,0.0,0.0,0.0,0.0,0.0,0.0,0.0,0.0,0.0,0.0,0.0,0.0,0.0,0.0,0.0,0.0,0.0,0.0,0.0,0.0,0.0,0.0,0.0,0.0,0.0,0.0,0.0,0.0,0.0,0.0,0.0,0.0,0.0,0.0,0.0,0.0,0.0,0.0,0.0,0.0,0.0,0.0,0.0,0.0,0.0,0.0,0.0,0.0,0.0,0.0,0.0,0.0,0.0,0.0,0.0,0.0,0.0,0.0,0.0,0.0,0.0,0.0,0.0,0.0,0.0,0.0,0.0,0.0,0.0,0.0,0.0,0.0,0.0,-0.8135,-0.9881,-1.0947,-1.0947,-1.0768,-1.0204,-0.913,0.0,0.0,0.0,0.0,0.0,0.0,0.0,0.0,0.0,0.0,0.0,0.0,0.0,0.0,0.0,0.0,0.0,0.0,0.0,0.0,0.0,0.0,0.0,0.0,0.0,0.0,0.0,0.0,0.0,0.0,0.0,0.0,0.0,0.0,0.0,0.0,0.0,0.0,0.0,0.0,0.0,0.0,0.0,0.0,0.0,0.0,0.0,0.0,0.0,0.0,0.0,0.0,0.0,0.0,0.0,0.0,0.0,0.0,0.0,0.0,0.0,0.0,0.0,0.0,0.0,0.0,0.0,0.0,0.0,0.0,0.0,0.0,0.0,0.0,0.0,0.0,0.0,0.0,0.0,0.0,0.0,0.0,0.0,0.0,0.0,0.0,0.0,0.0,0.0,0.0,0.0,0.0,0.0,0.0,0.0,0.0,0.0,0.0,0.0,0.0,0.0,0.0,0.0,0.0,-0.7049,-0.9372,-1.0825,-1.1655,-1.1655,-1.066,-0.995,-0.9755,0.0,0.0,0.0,0.0,0.0,0.0,0.0,0.0,0.0,0.0,0.0,0.0,0.0,0.0,0.0,0.0,0.0,0.0,0.0,0.0,0.0,0.0,0.0,0.0,0.0,0.0,0.0,0.0,0.0,0.0,0.0,0.0,0.0,0.0,0.0,0.0,0.0,0.0,0.0,0.0,0.0,0.0,0.0,0.0,0.0,0.0,0.0,0.0,0.0,0.0,0.0,0.0,0.0,0.0,0.0,0.0,0.0,0.0,0.0,0.0,0.0,0.0,0.0,0.0,0.0,0.0,0.0,0.0,0.0,0.0,0.0,0.0,0.0,0.0,0.0,0.0,0.0,0.0,0.0,0.0,0.0,0.0,0.0,0.0,0.0,0.0,0.0,0.0,0.0,0.0,0.0,0.0,0.0,0.0,0.0,0.0,0.0,0.0,0.0,0.0,0.0,0.0,0.0,-0.7306,-0.8279,-0.9743,-1.1042,-1.1797,-1.1797,-1.063,-0.9897,-0.9897,-0.7669,0.0,0.0,0.0,0.0,0.0,0.0,0.0,0.0,0.0,0.0,0.0,0.0,0.0,0.0,0.0,0.0,0.0,0.0,0.0,0.0,0.0,0.0,0.0,0.0,0.0,0.0,0.0,0.0,0.0,0.0,0.0,0.0,0.0,0.0,0.0,0.0,0.0,0.0,0.0,0.0,0.0,0.0,0.0,0.0,0.0,0.0,0.0,0.0,0.0,0.0,0.0,0.0,0.0,0.0,0.0,0.0,0.0,0.0,0.0,0.0,0.0,0.0,0.0,0.0,0.0,0.0,0.0,0.0,0.0,0.0,0.0,0.0,0.0,0.0,0.0,0.0,0.0,0.0,0.0,0.0,0.0,0.0,0.0,0.0,0.0,0.0,0.0,0.0,0.0,0.0,0.0,0.0,0.0,0.0,0.0,0.0,0.0,0.0,0.0,0.0,0.0,0.0,-0.8353,-0.9424,-0.9855,-1.1042,-1.1797,-1.1797,-1.063,-0.9897,-0.9897,-0.7432,0.0,0.0,0.0,0.0,0.0,0.0,0.0,0.0,0.0,0.0,0.0,0.0,0.0,0.0,0.0,0.0,0.0,0.0,0.0,0.0,0.0,0.0,0.0,0.0,0.0,0.0,0.0,0.0,0.0,0.0,0.0,0.0,0.0,0.0,0.0,0.0,0.0,0.0,0.0,0.0,0.0,0.0,0.0,0.0,0.0,0.0,0.0,0.0,0.0,0.0,0.0,0.0,0.0,0.0,0.0,0.0,0.0,0.0,0.0,0.0,0.0,0.0,0.0,0.0,0.0,0.0,0.0,0.0,0.0,0.0,0.0,0.0,0.0,0.0,0.0,0.0,0.0,0.0,0.0,0.0,0.0,0.0,0.0,0.0,0.0,0.0,0.0,0.0,0.0,0.0,0.0,0.0,0.0,0.0,0.0,0.0,0.0,0.0,0.0,0.0,0.0,0.0,-0.8893,-0.9987,-0.9908,-1.1042,-1.1797,-1.1797,-1.063,-0.9897,-0.9897,-0.7564,0.0,0.0,0.0,0.0,0.0,0.0,0.0,0.0,0.0,0.0,0.0,0.0,0.0,0.0,0.0,0.0,0.0,0.0,0.0,0.0,0.0,0.0,0.0,0.0,0.0,0.0,0.0,0.0,0.0,0.0,0.0,0.0,0.0,0.0,0.0,0.0,0.0,0.0,0.0,0.0,0.0,0.0,0.0,0.0,0.0,0.0,0.0,0.0,0.0,0.0,0.0,0.0,0.0,0.0,0.0,0.0,0.0,0.0,0.0,0.0,0.0,0.0,0.0,0.0,0.0,0.0,0.0,0.0,0.0,0.0,0.0,0.0,0.0,0.0,0.0,0.0,0.0,0.0,0.0,0.0,0.0,0.0,0.0,0.0,0.0,0.0,0.0,0.0,0.0,0.0,0.0,0.0,0.0,0.0,0.0,0.0,0.0,0.0,0.0,0.0,0.0,0.0,-0.9046,-1.0001,0.0,-1.1753,-1.2235,-1.2066,-1.0833,-1.0023,-0.9908,0.0,0.0,0.0,0.0,0.0,0.0,0.0,0.0,0.0,0.0,0.0,0.0,0.0,0.0,0.0,0.0,0.0,0.0,0.0,0.0,0.0,0.0,0.0,0.0,0.0,0.0,0.0,0.0,0.0,0.0,0.0,0.0,0.0,0.0,0.0,0.0,0.0,0.0,0.0,0.0,0.0,0.0,0.0,0.0,0.0,0.0,0.0,0.0,0.0,0.0,0.0,0.0,0.0,0.0,0.0,0.0,0.0,0.0,0.0,0.0,0.0,0.0,0.0,0.0,0.0,0.0,0.0,0.0,0.0,0.0,0.0,0.0,0.0,0.0,0.0,0.0,0.0,0.0,0.0,0.0,0.0,0.0,0.0,0.0,0.0,0.0,0.0,0.0,0.0,0.0,0.0,0.0,0.0,0.0,0.0,0.0,0.0,0.0,0.0,0.0,0.0,0.0,-0.8759,-0.9458,-1.0216,0.0,-1.2204,-1.2533,-1.2344,-1.1084,-1.0241,-1.01,0.0,0.0,0.0,0.0,0.0,0.0,0.0,0.0,0.0,0.0,0.0,0.0,0.0,0.0,0.0,0.0,0.0,0.0,0.0,0.0,0.0,0.0,0.0,0.0,0.0,0.0,0.0,0.0,0.0,0.0,0.0,0.0,0.0,0.0,0.0,0.0,0.0,0.0,0.0,0.0,0.0,0.0,0.0,0.0,0.0,0.0,0.0,0.0,0.0,0.0,0.0,0.0,0.0,0.0,0.0,0.0,0.0,0.0,0.0,0.0,0.0,0.0,0.0,0.0,0.0,0.0,0.0,0.0,0.0,0.0,0.0,0.0,0.0,0.0,0.0,0.0,0.0,0.0,0.0,0.0,0.0,0.0,0.0,0.0,0.0,0.0,0.0,0.0,0.0,0.0,0.0,0.0,0.0,0.0,0.0,0.0,0.0,0.0,0.0,0.0,0.0,0.0,-0.9518,-1.0223,-1.0784,-1.1549,-1.2212,-1.261,-1.2602,-1.1305,-1.0503,0.0,0.0,0.0,0.0,0.0,0.0,0.0,0.0,0.0,0.0,0.0,0.0,0.0,0.0,0.0,0.0,0.0,0.0,0.0,0.0,0.0,0.0,0.0,0.0,0.0,0.0,0.0,0.0,0.0,0.0,0.0,0.0,0.0,0.0,0.0,0.0,0.0,0.0,0.0,0.0,0.0,0.0,0.0,0.0,0.0,0.0,0.0,0.0,0.0,0.0,0.0,0.0,0.0,0.0,0.0,0.0,0.0,0.0,0.0,0.0,0.0,0.0,0.0,0.0,0.0,0.0,0.0,0.0,0.0,0.0,0.0,0.0,0.0,0.0,0.0,0.0,0.0,0.0,0.0,0.0,0.0,0.0,0.0,0.0,0.0,0.0,0.0,0.0,0.0,0.0,0.0,0.0,0.0,0.0,0.0,0.0,0.0,0.0,0.0,0.0,0.0,0.0,0.0,-1.034,-1.0756,-1.1316,-1.2723,-1.3057,-1.3086,-1.2906,-1.1589,-1.07,-1.0503,0.0,0.0,0.0,0.0,0.0,0.0,0.0,0.0,0.0,0.0,0.0,0.0,0.0,0.0,0.0,0.0,0.0,0.0,0.0,0.0,0.0,0.0,0.0,0.0,0.0,0.0,0.0,0.0,0.0,0.0,0.0,0.0,0.0,0.0,0.0,0.0,0.0,0.0,0.0,0.0,0.0,0.0,0.0,0.0,0.0,0.0,0.0,0.0,0.0,0.0,0.0,0.0,0.0,0.0,0.0,0.0,0.0,0.0,0.0,0.0,0.0,0.0,0.0,0.0,0.0,0.0,0.0,0.0,0.0,0.0,0.0,0.0,0.0,0.0,0.0,0.0,0.0,0.0,0.0,0.0,0.0,0.0,0.0,0.0,0.0,0.0,0.0,0.0,0.0,0.0,0.0,0.0,0.0,0.0,0.0,0.0,0.0,0.0,0.0,0.0,0.0,0.0,-1.0693,-1.1034,-1.1607,-1.3227,-1.3405,-1.332,-1.3173,-1.2114,-1.1251,-1.0776,0.0,0.0,0.0,0.0,0.0,0.0,0.0,0.0,0.0,0.0,0.0,0.0,0.0,0.0,0.0,0.0,0.0,0.0,0.0,0.0,0.0,0.0,0.0,0.0,0.0,0.0,0.0,0.0,0.0,0.0,0.0,0.0,0.0,0.0,0.0,0.0,0.0,0.0,0.0,0.0,0.0,0.0,0.0,0.0,0.0,0.0,0.0,0.0,0.0,0.0,0.0,0.0,0.0,0.0,0.0,0.0,0.0,0.0,0.0,0.0,0.0,0.0,0.0,0.0,0.0,0.0,0.0,0.0,0.0,0.0,0.0,0.0,0.0,0.0,0.0,0.0,0.0,0.0,0.0,0.0,0.0,0.0,0.0,0.0,0.0,0.0,0.0,0.0,0.0,0.0,0.0,0.0,0.0,0.0,0.0,0.0,0.0,0.0,0.0,0.0,0.0,0.0,-1.0715,-1.1096,-1.1679,-1.3244,-1.3405,-1.3405,-1.3405,-1.2711,-1.1984,-1.1257,0.0,0.0,0.0,0.0,0.0,0.0,0.0,0.0,0.0,0.0,0.0,0.0,0.0,0.0,0.0,0.0,0.0,0.0,0.0,0.0,0.0,0.0,0.0,0.0,0.0,0.0,0.0,0.0,0.0,0.0,0.0,0.0,0.0,0.0,0.0,0.0,0.0,0.0,0.0,0.0,0.0,0.0,0.0,0.0,0.0,0.0,0.0,0.0,0.0,0.0,0.0,0.0,0.0,0.0,0.0,0.0,0.0,0.0,0.0,0.0,-1.2864,0.0,0.0,0.0,0.0,0.0,0.0,0.0,0.0,0.0,0.0,0.0,0.0,0.0,0.0,0.0,0.0,0.0,0.0,0.0,0.0,0.0,0.0,0.0,0.0,0.0,0.0,0.0,0.0,0.0,0.0,0.0,0.0,0.0,0.0,0.0,0.0,0.0,0.0,0.0,0.0,0.0,-1.0715,-1.1096,-1.1679,-1.3244,-1.3405,-1.3405,-1.3405,-1.2711,-1.2229,-1.2052,-1.0068,0.0,0.0,0.0,0.0,0.0,0.0,0.0,0.0,0.0,0.0,0.0,0.0,0.0,0.0,0.0,0.0,0.0,0.0,0.0,0.0,0.0,0.0,0.0,0.0,0.0,0.0,0.0,0.0,0.0,0.0,0.0,0.0,0.0,0.0,0.0,0.0,0.0,0.0,0.0,0.0,0.0,0.0,0.0,0.0,0.0,0.0,0.0,0.0,0.0,0.0,0.0,0.0,0.0,0.0,0.0,0.0,0.0,0.0,0.0,0.0,-1.2638,0.0,0.0,0.0,0.0,0.0,0.0,0.0,0.0,0.0,0.0,0.0,0.0,0.0,0.0,0.0,0.0,0.0,0.0,0.0,0.0,0.0,0.0,0.0,0.0,0.0,0.0,0.0,0.0,0.0,0.0,0.0,0.0,0.0,0.0,0.0,0.0,0.0,0.0,0.0,0.0,-1.0808,-1.1434,-1.2111,-1.3278,-1.3405,-1.3405,-1.3405,-1.3057,-1.2677,-1.2322,-1.118,0.0,0.0,0.0,0.0,0.0,0.0,0.0,0.0,0.0,0.0,0.0,0.0,0.0,0.0,0.0,0.0,0.0,0.0,0.0,0.0,0.0,0.0,0.0,0.0,0.0,0.0,0.0,0.0,0.0,0.0,0.0,0.0,0.0,0.0,0.0,0.0,0.0,0.0,0.0,0.0,0.0,0.0,0.0,0.0,0.0,0.0,0.0,0.0,0.0,0.0,0.0,0.0,0.0,-1.9782,-1.99,-2.231,-2.231,-2.231,-2.1975,-1.6144,-1.4712,-1.633,-1.4561,0.0,0.0,0.0,0.0,0.0,0.0,0.0,0.0,0.0,0.0,0.0,0.0,0.0,0.0,0.0,0.0,0.0,0.0,0.0,0.0,0.0,0.0,0.0,0.0,-1.3077,-1.3144,0.0,0.0,0.0,0.0,0.0,0.0,0.0,0.0,0.0,0.0,0.0,0.0,-1.1288,-1.1967,-1.2627,-1.3506,-1.3481,-1.3405,-1.3405,-1.3405,-1.3142,-1.2525,-1.2373,-1.1451,0.0,0.0,0.0,0.0,0.0,0.0,0.0,0.0,0.0,0.0,0.0,0.0,0.0,0.0,0.0,0.0,0.0,0.0,0.0,0.0,0.0,0.0,0.0,0.0,0.0,0.0,0.0,0.0,0.0,0.0,0.0,0.0,-0.9022,-1.0005,0.0,0.0,0.0,0.0,0.0,0.0,0.0,0.0,0.0,0.0,0.0,0.0,0.0,-1.8913,-2.0628,-2.1122,-2.1678,-2.231,-2.1913,-2.193,-2.231,-2.231,-2.231,-2.224,-2.132,0.0,-1.8999,-1.6501,0.0,0.0,0.0,0.0,0.0,0.0,0.0,0.0,0.0,0.0,0.0,0.0,0.0,0.0,0.0,0.0,0.0,0.0,0.0,0.0,0.0,0.0,-1.6771,-1.6196,-1.6129,-1.5987,0.0,-1.3258,-1.1182,-0.996,-0.9818,0.0,0.0,0.0,0.0,0.0,0.0,0.0,-1.2736,-1.2627,-1.283,-1.4217,-1.3777,-1.3405,-1.3405,-1.3405,-1.3362,-1.3261,-1.2644,-1.217,-1.1857,-1.1265,0.0,0.0,0.0,0.0,0.0,0.0,0.0,0.0,0.0,0.0,0.0,0.0,0.0,0.0,0.0,0.0,0.0,0.0,0.0,0.0,0.0,0.0,0.0,0.0,0.0,0.0,0.0,0.0,0.0,-0.8403,-1.0062,-1.1342,-1.1174,-1.0935,0.0,0.0,0.0,0.0,0.0,0.0,0.0,0.0,0.0,-1.8789,-2.0254,-2.1413,-2.2293,-2.231,-2.231,-2.231,-2.231,-2.231,-2.231,-2.231,-2.1759,-2.0837,-2.0837,-2.0413,-1.9592,-1.8474,-1.6716,-1.4607,0.0,0.0,0.0,0.0,-1.2201,-1.6631,-1.6332,-1.7752,0.0,-1.5763,0.0,0.0,0.0,0.0,0.0,0.0,0.0,0.0,0.0,0.0,-1.7089,-1.6859,-1.705,-1.7189,-1.6929,-1.5949,-1.4408,0.0,-1.1926,-1.154,-0.9403,0.0,0.0,0.0,0.0,0.0,-1.3794,-1.4098,-1.4403,-1.5054,-1.4826,-1.4649,-1.4649,-1.4649,-1.4453,-1.4039,-1.3726,-1.32,-1.2438,-1.2001,-1.1304,0.0,0.0,0.0,0.0,0.0,0.0,0.0,0.0,0.0,0.0,0.0,0.0,0.0,0.0,0.0,0.0,0.0,0.0,0.0,0.0,0.0,0.0,0.0,0.0,0.0,0.0,0.0,0.0,-0.8947,-1.0477,-1.1919,-1.198,-1.1915,0.0,0.0,0.0,0.0,0.0,0.0,-1.2863,-1.677,-1.9993,-2.2243,-2.231,-2.231,-2.231,-2.231,-2.231,-2.231,-2.231,-2.231,-2.231,-2.231,-2.1362,-1.9682,-1.9682,-1.9682,-1.9682,-1.9682,-1.8564,-1.6789,-1.6693,-1.4613,-1.1662,-1.1662,-1.3837,-1.7088,-1.9044,-1.9682,-1.9088,-1.527,0.0,-1.8574,-1.6993,0.0,0.0,0.0,0.0,-1.5958,-1.6549,-1.7091,-1.748,-1.7595,-1.7932,-1.8179,-1.7973,-1.7977,-1.7101,0.0,-1.4003,-1.3715,-1.1577,0.0,0.0,0.0,0.0,-1.4014,-1.4944,-1.5384,-1.5663,-1.5857,-1.5705,-1.5595,-1.5595,-1.5595,-1.5367,-1.4826,-1.4642,-1.4127,-1.3134,-1.2843,-1.2408,-1.1767,0.0,0.0,0.0,0.0,0.0,0.0,0.0,0.0,0.0,0.0,0.0,0.0,0.0,0.0,0.0,0.0,0.0,0.0,0.0,0.0,0.0,0.0,0.0,0.0,0.0,0.0,0.0,0.0,0.0,-1.0647,-1.1909,0.0,0.0,0.0,0.0,-1.1868,-1.4086,-1.7298,-2.1446,-2.1921,-2.215,-2.231,-2.231,-2.231,-2.231,-2.231,-2.231,-2.231,-2.231,-2.231,-2.231,-2.231,-2.1362,-1.9682,-1.9682,-1.9682,-1.9682,-1.9682,-1.96,-1.9516,-1.9519,-1.9361,-1.9161,-1.9161,-1.9291,-1.9503,-1.9637,-1.9682,-1.9347,-1.7057,-1.6464,-1.6637,-1.6515,-1.7815,0.0,0.0,-1.8727,-1.9293,-1.8713,-1.9069,-1.954,-1.9542,-1.9585,-1.9413,-1.8792,-1.8657,-1.8051,0.0,-1.5839,-1.5451,-1.3741,0.0,-1.3988,-1.4281,-1.4393,-1.4961,-1.6411,-1.6001,-1.5866,-1.6572,-1.601,-1.5595,-1.5595,-1.5595,-1.5578,-1.5544,-1.506,-1.4753,-1.4692,-1.4127,-1.3483,-1.274,-1.2458,0.0,0.0,0.0,0.0,0.0,0.0,0.0,0.0,0.0,0.0,0.0,0.0,0.0,0.0,0.0,0.0,0.0,0.0,0.0,0.0,0.0,0.0,0.0,0.0,0.0,0.0,0.0,0.0,-1.1608,-1.2796,0.0,-1.3979,-1.3612,-1.3196,-1.2854,-1.6225,-1.8984,-2.0552,-2.064,-2.064,-2.064,-2.1721,-2.231,-2.231,-2.231,-2.231,-2.2282,-2.1158,-2.064,-2.064,-2.064,-2.0277,-1.9682,-1.9682,-1.9682,-1.9682,-1.9682,-1.9682,-1.9682,-1.9682,-1.9682,-1.9682,-1.9682,-1.9682,-1.9682,-1.9682,-1.9682,-1.9566,-1.881,-1.7626,-1.6515,-1.6515,-1.798,-1.9603,-1.9244,-1.9406,-1.9558,-1.8965,-1.9272,-1.9603,-1.9288,-1.9442,-1.9622,-1.939,-1.9331,-1.9001,-1.7872,-1.7608,-1.6993,-1.5153,-1.5553,-1.5912,-1.5311,-1.5604,-1.6272,-1.7278,-1.7185,-1.7126,-1.738,-1.7177,-1.7024,-1.7024,-1.7024,-1.6672,-1.585,-1.5614,-1.5183,-1.4444,-1.4078,-1.3845,-1.3697,-1.3041,-1.2045,0.0,0.0,0.0,0.0,0.0,0.0,0.0,0.0,0.0,0.0,0.0,0.0,0.0,0.0,0.0,0.0,0.0,0.0,0.0,0.0,0.0,0.0,0.0,0.0,0.0,0.0,-1.1209,-1.2001,-1.3046,-1.3718,-1.3803,-1.3466,-1.329,-1.3337,-1.6608,-1.893,-1.9646,-1.9682,-1.9682,-1.9682,-2.0837,-2.1721,-2.2282,-2.1721,-2.1424,-2.1424,-2.0243,-1.9682,-1.9682,-1.9682,-1.9682,-1.9735,-2.0617,-2.1006,-2.0939,-2.0049,-2.0206,-2.0917,-2.0026,-1.9682,-1.9682,-1.9682,-1.9682,-1.9682,-1.9682,-1.9682,-1.9646,-1.9288,-1.8458,-1.7429,-1.6716,-1.751,-1.8772,-1.9486,-1.9682,-1.9603,-1.9251,-1.9442,-1.9603,-1.9244,-1.9442,-1.9682,-1.9682,-1.9682,-1.9619,-1.9299,-1.8983,-1.8281,-1.6886,-1.7433,-1.7822,-1.7184,-1.7498,-1.7989,-1.8473,-1.8335,-1.8175,-1.8175,-1.7955,-1.7833,-1.7936,-1.7847,-1.7531,-1.6846,-1.6559,-1.5982,-1.5017,-1.468,-1.441,-1.4197,-1.3538,-1.3094,-1.2877,0.0,0.0,0.0,0.0,0.0,0.0,0.0,0.0,0.0,0.0,0.0,0.0,0.0,0.0,0.0,0.0,0.0,0.0,0.0,0.0,0.0,0.0,0.0,-0.7728,-0.9722,-1.1401,-1.1685,-1.2568,-1.2983,-1.2674,-1.3033,-1.3298,-1.3298,-1.5277,-1.7429,-1.9486,-1.9646,-1.9682,-1.9682,-1.9682,-2.0506,-2.2209,-2.0618,-1.9802,-1.9802,-1.9802,-1.9802,-1.9802,-1.9802,-1.9802,-1.9944,-2.2495,-2.3602,-2.34,-2.0857,-2.1306,-2.3348,-2.0797,-1.9757,-1.9682,-1.9682,-1.9682,-1.9682,-1.9646,-1.9682,-1.9522,-1.8458,-1.881,-1.9288,-1.7229,-1.6595,-1.6993,-1.9013,-1.9646,-1.9682,-1.9682,-1.9682,-1.9682,-1.9682,-1.9682,-1.9682,-1.9682,-1.9726,-1.9846,-2.0212,-1.9844,-1.9351,-1.901,-1.9287,-1.9639,-1.9942,-2.0002,0.0,-2.0002,-1.9384,-1.8927,-1.8927,-1.8302,-1.7965,-1.821,-1.7983,-1.8044,-1.854,-1.7842,-1.7142,-1.6531,-1.6019,-1.5278,-1.4291,-1.4132,-1.4499,-1.5438,0.0,0.0,0.0,0.0,0.0,0.0,0.0,0.0,0.0,0.0,0.0,0.0,0.0,0.0,0.0,0.0,0.0,0.0,0.0,0.0,0.0,0.0,-0.9864,-0.9587,-1.0381,-1.1339,-1.2193,-1.3049,-1.3634,-1.3663,-1.4821,-1.5577,-1.5577,-1.6176,-1.6752,-1.7347,-1.8848,-1.9682,-1.9682,-1.9682,-1.9917,-2.0413,-2.1826,-2.2525,-2.2525,-2.2525,-2.2525,-2.2525,-2.2525,-2.2525,-2.2562,-2.3288,-2.3602,-2.3542,-2.2817,-2.2944,-2.3527,-2.2802,-2.1358,-1.9682,-1.9682,-1.9682,-1.9603,-1.881,-1.905,-1.9603,-1.8893,-1.8612,-1.8574,-1.8772,-1.8295,-1.7626,-1.7429,-1.8496,-1.9682,-1.9682,-1.9682,-1.9682,-1.9682,-1.9682,-1.9682,-1.9682,-1.9937,-2.0158,-2.028,-2.0687,-2.0787,-2.018,-2.0428,-2.0583,-2.0078,-2.0002,0.0,-2.0002,-1.9816,-1.9689,-1.9689,-1.9512,-1.9214,-1.8756,-1.8824,-1.8567,-1.777,-1.7647,-1.7379,-1.6812,-1.6652,-1.6446,-1.6155,-1.5544,-1.56,0.0,0.0,0.0,0.0,0.0,0.0,0.0,0.0,0.0,0.0,0.0,0.0,0.0,0.0,0.0,0.0,0.0,0.0,0.0,0.0,0.0,0.0,-1.1074,-1.1013,-1.145,-1.1547,-1.1758,-1.2302,-1.2981,-1.3462,-1.3605,-1.4427,-1.5427,-1.6423,-1.6515,-1.6515,-1.6515,-1.7666,-1.8772,-1.9682,-1.9682,-2.0221,-2.1313,-2.2839,-2.3602,-2.3602,-2.3602,-2.3602,-2.3602,-2.3602,-2.3602,-2.3602,-2.3602,-2.3602,-2.3602,-2.3602,-2.3602,0.0,0.0,0.0,0.0,0.0,-2.0355,-2.0467,-2.0012,-2.0274,-2.0706,-2.0246,-1.9863,-1.9598,-1.9693,-1.9251,-1.865,-1.802,-1.8734,-1.9682,-1.9682,-1.9682,-1.9682,-1.9682,-1.9682,-1.9682,-1.9682,-2.0035,-2.0348,-2.055,-2.1134,0.0,-2.1287,-2.1488,-2.1498,-2.1024,-2.0948,-2.0948,-2.0948,-2.0703,-2.0509,-2.0509,-2.0187,-1.9866,-1.9561,-1.9697,0.0,0.0,0.0,-1.8333,-1.7449,-1.7218,0.0,0.0,0.0,0.0,0.0,0.0,0.0,0.0,-1.6675,-1.6737,0.0,0.0,0.0,0.0,0.0,0.0,0.0,0.0,0.0,0.0,0.0,0.0,0.0,0.0,0.0,0.0,-1.3861,-1.2269,-1.3281,-1.3054,-1.2635,-1.227,-1.2655,-1.2968,-1.2929,-1.2881,-1.3842,-1.6113,-1.6429,-1.6515,-1.6515,0.0,0.0,0.0,0.0,-2.1238,-2.358,-2.3602,-2.3602,-2.3602,-2.3602,-2.3602,-2.3602,-2.3602,-2.3602,-2.3602,-2.3602,-2.3602,-2.3602,-2.3602,-2.3602,-2.352,-2.2667,-2.2338,-2.2241,-2.1433,-2.1403,-2.1814,-2.2084,0.0,0.0,-2.1782,-2.1655,-2.147,-2.0281,-1.9802,-1.9682,-1.9682,-1.9682,-1.9682,-1.9682,-1.9682,-1.9682,-1.9682,-1.9682,-1.9718,-1.9747,-2.0097,-2.0516,-2.0991,-2.1407,-2.1794,-2.2245,-2.231,-2.231,-2.231,-2.231,-2.231,-2.231,-2.1727,-2.1304,-2.1304,0.0,0.0,-2.0482,-2.0599,-2.042,-1.9882,-2.0179,-1.9817,-1.8568,-1.813,-1.8315,-1.9218,-1.9465,-2.0052,-2.099,-2.072,-2.0619,-2.0606,-1.8299,-1.8251,0.0,0.0,0.0,0.0,0.0,0.0,0.0,0.0,0.0,0.0,0.0,0.0,0.0,0.0,0.0,-1.5049,-1.451,-1.4147,-1.4792,-1.4687,-1.3944,-1.2391,-1.3055,-1.3415,-1.2973,-1.2881,-1.3478,-1.4932,-1.5932,-1.6515,-1.6515,-1.6515,-1.6674,-1.7111,-2.0858,-2.3086,-2.3602,-2.3602,-2.3602,-2.3602,0.0,0.0,-2.3602,-2.3602,-2.3602,-2.3602,-2.3602,-2.3602,-2.3602,-2.3602,-2.3602,-2.3527,-2.2869,-2.26,-2.2562,-2.2181,-2.2106,-2.2107,-2.1668,-2.1872,-2.2137,-2.1339,-2.1344,-2.165,-2.1388,-2.055,0.0,-1.9682,-1.9682,-1.9682,-1.9682,-1.9682,-1.9682,-1.9682,-1.9682,-1.9782,-2.0124,-2.0558,-2.0991,-2.1399,-2.184,-2.218,-2.2274,-2.231,-2.231,-2.231,-2.231,-2.231,-2.231,-2.2183,-2.209,-2.209,-2.1964,-2.1644,-2.1078,-2.1459,-2.141,-2.0711,-2.1197,-2.1366,-2.1097,-2.1002,-2.1031,-2.124,-2.1297,-2.1595,-2.2162,-2.1835,-2.1899,-2.2211,-2.0935,-2.0569,0.0,0.0,0.0,0.0,0.0,0.0,0.0,0.0,0.0,0.0,0.0,-1.3302,-1.368,0.0,-1.6286,-1.6245,-1.5787,-1.5435,-1.5463,-1.5374,-1.4721,-1.3166,-1.373,-1.3873,-1.2973,-1.2881,-1.3387,-1.4617,-1.5838,-1.6515,-1.6515,-1.6515,-1.6515,-1.6515,-2.1112,-2.3602,-2.3602,-2.3602,-2.3602,-2.3602,-2.3602,-2.3602,-2.3602,-2.3602,-2.3602,-2.3602,-2.3602,-2.3602,-2.3602,-2.3602,-2.3602,-2.3565,-2.3258,-2.3138,-2.3123,-2.2996,-2.2944,-2.2902,-2.2554,-2.2683,-2.2864,-2.2389,-2.2421,-2.2645,-2.2645,-2.1874,-2.0812,-1.9937,-1.9682,-1.9682,-1.9682,-1.9682,-1.9682,-1.9682,-1.9682,-1.9811,-2.0212,-2.0657,-2.1118,-2.1521,-2.1966,-2.231,-2.231,-2.231,-2.231,-2.231,-2.231,-2.231,-2.231,-2.231,-2.231,-2.231,-2.231,-2.2158,-2.1777,-2.1788,-2.1843,-2.1931,-2.1734,-2.1652,-2.1785,-2.1851,-2.1904,-2.1904,-2.2007,-2.218,-2.2391,-2.2218,-2.2263,-2.2492,-2.1978,-2.1744,0.0,0.0,0.0,0.0,0.0,0.0,0.0,0.0,-1.405,-1.4831,-1.5504,-1.5901,-1.5653,-1.6863,-1.7822,-1.7723,-1.71,-1.6445,-1.5852,-1.577,-1.532,-1.4143,-1.4376,-1.4247,-1.3022,-1.3065,-1.361,-1.4749,-1.5882,-1.6515,-1.6515,-1.6515,-1.6616,-1.6835,-2.124,-2.3602,-2.3602,-2.3602,-2.3602,-2.3602,-2.3602,-2.3602,-2.3602,-2.3602,-2.3602,-2.3602,-2.3602,-2.3602,-2.3602,-2.3602,-2.3602,-2.3602,-2.3602,-2.3602,-2.3602,-2.3602,-2.3602,-2.3602,-2.3602,-2.3602,-2.3602,-2.3602,-2.3602,-2.3602,-2.3602,-2.2981,-2.1926,-2.0176,-1.9682,-1.9682,-1.9682,-1.9682,-1.9682,-1.9682,-1.9682,-1.9811,-2.0212,-2.0657,-2.1118,-2.1521,-2.1966,-2.231,-2.231,-2.231,-2.231,-2.231,-2.231,-2.231,-2.231,-2.231,-2.231,-2.231,-2.231,-2.233,-2.236,-2.2031,-2.2154,-2.298,-2.2227,-2.1837,-2.2063,-2.2249,-2.23,-2.2232,-2.2452,-2.2516,-2.2388,-2.2388,-2.2341,-2.231,-2.2454,-2.2446,-1.1434,-1.2426,0.0,-1.3728,-1.3593,-1.4247,0.0,0.0,-1.7489,-1.8639,-1.9169,-1.9236,-1.865,-1.8501,-1.8429,-1.817,-1.7758,-1.7216,-1.6503,-1.638,-1.597,-1.4744,-1.4658,-1.4247,-1.3022,-1.3563,-1.4335,-1.517,-1.6026,-1.6515,-1.6515,-1.6515,-1.698,-1.7984,-2.1659,-2.3602,-2.3602,-2.3602,-2.3602,-2.3602,-2.3602,-2.3602,-2.3602,-2.3602,-2.3602,-2.3602,-2.3602,-2.3602,-2.3602,-2.3602,-2.3602,-2.3602,-2.3602,-2.3602,-2.3602,-2.3602,-2.3602,-2.3602,-2.3602,-2.3602,-2.3602,-2.3602,-2.3602,-2.3602,-2.3602,-2.2981,-2.1926,-2.0176,-1.9682,-1.9682,-1.9682,-1.9682,-1.9682,-1.9682,-1.9682,-1.9811,-2.0212,-2.0657,-2.1118,-2.1521,-2.1966,-2.231,-2.231,-2.231,-2.231,-2.231,-2.231,-2.231,-2.231,-2.231,-2.231,-2.231,-2.231,-2.2407,-2.2634,-2.26,-2.2742,-2.3158,-2.3064,-2.301,-2.3033,-2.3334,-2.3365,-2.3065,-2.3379,-2.3253,-2.266,-2.266,-2.2545,-2.2327,-2.297,-2.2928,-1.3627,0.0,0.0,0.0,-1.6607,-1.7347,-1.9516,-1.9561,-1.9435,-2.0402,-2.0743,-2.0737,-2.0235,-2.0229,-2.001,0.0,-1.8885,-1.8331,-1.7146,-1.6951,-1.6508,-1.5359,-1.5231,-1.4778,-1.3695,-1.392,-1.4646,-1.5888,-1.6293,-1.6515,-1.6515,-1.6835,-1.7281,-1.784,-1.9748,-2.1647,-2.3595,-2.3602,-2.3602,-2.3602,-2.3602,-2.3602,-2.3602,-2.3602,-2.3602,-2.3602,-2.3602,-2.3602,-2.3602,-2.3602,-2.3602,-2.3602,-2.3602,-2.3602,-2.3602,-2.3602,-2.3602,-2.3602,-2.3602,-2.3602,-2.3602,-2.3602,-2.3602,-2.3602,-2.3602,-2.3093,-2.2368,-2.1635,-2.0872,-2.0281,-2.0281,-1.9981,-1.9682,-1.9682,-1.9682,-1.9811,-2.0212,-2.0442,-2.0781,-2.146,-2.1764,-2.1966,-2.2245,-2.231,-2.231,-2.231,-2.231,-2.231,-2.231,-2.231,-2.231,-2.231,-2.231,-2.2407,-2.2678,-2.2695,-2.2839,-2.3165,-2.3189,-2.3189,-2.3189,-2.315,-2.3045,-2.2914,-2.2891,-2.2738,-2.2463,-2.289,-2.3037,-2.2961,-2.3689,-2.3858,-1.4949,0.0,0.0,-1.8078,-1.9042,-1.9879,-2.083,-2.1016,-2.1152,-2.1776,-2.183,-2.1659,-2.1335,-2.1305,-2.1117,-2.0448,-1.9931,-1.9214,-1.8057,-1.7767,-1.7197,-1.5965,-1.5971,-1.5664,-1.4589,-1.4503,-1.5005,-1.6145,-1.6423,-1.6515,-1.6515,-1.7068,-1.7501,-1.7765,-1.8791,-2.0542,-2.3062,-2.3406,-2.3602,-2.3602,-2.3602,-2.3602,-2.3602,-2.3602,-2.3602,-2.3602,-2.3602,-2.3602,-2.3602,-2.3602,-2.3602,-2.3602,-2.3602,-2.3602,-2.3602,-2.3602,-2.3602,-2.3602,-2.3602,-2.3602,-2.3602,-2.3602,-2.3602,-2.3602,-2.3602,-2.3168,-2.2716,-2.2716,-2.1724,-2.0715,-2.0715,-2.0198,-1.9682,-1.9682,-1.9682,-1.9782,-2.0054,-2.0219,-2.0475,-2.1134,-2.143,-2.1726,-2.204,-2.2209,-2.231,-2.231,-2.231,-2.231,-2.231,-2.231,-2.231,-2.231,-2.231,-2.2388,-2.2581,-2.2599,-2.2704,-2.2933,-2.2949,-2.2949,-2.2949,-2.278,-2.266,-2.2599,-2.2463,-2.2462,-2.2606,-2.3139,-2.3494,-2.3714,-2.445,-2.4788,0.0,0.0,-1.8234,-1.9051,-1.9867,-2.0802,-2.2144,-2.2699,-2.2966,-2.3106,-2.2802,-2.2365,-2.2033,-2.1386,-2.1204,-2.2074,-2.0797,-1.9645,-1.9461,-1.8948,-1.8039,-1.6549,-1.687,-1.6792,0.0,-1.5537,-1.5582,-1.5626,-1.6188,-1.6515,-1.6515,-1.7068,-1.7626,-1.8173,-1.99,-2.1116,-2.1744,-2.298,-2.3602,-2.3602,-2.3602,-2.3602,-2.3602,-2.3602,-2.3602,-2.3602,-2.3602,-2.3602,-2.3602,-2.3602,-2.3602,-2.3602,-2.3602,-2.3602,-2.3602,-2.3602,-2.3602,-2.3602,-2.3602,-2.3602,-2.3602,-2.3602,-2.3602,-2.3602,-2.3602,-2.3168,-2.2716,-2.2716,-2.1724,-2.0715,-2.0715,-2.0198,-1.9682,-1.9682,-1.9682,-1.9718,-1.9726,-2.0027,-2.0314,-2.034,-2.1031,-2.1612,-2.162,-2.2003,-2.231,-2.231,-2.231,-2.231,-2.231,-2.231,-2.231,-2.231,-2.231,-2.231,-2.2302,-2.2302,-2.231,-2.2338,-2.2338,-2.2338,-2.2338,-2.2563,-2.2581,-2.233,-2.2563,-2.2916,-2.3367,-2.3384,-2.3756,-2.4489,-2.522,-2.5575,0.0,0.0,-2.0017,-2.1418,-2.1969,-2.2419,-2.3397,-2.3729,-2.3656,-2.317,-2.2935,-2.2581,-2.1802,-2.1384,-2.1239,-2.1464,-2.0935,-2.0374,-2.0,-1.9548,-1.897,-1.8081,-1.7899,0.0,0.0,0.0,0.0,-1.6194,-1.638,-1.6679,-1.7074,-1.8029,-1.8596,-1.8731,-2.0468,-2.1503,-2.1697,-2.2575,-2.3194,-2.3602,-2.3602,-2.3602,-2.3602,-2.3602,-2.3602,-2.3602,-2.3602,-2.3602,-2.3602,-2.3602,-2.3602,-2.3602,-2.3602,-2.3602,-2.3602,-2.3602,-2.3602,-2.3602,-2.3602,-2.3602,-2.3602,-2.3602,-2.3602,-2.3602,-2.3602,-2.3453,-2.3288,-2.3288,-2.236,-2.1365,-2.1365,-2.0535,-1.9682,-1.9682,-1.9682,-1.9682,-1.9682,-1.9818,-1.9965,-2.0254,-2.0542,-2.0935,-2.1491,-2.1726,-2.1928,-2.2245,-2.231,-2.231,-2.231,-2.231,-2.231,-2.231,-2.231,-2.231,-2.231,-2.231,-2.231,-2.231,-2.231,-2.231,-2.231,-2.2388,-2.2379,-2.231,-2.2864,-2.3229,-2.3393,-2.4382,-2.4991,-2.5245,-2.5989,-2.6327,0.0,-2.0969,-2.138,-2.3104,-2.3474,-2.3594,-2.4254,-2.4117,-2.3629,-2.2876,-2.2238,-2.1537,-2.0594,-2.022,-2.0216,-2.0697,-2.0722,-2.0701,-2.0868,-2.0531,-1.9967,-1.917,-1.8828,0.0,0.0,0.0,0.0,-1.707,-1.6716,-1.6759,-1.7338,-1.8447,-1.9074,-1.9019,-2.1015,-2.2053,-2.2053,-2.268,-2.3201,-2.3602,-2.3602,-2.3602,-2.3602,-2.3602,-2.3602,-2.3602,-2.3602,-2.3602,-2.3602,-2.3602,-2.3602,-2.3602,-2.3602,-2.3602,-2.3602,-2.3602,-2.3602,-2.3602,-2.3602,-2.3602,-2.3602,-2.3602,-2.3602,-2.3602,-2.3602,-2.3602,-2.3602,-2.3602,-2.2854,-2.2046,-2.2046,-2.1051,-2.0056,-2.0056,-1.9862,-1.9682,-1.9682,-1.9682,-1.9782,-2.0035,-2.0185,-2.0542,-2.1267,-2.1628,-2.1966,-2.2245,-2.231,-2.231,-2.231,-2.231,-2.231,-2.231,-2.231,-2.231,-2.231,-2.231,-2.231,-2.231,-2.231,-2.231,-2.231,-2.231,-2.2429,-2.2691,-2.3156,-2.3655,-2.4188,-2.5143,-2.5744,-2.6006,-2.648,-2.6691,-2.1426,-2.1894,-2.2342,-2.4063,-2.4348,-2.4284,-2.4644,-2.3896,-2.2921,-2.2163,-2.0709,-1.9327,0.0,0.0,-1.8285,-1.9886,-2.0203,-2.07,-2.1987,-2.1807,-2.1083,0.0,0.0,0.0,0.0,0.0,0.0,-1.8242,0.0,-1.6808,-1.7352,-1.8481,-1.915,-1.9209,-2.1461,-2.2718,-2.2701,-2.329,-2.3602,-2.3602,-2.3602,-2.3602,-2.3602,-2.3602,-2.3602,-2.3602,-2.3602,-2.3602,-2.3602,-2.3602,-2.3602,-2.3602,-2.3602,-2.3602,-2.3602,-2.3602,-2.3602,-2.3602,-2.3602,-2.3602,-2.3602,-2.3602,-2.3602,-2.3602,-2.3602,-2.3602,-2.3602,-2.3602,-2.3153,-2.2716,-2.2716,-2.1702,-2.0715,-2.0715,-2.0191,-1.9682,-1.9682,-1.9682,-1.9682,-1.9682,-2.0027,-2.0449,-2.0926,-2.1713,-2.2245,-2.2245,-2.2274,-2.231,-2.231,-2.231,-2.231,-2.231,-2.231,-2.231,-2.231,-2.231,-2.231,-2.231,-2.231,-2.2327,-2.2361,-2.2369,-2.2708,-2.3435,-2.3486,-2.4196,-2.5609,-2.5651,-2.6023,-2.6691,-2.6691,-2.6691,-2.2419,-2.3125,-2.3741,-2.4351,-2.4348,-2.4146,-2.3896,-2.2995,-2.1702,-1.9829,-1.8585,-1.7434,0.0,0.0,0.0,-1.9213,-2.0345,0.0,-2.2735,-2.2345,0.0,0.0,0.0,-2.0154,-2.0234,-1.9324,0.0,0.0,-1.8662,-1.7943,-1.8459,-1.9252,-1.9894,-2.0352,-2.1867,-2.2695,-2.2694,-2.329,-2.3602,-2.3602,-2.3602,-2.3602,-2.3602,-2.3602,-2.3602,-2.3602,-2.3602,-2.3602,-2.3602,-2.3602,-2.3602,-2.3602,-2.3602,-2.3602,-2.3602,-2.3602,-2.3602,-2.3602,-2.3602,-2.3602,-2.3602,-2.3602,-2.3602,-2.3602,-2.3602,-2.3602,-2.3602,-2.3602,-2.3153,-2.2716,-2.2716,-2.1702,-2.0715,-2.0715,-2.0191,-1.9682,-1.9682,-1.9682,-1.9682,-1.9682,-2.0027,-2.0449,-2.0926,-2.1438,-2.1794,-2.1794,-2.2077,-2.231,-2.231,-2.231,-2.231,-2.231,-2.231,-2.231,-2.231,-2.231,-2.231,-2.231,-2.231,-2.2556,-2.3097,-2.3122,-2.3469,-2.4227,-2.4754,-2.5228,-2.5609,-2.615,-2.6514,-2.6691,-2.6691,-2.6691,-2.3336,-2.3998,-2.4495,-2.4591,-2.4265,-2.3677,-2.282,-2.1522,-1.9835,-1.753,-1.6364,0.0,0.0,0.0,0.0,0.0,0.0,0.0,-2.2713,-2.2832,-2.2643,0.0,-2.1483,0.0,-2.0999,-2.0299,-2.0154,0.0,-1.9185,-1.8435,-1.9152,-1.9918,-2.0489,-2.083,-2.2328,-2.3072,-2.3098,-2.3421,-2.3602,-2.3602,-2.3602,-2.3602,-2.3602,-2.3602,-2.3602,-2.3602,0.0,-2.3602,-2.3602,-2.3602,-2.3602,-2.3602,-2.3602,-2.3602,-2.3602,-2.3602,-2.3602,-2.3602,-2.3602,-2.3602,-2.3602,-2.3602,-2.3602,-2.3602,-2.3602,-2.3602,-2.3602,-2.3602,-2.3348,-2.3079,-2.3079,-2.233,-2.1575,-2.1575,-2.0834,-2.0139,-2.0139,-1.9899,-1.9682,-1.9682,-2.0027,-2.0374,-2.0657,-2.1047,-2.1337,-2.1337,-2.1546,-2.1721,-2.1721,-2.2049,-2.231,-2.231,-2.231,-2.231,-2.231,-2.231,-2.231,-2.231,-2.2606,-2.297,-2.3376,-2.3706,-2.4222,-2.4966,-2.5397,-2.5769,-2.6082,-2.6497,-2.6691,-2.6691,-2.6691,-2.6691,-2.4145,-2.4536,-2.4795,-2.4823,-2.4162,-2.312,-2.1674,-1.9877,-1.783,-1.5367,0.0,0.0,-1.2498,0.0,-1.5178,-1.6793,0.0,-2.0891,-2.2375,-2.3147,-2.3244,-2.2417,-2.2199,-2.189,-2.1358,-2.1102,-2.1055,-2.122,-1.9525,-1.8835,-1.9649,-2.0401,-2.0881,-2.1097,-2.2738,-2.3602,-2.3602,-2.3602,-2.3602,-2.3602,-2.3602,-2.3602,-2.3602,-2.3602,-2.3602,-2.3602,-2.3602,0.0,-2.3602,-2.3602,-2.3602,-2.3602,-2.3602,-2.3602,-2.3602,-2.3602,-2.3602,-2.3602,-2.3602,-2.3602,-2.3602,-2.3602,-2.3602,-2.3602,-2.3602,-2.3602,-2.3602,-2.3602,-2.3602,-2.3602,-2.3602,-2.3079,-2.2589,-2.2589,-2.1537,-2.058,-2.058,-2.0109,-1.9682,-1.9682,-1.9965,-2.0246,-2.0272,-2.0624,-2.0894,-2.0894,-2.0959,-2.0967,-2.0934,-2.1683,-2.2209,-2.2209,-2.2245,-2.231,-2.231,-2.231,-2.231,-2.231,-2.2995,-2.3435,-2.3537,-2.4239,-2.4983,-2.5735,-2.5752,-2.6065,-2.6691,-2.6691,-2.6691,-2.6691,-2.6691,-2.6691,-2.4663,-2.4746,-2.4823,-2.4946,-2.4229,-2.2965,-2.0965,-1.9007,0.0,0.0,0.0,-1.1566,-1.0709,-1.2377,0.0,-1.6099,0.0,0.0,0.0,0.0,-2.2899,0.0,0.0,0.0,0.0,0.0,0.0,0.0,0.0,-2.0392,-2.0196,-2.0323,-2.0903,-2.2011,-2.3073,-2.3602,-2.3602,-2.3602,-2.3602,-2.3602,-2.3602,-2.3602,-2.3602,-2.3602,-2.3602,-2.3602,-2.3602,0.0,-2.3602,-2.3602,-2.3602,-2.3602,-2.3602,-2.3602,-2.3602,-2.3602,-2.3602,-2.3602,-2.3602,-2.3602,-2.3602,-2.3602,-2.3602,-2.3602,-2.3602,-2.3602,-2.3602,-2.3602,-2.3602,-2.3602,-2.3602,-2.2734,-2.1867,-2.1867,-2.0842,-1.9862,-1.9862,-1.9765,-1.9682,-1.9682,-1.9754,-1.9909,-2.0246,-2.0382,-2.0408,-2.0408,-2.0756,-2.0862,-2.0483,-2.1165,-2.1718,-2.1718,-2.2069,-2.231,-2.231,-2.231,-2.231,-2.231,-2.2995,-2.3663,-2.4294,-2.5017,-2.5761,-2.6488,-2.6505,-2.6564,-2.6691,-2.6691,-2.6691,-2.6691,-2.6691,-2.6691,-2.4705,-2.4932,-2.5049,-2.501,-2.4055,-2.2409,-1.9588,0.0,0.0,0.0,0.0,-1.0649,-1.0225,0.0,0.0,0.0,0.0,0.0,0.0,0.0,0.0,0.0,0.0,0.0,0.0,0.0,0.0,0.0,0.0,-2.1411,-2.0999,-2.1129,-2.1638,-2.2619,-2.2832,-2.3097,-2.3447,-2.3235,-2.3281,-2.3602,-2.3602,-2.3602,-2.3602,-2.3602,-2.3602,-2.3602,-2.3602,0.0,-2.3602,-2.3602,-2.3602,-2.3602,-2.3602,-2.3602,-2.3602,-2.3602,-2.3602,-2.3602,-2.3602,-2.3602,-2.3602,-2.3602,-2.3602,-2.3602,-2.3602,-2.3602,-2.3602,-2.3602,-2.3602,-2.3602,-2.3602,-2.2906,-2.2286,-2.2607,-2.1687,-2.0535,-1.9839,-1.9682,-1.9682,-1.9682,-1.9682,-1.9747,-1.9929,-2.0,-2.0,-2.0,-2.0174,-2.0243,-2.0035,-2.055,-2.1102,-2.1552,-2.1794,-2.1936,-2.1936,-2.2172,-2.2209,-2.1966,-2.3207,-2.412,-2.4498,-2.5575,-2.6336,-2.6683,-2.6691,-2.6691,-2.6691,-2.6691,-2.6691,-2.6691,-2.6691,-2.6691,-2.4727,-2.5103,-2.5264,-2.5099,-2.3918,-2.1908,-1.8499,-1.6406,0.0,0.0,0.0,-1.0205,-1.0205,0.0,0.0,0.0,0.0,0.0,0.0,0.0,0.0,0.0,0.0,0.0,0.0,0.0,0.0,0.0,0.0,0.0,-2.162,-2.1851,-2.2277,-2.2879,-2.2608,-2.2716,-2.328,-2.2941,-2.3039,-2.3602,-2.3651,-2.3666,-2.3602,-2.3602,-2.3602,-2.3602,-2.3602,0.0,0.0,-2.3602,-2.3602,-2.3602,-2.3602,-2.3602,-2.3602,-2.3602,-2.3602,-2.3602,-2.3602,-2.3602,-2.3602,-2.3602,-2.3602,-2.3602,-2.3602,-2.3602,-2.3602,-2.3602,-2.3602,-2.3602,-2.3602,-2.3041,-2.251,-2.2712,-2.1994,-2.0976,-1.9914,-1.9682,-1.9682,-1.9682,-1.9682,-1.9682,-1.9682,-1.9682,-1.9682,-1.9682,-1.9682,-1.9682,-1.9682,-1.9972,-2.0483,-2.1228,-2.1422,-2.146,-2.146,-2.1899,-2.2003,-2.162,-2.3418,-2.4515,-2.4515,-2.5913,-2.6691,-2.6691,-2.6691,-2.6691,-2.6691,-2.6691,-2.6691,-2.6691,-2.6691,-2.6691,-2.5033,-2.5283,-2.5303,-2.5283,-2.4034,-2.1919,-1.8559,0.0,0.0,0.0,-1.0206,-1.0205,-1.0205,0.0,0.0,0.0,0.0,0.0,0.0,0.0,0.0,0.0,0.0,0.0,0.0,0.0,0.0,0.0,0.0,0.0,-2.1642,-2.1851,-2.2205,-2.263,-2.2817,-2.3062,-2.3287,-2.3066,-2.3181,-2.3587,-2.3896,-2.388,-2.3602,-2.3602,-2.3602,-2.3602,-2.3602,0.0,0.0,-2.3602,-2.3602,-2.3602,-2.3602,-2.3602,-2.3602,-2.3602,-2.3602,-2.3602,-2.3602,-2.3602,-2.3602,-2.3602,-2.3602,-2.3602,-2.3602,-2.3602,-2.3602,-2.3602,-2.3602,-2.3602,-2.3602,-2.2697,-2.1493,-2.0318,-1.9959,-1.9839,-1.9712,-1.9682,-1.9682,-1.9682,-1.9682,-1.9682,-1.9682,-1.9682,-1.9682,-1.9682,-1.9682,-1.9682,-1.9682,-1.9711,-1.9937,-2.0374,-2.0781,-2.1063,-2.1063,-2.1438,-2.1658,-2.159,-2.3418,-2.4515,-2.4515,-2.5913,-2.6691,-2.6691,-2.6691,-2.6691,-2.6691,-2.6691,-2.6691,-2.6691,-2.6691,-2.6691,-2.4226,-2.4928,-2.5303,-2.5341,-2.4101,-2.1979,-1.8625,0.0,0.0,-1.0913,-1.0229,-1.0263,-1.0256,-1.0507,0.0,0.0,0.0,0.0,0.0,0.0,0.0,0.0,0.0,0.0,0.0,0.0,0.0,0.0,0.0,0.0,-2.2591,-2.2487,-2.2433,-2.2438,-2.2259,-2.2376,-2.2863,-2.2572,-2.2888,-2.3912,-2.4024,-2.4092,-2.4074,-2.4074,-2.3921,-2.3602,-2.3602,0.0,0.0,-2.3602,-2.3602,-2.3602,-2.3602,-2.3602,-2.3602,-2.3602,-2.3602,-2.3602,-2.3602,-2.3602,-2.3602,-2.3602,-2.3602,-2.3602,-2.3602,-2.3602,-2.3602,-2.3602,-2.3602,-2.3602,-2.3602,-2.2944,-2.1844,-2.0101,-2.0004,-2.0191,-1.9779,-1.9682,-1.9682,-1.9682,-1.9682,-1.9682,-1.9682,-1.9682,-1.9682,-1.9682,-1.9682,-1.9682,-1.9682,-1.9682,-1.9747,-1.9902,-2.0322,-2.0583,-2.0583,-2.0983,-2.1244,-2.1244,-2.3068,-2.4257,-2.4484,-2.5913,-2.6691,-2.6691,-2.6691,-2.6691,-2.6691,-2.6691,-2.6691,-2.6691,-2.6691,-2.6691,-2.293,-2.3986,-2.463,-2.4678,-2.3417,-2.1339,0.0,0.0,-1.4113,-1.0892,-1.0267,-1.0303,-1.0303,-1.0264,-1.0508,0.0,0.0,0.0,0.0,0.0,0.0,0.0,0.0,0.0,0.0,0.0,0.0,0.0,0.0,0.0,-2.3369,-2.3117,-2.2823,-2.2426,-2.2007,-2.2074,-2.2588,-2.2272,-2.2659,-2.3789,-2.3861,-2.4035,-2.4295,-2.4295,-2.4122,-2.3837,-2.3681,0.0,0.0,-2.3602,-2.3602,-2.3602,-2.3602,-2.3602,-2.3602,-2.3602,-2.3602,-2.3602,-2.3602,-2.3602,-2.3602,-2.3602,-2.3602,-2.3602,-2.3602,-2.3602,-2.3602,-2.3602,-2.3602,-2.3512,-2.3138,-2.2712,-2.1986,-2.037,-2.0198,-2.0333,-2.0049,-1.9832,-1.9682,-1.9682,-1.9682,-1.9682,-1.9682,-1.9682,-1.9682,-1.9682,-1.9682,-1.9682,-1.9682,-1.9682,-1.9682,-1.9682,-1.9929,-2.0124,-2.0124,-2.0516,-2.0949,-2.1287,-2.2941,-2.4165,-2.4805,-2.6023,-2.6691,-2.6691,-2.6691,-2.6691,-2.6691,-2.6691,-2.6691,-2.6691,-2.6691,-2.6691,-2.1242,-2.2364,-2.3026,-2.3026,-2.1707,-1.9761,0.0,-1.5318,-1.3389,-1.0827,-1.0303,-1.0303,-1.0303,-1.0303,-1.0557,-1.1367,0.0,0.0,0.0,0.0,0.0,0.0,0.0,0.0,0.0,0.0,0.0,0.0,0.0,0.0,-2.3714,-2.3692,-2.3392,-2.2721,-2.2417,-2.2392,-2.2596,-2.2417,-2.2543,-2.2992,-2.327,-2.3644,-2.4092,-2.4092,-2.4192,-2.4348,0.0,0.0,0.0,-2.3602,-2.3602,-2.3602,-2.3602,-2.3602,-2.3602,-2.3602,-2.3602,-2.3602,-2.3602,-2.3602,-2.3602,-2.3602,-2.3602,-2.3602,-2.3602,-2.3602,-2.3602,-2.3602,-2.3602,-2.331,-2.2046,-2.171,-2.1537,-2.0864,-2.0191,-1.9877,-2.0557,-2.0168,-1.9682,-1.9682,-1.9682,-1.9682,-1.9682,-1.9682,-1.9682,-1.9682,-1.9682,-1.9682,-1.9682,-1.9682,-1.9682,-1.9682,-1.9718,-1.9726,-1.9726,-2.0062,-2.084,-2.1992,-2.3235,-2.4397,-2.5534,-2.6302,-2.6691,-2.6691,-2.6691,-2.6691,-2.6691,-2.6691,-2.6691,-2.6691,-2.6691,-2.6691,-1.8061,-1.9255,-2.0197,-1.9649,-1.8649,-1.7293,-1.5336,-1.4062,-1.2711,-1.0712,-1.0303,-1.0303,-1.0303,-1.0303,-1.0771,-1.2217,0.0,0.0,0.0,0.0,0.0,0.0,0.0,0.0,0.0,0.0,0.0,0.0,0.0,0.0,-2.4247,-2.4024,-2.3541,-2.2721,-2.2617,-2.2521,-2.2383,-2.2327,-2.2639,-2.3285,-2.3871,-2.4028,-2.386,-2.4906,-2.4951,0.0,0.0,0.0,0.0,-2.3759,-2.3602,-2.3602,-2.3602,-2.3602,-2.3602,-2.3602,-2.3333,-2.2966,-2.2966,-2.2667,-2.2375,-2.2824,-2.2966,-2.2966,-2.2966,-2.3266,-2.3602,-2.3602,-2.3602,-2.3303,-2.2024,-2.2031,-2.1971,-2.0385,-2.0198,-2.0318,-2.0064,-1.9839,-1.9682,-1.9682,-1.9682,-1.9682,-1.9682,-1.9682,-1.9682,-1.9682,-1.9682,-1.9682,-1.9682,-1.9682,-1.9682,-1.9682,-1.9682,-1.9877,-2.0348,-2.0482,-2.1209,-2.2684,-2.3279,-2.4155,-2.5527,-2.599,-2.6367,-2.6691,-2.6691,-2.6691,-2.6691,-2.6691,-2.6691,-2.6691,-2.6691,-2.6691,0.0,-1.6657,-1.7582,-1.7086,-1.6304,-1.5294,-1.3949,-1.3008,-1.2012,-1.0586,-1.0303,-1.0303,-1.0303,-1.0303,-1.0664,-1.1738,0.0,0.0,0.0,0.0,0.0,0.0,0.0,0.0,0.0,0.0,0.0,0.0,0.0,0.0,-2.4623,-2.4335,-2.3871,-2.3211,-2.2863,-2.2617,-2.2436,-2.2341,-2.2539,-2.2995,-2.3444,-2.3631,-2.3601,-2.4389,-2.4454,0.0,0.0,0.0,0.0,-2.3494,-2.3404,-2.3474,-2.3474,-2.3397,-2.3251,-2.3251,-2.2847,-2.2308,-2.2308,-2.2039,-2.1769,-2.2173,-2.2308,-2.2353,-2.26,-2.2944,-2.3303,-2.3535,-2.3602,-2.3303,-2.2024,-2.2001,-2.1926,-2.0438,-2.0198,-2.0281,-2.0109,-1.9869,-1.9682,-1.9682,-1.9682,-1.9682,-1.9682,-1.9682,-1.9682,-1.9682,-1.9682,-1.9682,-1.9682,-1.9682,-1.9682,-1.9682,-1.9682,-2.0064,-2.1006,-2.0864,-2.1409,-2.3112,-2.3334,-2.4022,-2.5374,-2.5793,-2.6148,-2.6436,-2.6615,-2.6691,-2.6691,-2.6691,-2.6691,-2.6691,-2.6691,-2.6691,0.0,-1.4473,-1.5107,-1.5049,-1.4434,-1.3633,-1.2891,-1.209,0.0,-1.0458,-1.0292,-1.0331,-1.0449,-1.043,-1.0469,-1.0723,0.0,0.0,0.0,0.0,0.0,0.0,0.0,0.0,0.0,0.0,0.0,0.0,0.0,0.0,-2.4809,-2.4623,-2.4371,-2.4044,-2.322,-2.2772,-2.2746,-2.2463,-2.233,-2.233,-2.2353,-2.2716,-2.3317,-2.2905,-2.307,0.0,0.0,0.0,0.0,-2.2992,-2.3109,-2.3297,-2.3297,-2.3043,-2.2723,-2.2682,-2.2269,-2.1652,-2.1652,-2.1629,-2.1567,-2.1605,-2.1627,-2.1754,-2.2465,-2.2716,-2.2851,-2.3423,-2.3602,-2.3325,-2.2136,-2.1769,-2.1515,-2.0812,-2.0198,-1.9937,-2.052,-2.0139,-1.9682,-1.9682,-1.9682,-1.9682,-1.9682,-1.9682,-1.9682,-1.9682,-1.9682,-1.9682,-1.9682,-1.9682,-1.9682,-1.9682,-1.9727,-2.0266,-2.1515,-2.1111,-2.1545,-2.3398,-2.3483,-2.4029,-2.5265,-2.577,-2.6013,-2.6041,-2.6479,-2.6691,-2.6691,-2.6691,-2.6691,-2.6691,-2.6691,-2.6691,-1.1094,0.0,-1.2334,-1.167,-1.1338,-1.1143,0.0,-1.0752,0.0,0.0,0.0,-1.0627,-1.1971,-1.167,-1.209,0.0,0.0,0.0,0.0,0.0,0.0,0.0,0.0,0.0,0.0,0.0,0.0,0.0,0.0,-2.5117,-2.4962,-2.4804,-2.462,-2.4389,-2.3794,-2.3346,-2.3085,-2.2764,-2.2599,-2.2608,-2.2977,-2.2945,-2.2598,-2.3616,-2.3832,0.0,0.0,0.0,-2.3494,-2.3154,-2.3024,-2.3049,-2.3049,-2.302,-2.2879,-2.2532,-2.1972,-2.1403,-2.1403,-2.0848,-2.0243,-2.0774,-2.0946,-2.1163,-2.2323,-2.2716,-2.2851,-2.3423,-2.3602,-2.3527,-2.3228,-2.2428,-2.1395,-2.0213,-2.0311,-2.0543,-2.0034,-1.9802,-1.9682,-1.9682,-1.9682,-1.9682,-1.9682,-1.9682,-1.9682,-1.9682,-1.9682,-1.9682,-1.9682,-1.9682,-1.9682,-1.9682,-2.0154,-2.0602,-2.0924,-2.1268,-2.2415,-2.4647,-2.4382,-2.4829,-2.6307,-2.6104,-2.6183,-2.6513,-2.6657,-2.6691,-2.6691,-2.6691,-2.6691,-2.6691,-2.6691,-2.6691,-1.0303,-1.123,-1.208,-1.1611,-1.1494,-1.1494,-1.1494,0.0,0.0,0.0,0.0,0.0,-1.2004,0.0,0.0,0.0,0.0,0.0,0.0,0.0,0.0,0.0,0.0,0.0,0.0,0.0,0.0,0.0,0.0,-2.5244,-2.5142,-2.4981,-2.4818,-2.4639,-2.4274,-2.3853,-2.3437,-2.3093,-2.2839,-2.2695,-2.2976,-2.2809,-2.2336,-2.3131,-2.3266,0.0,0.0,0.0,-2.3034,-2.2791,-2.272,-2.2836,-2.2836,-2.27,-2.2499,-2.2272,-2.1604,-2.0856,-2.108,-2.064,-1.9998,-2.0182,-2.0243,-2.043,-2.147,-2.1837,-2.2136,-2.3281,-2.3602,-2.3602,-2.3602,-2.3086,-2.2084,-2.0146,-2.0041,-2.0258,-1.9787,-1.9682,-1.9682,-1.9682,-1.9682,-1.9682,-1.9682,-1.9682,-1.9682,-1.9682,-1.9682,-1.9682,-1.9682,-1.9682,-1.9682,-1.9682,-2.0019,-2.037,-2.0685,-2.1515,-2.2616,-2.3966,-2.4267,-2.4768,-2.5611,-2.5872,-2.6218,-2.6691,-2.6691,-2.6691,-2.6691,-2.6691,-2.6691,-2.6691,-2.6691,-2.6691,-1.0615,-1.1963,-1.3164,-1.2627,-1.2803,-1.3018,-1.2764,0.0,0.0,0.0,0.0,0.0,0.0,0.0,0.0,0.0,0.0,0.0,0.0,0.0,0.0,0.0,0.0,0.0,0.0,0.0,0.0,0.0,0.0,-2.5293,-2.5293,-2.5111,-2.4959,-2.4828,-2.4623,-2.4275,-2.384,-2.3459,-2.3141,-2.2839,-2.2746,-2.2581,-2.2369,-2.233,-2.231,-2.231,0.0,0.0,-2.231,-2.231,-2.2409,-2.2534,-2.2534,-2.2344,-2.2053,-2.1953,-2.1329,-2.055,-2.0894,-2.0756,-2.0348,-1.9945,-1.9747,-1.9817,-2.0535,-2.0864,-2.135,-2.3101,-2.3602,-2.3602,-2.3602,-2.3303,-2.2443,-2.0221,-1.9682,-1.9682,-1.9682,-1.9682,-1.9682,-1.9682,-1.9682,-1.9682,-1.9682,-1.9682,-1.9682,-1.9682,-1.9682,-1.9682,-1.9682,-1.9682,-1.9682,-1.9682,-1.9779,-2.0034,-2.052,-2.1773,-2.2586,-2.2636,-2.3898,-2.4664,-2.4736,-2.5606,-2.6297,-2.6691,-2.6691,-2.6691,-2.6691,-2.6691,-2.6691,-2.6691,-2.6691,-2.6691,-1.21,-1.373,-1.4316,-1.1416,-1.2324,-1.3535,0.0,0.0,0.0,0.0,0.0,0.0,0.0,0.0,0.0,0.0,0.0,0.0,0.0,0.0,0.0,0.0,0.0,0.0,0.0,0.0,0.0,0.0,0.0,-2.5293,-2.5293,-2.5111,-2.4989,-2.4974,-2.4657,-2.4452,-2.4373,-2.3883,-2.3597,-2.3544,-2.2972,-2.2678,-2.2634,-2.2407,-2.231,-2.231,0.0,-2.231,-2.231,-2.231,-2.2313,-2.2348,-2.2348,-2.232,-2.2216,-2.1801,-2.155,-2.136,-2.1086,-2.0959,-2.0829,-2.0356,-1.9965,-1.9839,-2.0692,-2.0969,-2.135,-2.3101,-2.3602,-2.3602,-2.3602,-2.1949,-2.0183,-1.9779,-1.9682,-1.9682,-1.9682,-1.9682,-1.9682,-1.9682,-1.9682,-1.9682,-1.9682,-1.9682,-1.9682,-1.9682,-1.9682,-1.9682,-1.9682,-1.9682,-1.9682,-1.9682,-2.0213,-2.0363,-1.9877,-2.1926,-2.3026,-2.2485,-2.4537,-2.5916,-2.6342,-2.6505,-2.6624,-2.6691,-2.6691,-2.6691,-2.6691,-2.6691,-2.6691,-2.6691,-2.6691,-2.6691,-1.1279,-1.2754,-1.3672,-1.21,-1.3975,-1.6006,0.0,0.0,0.0,0.0,0.0,0.0,0.0,0.0,0.0,0.0,0.0,0.0,0.0,0.0,0.0,0.0,0.0,0.0,0.0,0.0,0.0,0.0,0.0,0.0,-2.5293,-2.5214,-2.5111,-2.5001,-2.4858,-2.4678,-2.4512,-2.4257,-2.3992,-2.3692,-2.3392,-2.3045,-2.2695,-2.2755,-2.2624,-2.231,0.0,-2.2417,-2.231,-2.231,-2.231,-2.231,-2.231,-2.231,-2.2237,-2.1756,-2.1756,-2.1869,-2.1229,-2.115,-2.1236,-2.0821,-2.039,-2.0111,-2.0645,-2.0567,-2.0453,-2.1261,-2.2503,-2.3266,-2.1852,-2.0587,-1.9682,-1.9682,-1.9682,-1.9682,-1.9682,-1.9682,-1.9682,-1.9682,-1.9682,-1.9682,-1.9682,-1.9682,-1.9682,-1.9682,-1.9682,-1.9682,-1.9682,-1.9682,-1.9782,-2.0,-2.0282,-2.0449,-2.0402,-2.2409,-2.3875,-2.4301,-2.5402,-2.6227,-2.6691,-2.6691,-2.6691,-2.6691,-2.6691,-2.6691,-2.6691,-2.6691,-2.6691,-2.6691,-2.6691,-2.6691,-1.0801,-1.1885,-1.2988,0.0,0.0,0.0,0.0,0.0,0.0,0.0,0.0,0.0,0.0,0.0,0.0,0.0,0.0,0.0,0.0,0.0,0.0,0.0,0.0,0.0,0.0,0.0,0.0,0.0,0.0,0.0,-2.5322,-2.5303,-2.5234,-2.5077,-2.5013,-2.4885,-2.462,-2.4543,-2.4257,-2.3825,-2.3744,-2.3414,-2.2939,-2.3117,-2.2958,-2.2508,-2.2643,-2.2573,-2.2388,-2.233,-2.231,-2.231,-2.231,-2.231,-2.2254,-2.1899,-2.2003,-2.2209,-2.1524,-2.1438,-2.156,-2.1244,-2.0821,-2.0449,-2.0413,-2.0058,-1.9682,-1.9682,-2.1134,-2.2226,-2.0206,-1.9682,-1.9682,-1.9682,-1.9682,-1.9682,-1.9682,-1.9682,-1.9682,-1.9682,-1.9682,-1.9682,-1.9682,-1.9682,-1.9682,-1.9682,-1.9682,-1.9711,-1.9846,-1.9747,-1.9909,-2.0416,-2.0382,-2.0675,-2.1601,-2.3047,-2.4555,-2.6057,-2.6148,-2.6332,-2.6691,-2.6691,-2.6691,-2.6691,-2.6691,-2.6691,-2.6691,-2.6691,-2.6691,-2.6691,-2.6691,-2.6691,-1.2266,-1.2803,-1.3271,-1.4834,0.0,0.0,0.0,0.0,0.0,0.0,0.0,0.0,0.0,0.0,0.0,0.0,0.0,0.0,0.0,0.0,0.0,0.0,0.0,0.0,0.0,0.0,0.0,0.0,0.0,0.0,-2.539,-2.5322,-2.5293,-2.5283,-2.5099,-2.4989,-2.4965,-2.4657,-2.4383,-2.417,-2.3846,-2.3662,-2.3619,-2.3337,-2.3174,-2.3126,-2.2822,-2.2695,-2.2652,-2.2407,-2.231,-2.231,-2.231,-2.231,-2.2291,-2.2245,-2.2274,-2.2282,-2.2217,-2.1936,-2.159,-2.156,-2.1275,-2.0797,-2.0023,-1.9711,-1.9682,-1.9682,-1.9861,-1.9922,-1.9735,-1.9682,-1.9682,-1.9682,-1.9682,-1.9682,-1.9682,-1.9682,-1.9682,-1.9682,-1.9682,-1.9682,-1.9682,-1.9682,-1.9682,-1.9682,-1.9682,-1.9846,-2.0219,-1.9937,-2.0015,-2.0862,-2.055,-2.1203,-2.349,-2.3811,-2.4688,-2.6522,-2.6657,-2.6657,-2.6691,-2.6691,-2.6691,-2.6691,-2.6691,-2.6691,-2.6691,-2.6691,-2.6691,-2.6691,-2.6691,-2.6691,-1.1103,-1.2039,0.0,0.0,0.0,0.0,0.0,0.0,0.0,0.0,0.0,0.0,0.0,0.0,0.0,0.0,0.0,0.0,0.0,0.0,0.0,0.0,0.0,0.0,0.0,0.0,0.0,0.0,0.0,0.0,-2.5341,-2.5303,-2.5293,-2.5293,-2.5234,-2.5131,-2.5001,-2.4875,-2.4737,-2.4568,-2.4192,-2.3896,-2.3692,-2.3786,-2.3588,-2.3189,-2.33,-2.3093,-2.2695,-2.2599,-2.2445,-2.231,-2.231,-2.231,-2.231,-2.231,-2.231,-2.231,-2.231,-2.2172,-2.204,-2.204,-2.1675,-2.1252,-2.1283,-2.0573,-1.9917,-2.0999,-2.1323,-2.1071,-1.998,-1.9682,-1.9682,-1.9682,-1.9682,-1.9682,-1.9682,-1.9682,-1.9682,-1.9682,-1.9682,-1.9682,-1.9682,-1.9682,-1.9826,-2.0189,-1.9952,-1.9846,-2.0254,-2.0158,-2.0235,-2.0714,-2.1229,-2.1898,-2.2844,-2.3745,-2.4982,-2.6598,-2.6691,-2.6691,-2.6691,-2.6691,-2.6691,-2.6691,-2.6691,-2.6691,-2.6691,-2.6691,-2.6691,-2.6691,-2.6691,-2.6691,-1.0678,-1.1524,0.0,0.0,0.0,0.0,0.0,0.0,0.0,0.0,0.0,0.0,0.0,0.0,0.0,0.0,0.0,0.0,0.0,0.0,0.0,0.0,0.0,0.0,0.0,0.0,0.0,0.0,0.0,0.0,0.0,-2.5312,-2.5293,-2.5293,-2.5293,-2.5224,-2.5099,-2.5034,-2.4949,-2.486,-2.4543,-2.4238,-2.3952,-2.4182,-2.4008,-2.3513,-2.3649,-2.3446,-2.2996,-2.2797,-2.2537,-2.231,-2.231,-2.231,-2.231,-2.231,-2.231,-2.231,-2.231,-2.231,-2.231,-2.231,-2.2011,-2.1773,-2.2172,-2.1454,-2.0772,-2.1945,-2.231,-2.202,-2.0829,-2.0506,-2.0379,-1.9818,-1.9682,-1.9846,-2.0405,-2.0077,-1.9682,-1.9682,-1.9682,-1.9682,-1.9682,-1.9682,-1.9854,-2.0258,-2.0181,-2.0104,-2.0097,-2.0124,-2.0269,-2.0681,-2.1661,-2.2496,-2.2953,-2.3909,-2.5141,-2.6598,-2.6691,-2.6691,-2.6691,-2.6691,-2.6691,-2.6691,-2.6691,-2.6691,-2.6691,-2.6691,-2.6691,-2.6691,-2.6691,-2.6691,-1.1489,0.0,0.0,0.0,0.0,0.0,0.0,0.0,0.0,0.0,0.0,0.0,0.0,0.0,0.0,0.0,0.0,0.0,0.0,0.0,0.0,0.0,0.0,0.0,0.0,0.0,0.0,0.0,0.0,0.0,0.0,-2.537,-2.5293,-2.5293,-2.5293,-2.5293,-2.5293,-2.5099,-2.5001,-2.5001,-2.486,-2.47,-2.4495,-2.4495,-2.4393,-2.417,-2.3846,-2.3692,-2.3649,-2.2972,-2.2537,-2.231,-2.231,-2.231,-2.231,-2.231,-2.231,-2.231,-2.231,-2.231,-2.231,-2.231,-2.231,-2.231,-2.231,-2.231,-2.231,-2.231,-2.231,-2.231,-2.231,-2.231,-2.1848,-2.0154,-1.9718,-2.0216,-2.1924,-2.0934,-1.9718,-1.9718,-1.9718,-1.9718,-1.9718,-1.9718,-1.9718,-1.9718,-2.0447,-2.0665,-1.9818,-1.9726,-2.005,-2.0934,-2.1781,-2.2894,-2.4362,-2.4489,-2.5124,-2.6598,-2.6691,-2.6691,-2.6691,-2.6691,-2.6691,-2.6691,-2.6691,-2.6691,-2.6691,-2.6691,-2.6691,-2.6691,-2.6691,-2.6691,-1.0602,0.0,0.0,0.0,0.0,0.0,0.0,0.0,0.0,0.0,0.0,0.0,0.0,0.0,0.0,0.0,0.0,0.0,0.0,0.0,0.0,0.0,0.0,0.0,0.0,0.0,0.0,0.0,0.0,0.0,0.0,-2.539,-2.5341,-2.5293,-2.5293,-2.5293,-2.5293,-2.5244,-2.5214,-2.5214,-2.5171,-2.4913,-2.4495,-2.4495,-2.4393,-2.419,-2.4094,-2.3917,-2.3671,-2.3221,-2.3005,-2.2908,-2.2678,-2.2581,-2.2563,-2.2369,-2.231,-2.231,-2.231,-2.231,-2.231,-2.231,-2.231,-2.231,-2.231,-2.231,-2.231,-2.231,-2.231,-2.231,-2.231,-2.231,-2.218,-2.1653,-2.1524,-2.1683,-2.218,-2.1878,-2.1524,-2.1524,-2.1524,-2.1524,-2.1524,-2.1524,-2.1524,-2.1524,-2.0706,-2.0208,-2.0573,-2.0077,-2.0277,-2.1751,-2.2152,-2.2488,-2.2919,-2.2953,-2.4019,-2.653,-2.6691,-2.6691,-2.6691,-2.6691,-2.6691,-2.6691,-2.6691,-2.6691,-2.6691,-2.6691,-2.6691,-2.6691,-2.6691,-2.6691,0.0,0.0,0.0,0.0,0.0,0.0,0.0,0.0,0.0,0.0,0.0,0.0,0.0,0.0,0.0,0.0,0.0,0.0,0.0,0.0,0.0,0.0,0.0,0.0,0.0,0.0,0.0,0.0,0.0,0.0,0.0,-2.5408,-2.537,-2.5293,-2.5293,-2.5293,-2.5293,-2.5293,-2.5293,-2.5293,-2.5293,-2.5084,-2.4693,-2.4645,-2.4512,-2.4312,-2.4219,-2.4016,-2.3683,-2.3468,-2.3314,-2.3165,-2.2972,-2.2889,-2.2873,-2.2572,-2.2463,-2.2463,-2.2463,-2.2379,-2.2338,-2.2489,-2.2415,-2.231,-2.231,-2.231,-2.231,-2.231,-2.231,-2.231,-2.231,-2.231,-2.231,-2.231,-2.231,-2.231,-2.231,-2.231,-2.231,-2.231,-2.231,-2.231,-2.231,-2.231,-2.231,-2.231,-2.1393,-2.0934,-2.1454,-2.1063,-2.1134,-2.2189,-2.231,-2.231,-2.231,-2.231,-2.3063,-2.4839,-2.6048,-2.6691,-2.6691,-2.6691,-2.6691,-2.6691,-2.6691,-2.6691,-2.6691,-2.6691,-2.6691,-2.6691,-2.6691,-2.6691,0.0,0.0,0.0,0.0,0.0,0.0,0.0,0.0,0.0,0.0,0.0,0.0,0.0,0.0,0.0,0.0,0.0,0.0,0.0,0.0,0.0,0.0,0.0,0.0,0.0,0.0,0.0,0.0,0.0,0.0,0.0,-2.5453,-2.538,-2.5303,-2.5293,-2.5293,-2.5293,-2.5293,-2.5293,-2.5293,-2.5293,-2.5194,-2.5022,-2.4887,-2.4691,-2.4495,-2.4294,-2.4025,-2.3744,-2.3744,-2.3575,-2.3291,-2.3268,-2.3245,-2.3189,-2.2864,-2.2746,-2.2746,-2.2746,-2.2563,-2.2415,-2.2773,-2.2624,-2.231,-2.231,-2.231,-2.231,-2.231,-2.231,-2.231,-2.231,-2.231,-2.231,-2.231,-2.231,-2.231,-2.231,-2.231,-2.231,-2.231,-2.231,-2.231,-2.231,-2.231,-2.231,-2.231,-2.231,-2.231,-2.231,-2.231,-2.231,-2.231,-2.231,-2.231,-2.231,-2.231,-2.242,-2.2691,-2.522,-2.6691,-2.6691,-2.6691,-2.6691,-2.6691,-2.6691,-2.6691,-2.6691,-2.6691,-2.6691,-2.6691,-2.6691,-2.6691,0.0,0.0,0.0,0.0,0.0,0.0,0.0,0.0,0.0,0.0,0.0,0.0,0.0,0.0,0.0,0.0,0.0,0.0,0.0,0.0,0.0,0.0,0.0,0.0,0.0,0.0,0.0,0.0,0.0,0.0,-2.5582,-2.5515,-2.5457,-2.538,-2.5322,-2.5293,-2.5293,-2.5293,-2.5293,-2.5293,-2.5293,-2.5283,-2.5234,-2.5041,-2.4785,-2.4495,-2.4294,-2.417,-2.4094,-2.4094,-2.4045,-2.3967,-2.3701,-2.3588,-2.3544,-2.3221,-2.3093,-2.3093,-2.3093,-2.294,-2.2781,-2.2866,-2.2624,-2.231,-2.231,-2.231,-2.231,-2.231,-2.231,-2.231,-2.231,-2.231,-2.231,-2.231,-2.231,-2.231,-2.231,-2.231,-2.231,-2.231,-2.231,-2.231,-2.231,-2.231,-2.231,-2.231,-2.231,-2.231,-2.231,-2.231,-2.231,-2.231,-2.231,-2.231,-2.231,-2.231,-2.33,-2.5609,-2.6344,-2.6691,-2.6691,-2.6691,-2.6691,-2.6691,-2.6691,-2.6691,-2.6691,-2.6691,-2.6691,-2.6691,-2.6691,-2.6691,0.0,0.0,0.0,0.0,0.0,0.0,0.0,0.0,0.0,0.0,0.0,0.0,0.0,0.0,0.0,0.0,0.0,0.0,0.0,0.0,0.0,0.0,0.0,0.0,0.0,0.0,0.0,0.0,0.0,-2.5674,-2.5596,-2.5571,-2.5496,-2.5399,-2.537,-2.5322,-2.5293,-2.5293,-2.5293,-2.5293,-2.5293,-2.5293,-2.5293,-2.5088,-2.4818,-2.4486,-2.4393,-2.4284,-2.4199,-2.4199,-2.4199,-2.417,-2.4016,-2.3946,-2.3896,-2.3566,-2.3446,-2.3446,-2.3446,-2.3206,-2.2958,-2.3396,-2.2959,-2.231,-2.231,-2.231,-2.231,-2.231,-2.231,-2.231,-2.231,-2.231,-2.231,-2.231,-2.231,-2.231,-2.231,-2.231,-2.231,-2.231,-2.231,-2.231,-2.231,-2.231,-2.231,-2.231,-2.231,-2.231,-2.231,-2.231,-2.231,-2.231,-2.231,-2.231,-2.231,-2.231,-2.357,-2.6505,-2.6691,-2.6691,-2.6691,-2.6691,-2.6691,-2.6691,-2.6691,-2.6691,-2.6691,-2.6691,-2.6691,-2.6691,-2.6691,-2.6691,0.0,0.0,0.0,0.0,0.0,0.0,0.0,0.0,0.0,0.0,0.0,0.0,0.0,0.0,0.0,0.0,0.0,0.0,0.0,0.0,0.0,0.0,0.0,0.0,0.0,0.0,0.0,0.0,0.0,-2.5684,-2.5615,-2.5604,-2.5532,-2.5416,-2.539,-2.5361,-2.5293,-2.5293,-2.5293,-2.5293,-2.5293,-2.5293,-2.5293,-2.5131,-2.4885,-2.4582,-2.4559,-2.4436,-2.4256,-2.4256,-2.4228,-2.4199,-2.4199,-2.4199,-2.417,-2.3896,-2.3795,-2.3795,-2.3795,-2.3509,-2.3248,-2.3976,-2.3491,-2.2642,-2.2642,-2.247,-2.231,-2.231,-2.2451,-2.257,-2.2358,-2.231,-2.231,-2.231,-2.231,-2.231,-2.231,-2.231,-2.231,-2.231,-2.231,-2.231,-2.231,-2.231,-2.231,-2.231,-2.231,-2.231,-2.231,-2.231,-2.231,-2.231,-2.231,-2.231,-2.231,-2.2784,-2.4103,-2.6539,-2.6691,-2.6691,-2.6691,-2.6691,-2.6691,-2.6691,-2.6691,-2.6691,-2.6691,-2.6691,-2.6691,-2.6691,-2.6691,-2.6691,0.0,0.0,0.0,0.0,0.0,0.0,0.0,0.0,0.0,0.0,0.0,0.0,0.0,0.0,0.0,0.0,0.0,0.0,0.0,0.0,0.0,0.0,0.0,0.0,0.0,0.0,0.0,0.0,-2.5703,-2.5703,-2.5693,-2.5576,-2.5512,-2.5492,-2.5372,-2.5303,-2.5293,-2.5293,-2.5293,-2.5293,-2.5293,-2.5293,-2.5293,-2.5274,-2.5141,-2.4937,-2.4804,-2.4648,-2.4461,-2.4461,-2.4366,-2.4199,-2.4199,-2.4199,-2.419,-2.4151,-2.4122,-2.4122,-2.4122,-2.4103,-2.4054,-2.417,-2.4074,-2.3944,-2.3944,-2.3188,-2.231,-2.231,-2.3082,-2.3698,-2.2597,-2.231,-2.231,-2.231,-2.231,-2.231,-2.231,-2.231,-2.231,-2.231,-2.231,-2.231,-2.231,-2.231,-2.231,-2.231,-2.231,-2.231,-2.231,-2.231,-2.231,-2.231,-2.231,-2.231,-2.231,-2.4644,-2.6277,-2.6674,-2.6691,-2.6691,-2.6691,-2.6691,-2.6691,-2.6691,-2.6691,-2.6691,-2.6691,-2.6691,-2.6691,-2.6691,-2.6691,-2.6691,0.0,0.0,0.0,0.0,0.0,0.0,0.0,0.0,0.0,0.0,0.0,0.0,0.0,0.0,0.0,0.0,0.0,0.0,0.0,0.0,0.0,0.0,0.0,0.0,0.0,0.0,0.0,0.0,-2.4238,-2.4238,-2.4238,-2.4193,-2.4141,-2.4101,-2.4009,-2.4168,-2.462,-2.463,-2.4851,-2.5293,-2.5293,-2.5293,-2.5293,-2.5293,-2.5194,-2.4998,-2.4946,-2.4818,-2.4654,-2.4561,-2.4453,-2.4366,-2.4238,-2.4199,-2.4199,-2.4199,-2.4199,-2.4199,-2.4199,-2.4199,-2.4199,-2.4199,-2.4199,-2.4199,-2.4199,-2.3822,-2.3368,-2.3368,-2.3771,-2.4074,-2.3513,-2.2824,-2.231,-2.231,-2.231,-2.231,-2.231,-2.231,-2.231,-2.231,-2.231,-2.231,-2.231,-2.231,-2.231,-2.231,-2.231,-2.231,-2.231,-2.231,-2.231,-2.231,-2.231,-2.231,-2.231,-2.5,-2.6691,-2.6691,-2.6691,-2.6691,-2.6691,-2.6691,-2.6691,-2.6691,-2.6691,-2.6691,-2.6691,-2.6691,-2.6691,-2.6691,-2.6691,-2.6691,0.0,0.0,0.0,0.0,0.0,0.0,0.0,0.0,0.0,0.0,0.0,0.0,0.0,0.0,0.0,0.0,0.0,0.0,0.0,0.0,0.0,0.0,0.0,0.0,0.0,0.0,0.0,0.0,-2.3096,-2.3096,-2.3096,-2.3076,-2.3043,-2.3002,-2.2916,-2.3166,-2.3764,-2.3995,-2.4495,-2.5293,-2.5293,-2.5293,-2.5293,-2.5293,-2.5214,-2.5077,-2.5077,-2.4993,-2.4842,-2.4697,-2.4582,-2.4487,-2.433,-2.4247,-2.4199,-2.4199,-2.4199,-2.4199,-2.4199,-2.4199,-2.4199,-2.4199,-2.4199,-2.4199,-2.4199,-2.4199,-2.4199,-2.4199,-2.4199,-2.4199,-2.4199,-2.3491,-2.2782,-2.2782,-2.2552,-2.231,-2.231,-2.231,-2.231,-2.231,-2.231,-2.231,-2.231,-2.231,-2.231,-2.231,-2.231,-2.231,-2.231,-2.231,-2.231,-2.231,-2.231,-2.231,-2.231,-2.4323,-2.5896,-2.664,-2.6691,-2.6691,-2.6691,-2.6691,-2.6691,-2.6691,-2.6691,-2.6691,-2.6691,-2.6691,-2.6691,-2.6691,-2.6691,-2.6691,0.0,0.0,0.0,0.0,0.0,0.0,0.0,0.0,0.0,0.0,0.0,0.0,0.0,0.0,0.0,0.0,0.0,0.0,0.0,0.0,0.0,0.0,0.0,0.0,0.0,0.0,0.0,0.0,-2.3096,-2.3096,-2.3096,-2.3044,-2.2998,-2.3002,-2.2867,-2.2822,-2.287,-2.3696,-2.4495,-2.5293,-2.5293,-2.5293,-2.5293,-2.5293,-2.5293,-2.5274,-2.5274,-2.5163,-2.4998,-2.4977,-2.4799,-2.4495,-2.4495,-2.4357,-2.4199,-2.4199,-2.4199,-2.4199,-2.4199,-2.4199,-2.4199,-2.4199,-2.4199,-2.4199,-2.4199,-2.4199,-2.4199,-2.4199,-2.4199,-2.4199,-2.4199,-2.4151,-2.4103,-2.4103,-2.3179,-2.231,-2.231,-2.231,-2.231,-2.231,-2.231,-2.231,-2.231,-2.231,-2.231,-2.231,-2.231,-2.231,-2.231,-2.231,-2.231,-2.231,-2.231,-2.231,-2.231,-2.2454,-2.3723,-2.6514,-2.6691,-2.6691,-2.6691,-2.6691,-2.6691,-2.6691,-2.6691,-2.6691,-2.6691,-2.6691,-2.6691,-2.6691,-2.6691,-2.6691,0.0,0.0,0.0,0.0,0.0,0.0,0.0,0.0,0.0,0.0,0.0,0.0,0.0,0.0,0.0,0.0,0.0,0.0,0.0,0.0,0.0,0.0,0.0,0.0,0.0,0.0,0.0,0.0,0.0,-2.1435,-2.143,-2.1375,-2.1308,-2.1267,-2.1224,-2.1437,-2.1956,-2.2822,-2.3687,-2.4524,-2.4524,-2.4803,-2.5293,-2.5293,-2.5293,-2.5293,-2.5293,-2.5264,-2.5183,-2.5046,-2.4881,-2.4685,-2.461,-2.441,-2.4199,-2.4199,-2.4199,-2.4199,-2.4199,-2.4199,-2.4199,-2.4199,-2.4199,-2.4199,-2.4199,-2.4199,-2.4199,-2.4199,-2.4199,-2.4199,-2.4199,-2.4199,-2.3985,-2.3179,-2.2642,-2.231,-2.231,-2.231,-2.231,-2.231,-2.231,-2.231,-2.231,-2.231,-2.231,-2.231,-2.231,-2.231,-2.231,-2.231,-2.231,-2.231,-2.231,-2.231,-2.231,-2.231,-2.2758,-2.3816,-2.3883,-2.4729,-2.6615,-2.6691,-2.6691,-2.6691,-2.6691,-2.6691,-2.6691,-2.6691,-2.6691,-2.6691,-2.6691,-2.6691,0.0,0.0,0.0,0.0,0.0,0.0,0.0,0.0,0.0,0.0,0.0,0.0,0.0,0.0,0.0,0.0,0.0,0.0,0.0,0.0,0.0,0.0,0.0,0.0,0.0,0.0,0.0,0.0,0.0,0.0,-2.05,-2.044,-2.0369,-2.0302,-2.0302,-2.0696,-2.1495,-2.2072,-2.2793,-2.3658,-2.3658,-2.3937,-2.4476,-2.4764,-2.4899,-2.4909,-2.5178,-2.5293,-2.5293,-2.5152,-2.5005,-2.4869,-2.4732,-2.4502,-2.4199,-2.4199,-2.4199,-2.4199,-2.4199,-2.4199,-2.4199,-2.4199,-2.4199,-2.4199,-2.4199,-2.4199,-2.4199,-2.4199,-2.4199,-2.4199,-2.4199,-2.4199,-2.3885,-2.2588,-2.231,-2.231,-2.231,-2.231,-2.231,-2.231,-2.231,-2.231,-2.231,-2.231,-2.231,-2.231,-2.231,-2.231,-2.231,-2.231,-2.231,-2.231,-2.231,-2.231,-2.231,-2.231,-2.231,-2.231,-2.231,-2.319,-2.5135,-2.522,-2.5693,-2.6674,-2.6691,-2.6691,-2.6691,-2.6691,-2.6691,-2.6691,-2.6691,-2.6691,0.0,0.0,0.0,0.0,0.0,0.0,0.0,0.0,0.0,0.0,0.0,0.0,0.0,0.0,0.0,0.0,0.0,0.0,0.0,0.0,0.0,0.0,0.0,0.0,0.0,0.0,0.0,0.0,-2.0464,-2.0493,-2.0485,-2.0427,-2.0369,-2.0302,-2.0302,-2.0677,-2.1466,-2.1466,-2.1898,-2.2754,-2.2754,-2.2774,-2.2822,-2.3687,-2.4081,-2.4139,-2.4928,-2.5274,-2.5293,-2.5293,-2.5183,-2.4989,-2.493,-2.4623,-2.4199,-2.4199,-2.4199,-2.4199,-2.4199,-2.4199,-2.4199,-2.4199,-2.4199,-2.4199,-2.4199,-2.4199,-2.4199,-2.4199,-2.4199,-2.4199,-2.4199,-2.4199,-2.3894,-2.2642,-2.2358,-2.2358,-2.231,-2.231,-2.231,-2.231,-2.231,-2.231,-2.231,-2.231,-2.231,-2.231,-2.231,-2.231,-2.231,-2.231,-2.231,-2.231,-2.231,-2.231,-2.231,-2.231,-2.231,-2.231,-2.231,-2.231,-2.231,-2.231,-2.3655,-2.6505,-2.6649,-2.6691,-2.6691,-2.6691,-2.6691,-2.6691,-2.6691,-2.6691,-0.7709,0.0,0.0,0.0,0.0,0.0,0.0,0.0,0.0,0.0,0.0,0.0,0.0,0.0,0.0,0.0,0.0,0.0,0.0,0.0,0.0,0.0,0.0,0.0,0.0,0.0,0.0,0.0,-2.034,-2.0357,-2.036,-2.034,-2.0321,-2.0302,-2.0302,-2.0417,-2.0629,-2.0629,-2.1052,-2.186,-2.186,-2.2187,-2.2802,-2.3052,-2.3504,-2.411,-2.4341,-2.4764,-2.5293,-2.5293,-2.5183,-2.5001,-2.5141,-2.4785,-2.4199,-2.4199,-2.4199,-2.4199,-2.4199,-2.4199,-2.4199,-2.4199,-2.4199,-2.4199,-2.4199,-2.4199,-2.4199,-2.4199,-2.4199,-2.4199,-2.4199,-2.4199,-2.4103,-2.375,-2.3676,-2.3413,-2.2497,-2.231,-2.231,-2.231,-2.231,-2.231,-2.231,-2.231,-2.231,-2.231,-2.231,-2.231,-2.231,-2.231,-2.231,-2.231,-2.231,-2.231,-2.231,-2.231,-2.231,-2.231,-2.231,-2.231,-2.231,-2.231,-2.2691,-2.3503,-2.5609,-2.6691,-2.6691,-2.6691,-2.6691,-2.6691,-2.6691,-2.6691,0.0,0.0,0.0,0.0,0.0,0.0,0.0,0.0,0.0,0.0,0.0,0.0,0.0,0.0,0.0,0.0,0.0,0.0,0.0,0.0,0.0,0.0,0.0,0.0,0.0,-1.9225,-1.9227,-1.9248,-1.959,-1.9944,-2.0283,-2.0302,-2.0302,-2.0302,-2.0302,-2.0302,-2.0302,-2.0302,-2.0542,-2.1004,-2.1004,-2.1273,-2.1773,-2.21,-2.2524,-2.3042,-2.3408,-2.4024,-2.4803,-2.4803,-2.4926,-2.5141,-2.5244,-2.4968,-2.4474,-2.4401,-2.4294,-2.4199,-2.4199,-2.4199,-2.4199,-2.4199,-2.4199,-2.4199,-2.4199,-2.4199,-2.4199,-2.4199,-2.4199,-2.4199,-2.4199,-2.4199,-2.4199,-2.4199,-2.4199,-2.3843,-2.257,-2.231,-2.231,-2.231,-2.231,-2.231,-2.231,-2.231,-2.231,-2.231,-2.231,-2.231,-2.231,-2.231,-2.231,-2.231,-2.231,-2.231,-2.231,-2.231,-2.231,-2.231,-2.231,-2.231,-2.231,-2.231,-2.231,-2.231,-2.3993,-2.5465,-2.6691,-2.6691,-2.6691,-2.6691,-2.6691,-2.6691,0.0,0.0,0.0,0.0,0.0,0.0,-1.1118,-1.1329,0.0,0.0,0.0,0.0,0.0,0.0,0.0,0.0,0.0,0.0,0.0,0.0,0.0,0.0,0.0,0.0,-1.7702,-1.7702,-1.7718,-1.7781,-1.8513,-1.926,-1.9967,-2.01,-2.0167,-2.0158,-2.0254,-2.0302,-2.0302,-2.0302,-2.0302,-2.0302,-2.0302,-2.0302,-2.0321,-2.1043,-2.1418,-2.1543,-2.2322,-2.3158,-2.3966,-2.3966,-2.4485,-2.5293,-2.5293,-2.513,-2.4872,-2.4691,-2.4445,-2.4199,-2.4199,-2.4199,-2.4199,-2.4199,-2.4199,-2.4199,-2.4199,-2.4199,-2.4199,-2.4199,-2.4199,-2.4199,-2.4199,-2.4199,-2.4199,-2.4199,-2.4199,-2.3885,-2.2764,-2.2405,-2.231,-2.231,-2.231,-2.231,-2.231,-2.231,-2.231,-2.231,-2.231,-2.231,-2.231,-2.231,-2.231,-2.231,-2.231,-2.231,-2.231,-2.231,-2.231,-2.231,-2.231,-2.231,-2.231,-2.231,-2.231,-2.231,-2.231,-2.3596,-2.6201,-2.653,-2.6691,-2.6691,-2.6691,-2.6691,0.0,0.0,0.0,0.0,0.0,0.0,0.0,-1.0896,0.0,0.0,0.0,0.0,0.0,0.0,0.0,0.0,0.0,0.0,0.0,0.0,0.0,0.0,0.0,0.0,-1.7702,-1.7702,-1.7705,-1.7725,-1.7881,-1.8042,-1.8196,-1.8871,-1.9254,-1.9251,-1.9927,-2.0302,-2.0302,-2.0302,-2.0302,-2.0302,-2.0302,-2.0302,-2.0312,-2.0465,-2.0889,-2.1514,-2.1677,-2.2245,-2.3043,-2.3043,-2.3937,-2.5293,-2.5293,-2.5105,-2.4814,-2.4775,-2.4519,-2.4199,-2.4199,-2.4199,-2.4199,-2.4199,-2.4199,-2.4199,-2.4199,-2.4199,-2.4199,-2.4199,-2.4199,-2.4199,-2.4199,-2.4199,-2.4199,-2.4199,-2.4199,-2.4122,-2.3885,-2.3017,-2.231,-2.231,-2.231,-2.231,-2.231,-2.231,-2.231,-2.231,-2.231,-2.231,-2.231,-2.231,-2.231,-2.231,-2.231,-2.231,-2.231,-2.231,-2.231,-2.231,-2.231,-2.231,-2.231,-2.231,-2.231,-2.231,-2.231,-2.2589,-2.3164,-2.5541,-2.6691,-2.6691,-2.6691,-2.6691,0.0,0.0,0.0,-1.0858,0.0,0.0,0.0,0.0,0.0,0.0,0.0,0.0,0.0,0.0,0.0,0.0,0.0,0.0,0.0,0.0,0.0,0.0,0.0,0.0,-1.6445,-1.6445,-1.6628,-1.7071,-1.7099,-1.7273,-1.7683,-1.8109,-1.835,-1.8347,-1.8782,-1.9206,-1.9648,-1.9648,-1.9869,-2.0302,-2.0302,-2.0302,-2.0302,-2.0302,-2.0523,-2.0898,-2.0898,-2.1379,-2.2149,-2.2149,-2.2899,-2.4101,-2.4534,-2.4482,-2.4205,-2.4629,-2.4561,-2.4199,-2.4199,-2.4199,-2.4199,-2.4199,-2.4199,-2.4199,-2.4199,-2.4199,-2.4199,-2.4199,-2.4199,-2.4199,-2.4199,-2.4199,-2.4199,-2.4199,-2.4199,-2.4199,-2.4199,-2.3698,-2.3067,-2.2424,-2.231,-2.231,-2.231,-2.231,-2.231,-2.231,-2.231,-2.231,-2.231,-2.231,-2.231,-2.231,-2.231,-2.231,-2.231,-2.231,-2.231,-2.231,-2.231,-2.231,-2.231,-2.231,-2.231,-2.231,-2.231,-2.231,-2.231,-2.3782,-2.4509,-2.4509,-2.4509,-2.4509,0.0,0.0,0.0,0.0,0.0,-1.0892,0.0,0.0,0.0,0.0,0.0,0.0,0.0,0.0,0.0,0.0,0.0,0.0,0.0,0.0,0.0,0.0,0.0,0.0,0.0,-1.4949,-1.5305,-1.6176,-1.609,-1.6359,-1.7167,-1.7378,-1.7465,-1.7465,-1.7626,-1.8039,-1.8742,-1.8915,-1.9348,-2.0052,-2.0225,-2.0302,-2.0302,-2.0302,-2.0302,-2.0302,-2.0302,-2.0677,-2.1273,-2.1273,-2.1677,-2.2437,-2.3629,-2.3841,-2.3601,-2.4478,-2.4561,-2.4199,-2.4199,-2.4199,-2.4199,-2.4199,-2.4199,-2.4199,-2.4199,-2.4199,-2.4199,-2.4199,-2.4199,-2.4199,-2.4199,-2.4199,-2.4199,-2.4199,-2.4199,-2.4199,-2.4199,-2.4199,-2.3813,-2.2552,-2.231,-2.231,-2.231,-2.231,-2.231,-2.231,-2.231,-2.231,-2.231,-2.231,-2.231,-2.231,-2.231,-2.231,-2.231,-2.231,-2.231,-2.231,-2.231,-2.231,-2.231,-2.231,-2.231,-2.231,-2.231,-2.231,-2.231,-2.231,-2.231,-2.231,-2.231,-2.231,0.0,0.0,0.0,0.0,-1.244,0.0,0.0,0.0,0.0,0.0,0.0,0.0,0.0,0.0,0.0,0.0,0.0,0.0,0.0,0.0,0.0,0.0,0.0,0.0,0.0,-1.4055,-1.4411,-1.5276,-1.4632,-1.4574,-1.5445,-1.6224,-1.6638,-1.6638,-1.733,-1.7751,-1.7856,-1.8607,-1.9049,-1.9165,-1.9927,-2.0302,-2.0302,-2.0302,-2.0302,-2.0302,-2.0302,-2.035,-2.0446,-2.0446,-2.0494,-2.0821,-2.3186,-2.3841,-2.3601,-2.4478,-2.4561,-2.4199,-2.4199,-2.4199,-2.4199,-2.4199,-2.4199,-2.4199,-2.4199,-2.4199,-2.4199,-2.4199,-2.4199,-2.4199,-2.4199,-2.4199,-2.4199,-2.4199,-2.4199,-2.4199,-2.4199,-2.4199,-2.3813,-2.2552,-2.231,-2.231,-2.231,-2.231,-2.231,-2.231,-2.231,-2.231,-2.231,-2.231,-2.231,-2.231,-2.231,-2.231,-2.231,-2.231,-2.231,-2.231,-2.231,-2.231,-2.231,-2.231,-2.231,-2.231,-2.231,-2.231,-2.231,-2.231,-2.231,-2.231,-2.231,-2.231,0.0,0.0,0.0,0.0,0.0,0.0,-1.1141,0.0,-1.0738,0.0,0.0,0.0,0.0,0.0,0.0,0.0,0.0,0.0,0.0,0.0,0.0,0.0,0.0,0.0,0.0,0.0,0.0,0.0,-1.3843,-1.4065,-1.443,-1.5266,-1.5753,-1.5753,-1.607,-1.6494,-1.6994,-1.7375,-1.8039,-1.9001,-1.9377,-1.9812,-2.0302,-2.0302,-2.0302,-2.0302,-2.0302,-2.0302,-2.0302,-2.0302,-2.0302,-2.0456,-2.1985,-2.237,-2.2207,-2.3549,-2.381,-2.3575,-2.4043,-2.4199,-2.4199,-2.4199,-2.4199,-2.4199,-2.4199,-2.4199,-2.4199,-2.4199,-2.4199,-2.4199,-2.4199,-2.4199,-2.4199,-2.4199,-2.4199,-2.4005,-2.3251,-2.3091,-2.2951,-2.2405,-2.231,-2.231,-2.231,-2.231,-2.231,-2.231,-2.231,-2.231,-2.231,-2.231,-2.231,-2.231,-2.231,-2.231,-2.231,-2.231,-2.231,-2.231,-2.231,-2.231,-2.231,-2.231,-2.231,-2.231,-2.231,-2.231,-2.231,-2.231,-2.231,-2.231,-2.231,-2.231,-1.3719,0.0,0.0,0.0,0.0,0.0,0.0,0.0,0.0,0.0,0.0,0.0,0.0,0.0,0.0,0.0,0.0,0.0,0.0,0.0,0.0,0.0,0.0,0.0,0.0,0.0,0.0,0.0,0.0,-1.342,-1.3876,-1.4497,-1.4949,-1.5189,-1.5199,-1.5503,-1.6138,-1.6378,-1.7109,-1.8318,-1.878,-1.9328,-1.9946,-2.0196,-2.0302,-2.0302,-2.0302,-2.0302,-2.0302,-2.0302,-2.0302,-2.0352,-2.0885,-2.0918,-2.0872,-2.256,-2.3101,-2.3088,-2.3676,-2.4015,-2.4199,-2.4199,-2.4199,-2.4199,-2.4199,-2.4199,-2.4199,-2.4199,-2.4199,-2.4199,-2.4199,-2.4199,-2.4199,-2.4199,-2.4199,-2.3843,-2.257,-2.231,-2.231,-2.231,-2.231,-2.231,-2.231,-2.231,-2.231,-2.231,-2.231,-2.231,-2.231,-2.231,-2.231,-2.231,-2.231,-2.231,-2.231,-2.231,-2.231,-2.231,-2.231,-2.231,-2.231,-2.231,-2.231,-2.231,-2.231,-2.231,-2.231,-2.231,-2.231,-2.231,-2.231,-2.231,0.0,0.0,0.0,-1.3113,0.0,0.0,0.0,0.0,-1.1241,0.0,0.0,0.0,0.0,0.0,0.0,0.0,0.0,0.0,0.0,0.0,0.0,0.0,0.0,0.0,0.0,0.0,0.0,0.0,-1.194,0.0,-1.3809,-1.3925,-1.4334,-1.517,-1.5199,-1.5209,-1.5237,-1.608,-1.6532,-1.6599,-1.8222,-1.9011,-1.9069,-1.9917,-2.0302,-2.0302,-2.0302,-2.0302,-2.0302,-2.0302,-2.0302,-2.0277,-2.0107,-1.9961,-2.0035,-2.1724,-2.2616,-2.2988,-2.3043,-2.3556,-2.4199,-2.4199,-2.4199,-2.4199,-2.4199,-2.4199,-2.4199,-2.4199,-2.4199,-2.4199,-2.4199,-2.4199,-2.4199,-2.4199,-2.4199,-2.3843,-2.257,-2.231,-2.231,-2.231,-2.231,-2.231,-2.231,-2.231,-2.231,-2.231,-2.231,-2.231,-2.231,-2.231,-2.231,-2.231,-2.231,-2.231,-2.231,-2.231,-2.231,-2.231,-2.231,-2.231,-2.231,-2.231,-2.231,-2.231,-2.231,-2.231,-2.231,-2.231,-2.231,-2.231,-2.231,-2.231,0.0,0.0,-1.4987,-1.3846,0.0,0.0,0.0,0.0,0.0,0.0,0.0,0.0,0.0,0.0,0.0,0.0,0.0,0.0,0.0,0.0,0.0,0.0,0.0,0.0,0.0,0.0,0.0,0.0,-1.1243,0.0,-1.2224,-1.3305,-1.4045,-1.4334,-1.4901,-1.5199,-1.5199,-1.5493,-1.5926,-1.6513,-1.7071,-1.7626,-1.8174,-1.904,-1.9444,-1.9473,-2.0052,-2.0302,-2.0302,-2.0302,-2.0302,-2.0277,-2.0088,-1.9913,-1.992,-2.0922,-2.1328,-2.1575,-2.3226,-2.3969,-2.4199,-2.4199,-2.4199,-2.4199,-2.4199,-2.4199,-2.4199,-2.4199,-2.4199,-2.4199,-2.4199,-2.4199,-2.4199,-2.4199,-2.4199,-2.4074,-2.3655,-2.291,-2.231,-2.231,-2.231,-2.231,-2.231,-2.231,-2.231,-2.231,-2.231,-2.231,-2.231,-2.231,-2.231,-2.231,-2.231,-2.231,-2.231,-2.231,-2.231,-2.231,-2.231,-2.231,-2.231,-2.231,-2.231,-2.231,-2.231,-2.231,-2.231,-2.231,-2.231,-2.231,-2.231,-2.231,-1.5282,-1.5301,0.0,-1.4222,-1.361,0.0,-1.1713,0.0,0.0,0.0,0.0,0.0,0.0,0.0,0.0,0.0,0.0,0.0,0.0,0.0,0.0,0.0,0.0,0.0,0.0,0.0,-0.9796,-1.0075,0.0,0.0,0.0,-1.2724,-1.3603,-1.3886,-1.4704,-1.5146,-1.5199,-1.5146,-1.5424,-1.6042,-1.6349,-1.6772,-1.7301,-1.8155,-1.8713,-1.903,-1.959,-2.0013,-2.0302,-2.0302,-2.0302,-2.0277,-2.0088,-1.9913,-1.9842,-2.0228,-2.0433,-2.0805,-2.3015,-2.396,-2.4199,-2.4199,-2.4199,-2.4199,-2.4199,-2.4199,-2.4199,-2.4199,-2.4199,-2.4199,-2.4199,-2.4199,-2.4199,-2.4199,-2.4199,-2.4199,-2.4199,-2.3203,-2.231,-2.231,-2.231,-2.231,-2.231,-2.231,-2.231,-2.231,-2.231,-2.231,-2.231,-2.231,-2.231,-2.231,-2.231,-2.231,-2.231,-2.231,-2.231,-2.231,-2.231,-2.231,-2.231,-2.231,-2.231,-2.231,-2.231,-2.231,-2.231,-2.231,-2.231,-2.231,-2.231,-2.231]}]]